<?xml version='1.0' encoding='UTF-8'?>
<gpx version="1.1" creator="https://www.komoot.de" xmlns="http://www.topografix.com/GPX/1/1" xmlns:xsi="http://www.w3.org/2001/XMLSchema-instance" xsi:schemaLocation="http://www.topografix.com/GPX/1/1 http://www.topografix.com/GPX/1/1/gpx.xsd">
  <metadata>
    <name>Cuadjada</name>
    <author>
      <link href="https://www.komoot.de">
        <text>komoot</text>
        <type>text/html</type>
      </link>
    </author>
  </metadata>
  <trk>
    <name>Cuadjada</name>
    <trkseg>
      <trkpt lat="48.884357" lon="2.269393">
        <ele>39.021794</ele>
        <time>2025-05-06T12:44:19.486Z</time>
      </trkpt>
      <trkpt lat="48.884289" lon="2.269697">
        <ele>39.021794</ele>
        <time>2025-05-06T12:44:23.904Z</time>
      </trkpt>
      <trkpt lat="48.884371" lon="2.269759">
        <ele>39.021794</ele>
        <time>2025-05-06T12:44:25.751Z</time>
      </trkpt>
      <trkpt lat="48.885106" lon="2.270313">
        <ele>39.019140</ele>
        <time>2025-05-06T12:44:43.841Z</time>
      </trkpt>
      <trkpt lat="48.885171" lon="2.270363">
        <ele>39.018276</ele>
        <time>2025-05-06T12:44:45.454Z</time>
      </trkpt>
      <trkpt lat="48.885457" lon="2.269824">
        <ele>39.012873</ele>
        <time>2025-05-06T12:44:55.653Z</time>
      </trkpt>
      <trkpt lat="48.885688" lon="2.269388">
        <ele>39.008506</ele>
        <time>2025-05-06T12:45:04.252Z</time>
      </trkpt>
      <trkpt lat="48.885949" lon="2.268894">
        <ele>39.003563</ele>
        <time>2025-05-06T12:45:14.172Z</time>
      </trkpt>
      <trkpt lat="48.885991" lon="2.268944">
        <ele>39.002930</ele>
        <time>2025-05-06T12:45:17.871Z</time>
      </trkpt>
      <trkpt lat="48.886016" lon="2.268974">
        <ele>39.002552</ele>
        <time>2025-05-06T12:45:20.070Z</time>
      </trkpt>
      <trkpt lat="48.886025" lon="2.268956">
        <ele>39.002376</ele>
        <time>2025-05-06T12:45:21.114Z</time>
      </trkpt>
      <trkpt lat="48.886046" lon="2.268916">
        <ele>39.001976</ele>
        <time>2025-05-06T12:45:23.454Z</time>
      </trkpt>
      <trkpt lat="48.887113" lon="2.270210">
        <ele>38.236707</ele>
        <time>2025-05-06T12:45:51.694Z</time>
      </trkpt>
      <trkpt lat="48.887430" lon="2.270601">
        <ele>37.984639</ele>
        <time>2025-05-06T12:45:59.747Z</time>
      </trkpt>
      <trkpt lat="48.887643" lon="2.270862">
        <ele>37.835641</ele>
        <time>2025-05-06T12:46:05.255Z</time>
      </trkpt>
      <trkpt lat="48.887895" lon="2.271171">
        <ele>37.689617</ele>
        <time>2025-05-06T12:46:11.946Z</time>
      </trkpt>
      <trkpt lat="48.888217" lon="2.271571">
        <ele>37.502066</ele>
        <time>2025-05-06T12:46:20.710Z</time>
      </trkpt>
      <trkpt lat="48.888926" lon="2.272423">
        <ele>37.094446</ele>
        <time>2025-05-06T12:46:39.579Z</time>
      </trkpt>
      <trkpt lat="48.889283" lon="2.272850">
        <ele>37.111507</ele>
        <time>2025-05-06T12:46:50.596Z</time>
      </trkpt>
      <trkpt lat="48.889344" lon="2.272921">
        <ele>37.117607</ele>
        <time>2025-05-06T12:46:52.482Z</time>
      </trkpt>
      <trkpt lat="48.889410" lon="2.272999">
        <ele>37.124245</ele>
        <time>2025-05-06T12:46:54.528Z</time>
      </trkpt>
      <trkpt lat="48.889982" lon="2.273696">
        <ele>37.182456</ele>
        <time>2025-05-06T12:47:11.814Z</time>
      </trkpt>
      <trkpt lat="48.890037" lon="2.273764">
        <ele>37.188085</ele>
        <time>2025-05-06T12:47:13.487Z</time>
      </trkpt>
      <trkpt lat="48.890524" lon="2.274360">
        <ele>37.046239</ele>
        <time>2025-05-06T12:47:27.686Z</time>
      </trkpt>
      <trkpt lat="48.891206" lon="2.275183">
        <ele>36.317753</ele>
        <time>2025-05-06T12:47:45.199Z</time>
      </trkpt>
      <trkpt lat="48.891244" lon="2.275289">
        <ele>36.251330</ele>
        <time>2025-05-06T12:47:46.726Z</time>
      </trkpt>
      <trkpt lat="48.892300" lon="2.274393">
        <ele>35.136708</ele>
        <time>2025-05-06T12:48:10.161Z</time>
      </trkpt>
      <trkpt lat="48.892381" lon="2.274322">
        <ele>35.041606</ele>
        <time>2025-05-06T12:48:12.084Z</time>
      </trkpt>
      <trkpt lat="48.892416" lon="2.274407">
        <ele>34.974527</ele>
        <time>2025-05-06T12:48:13.413Z</time>
      </trkpt>
      <trkpt lat="48.892825" lon="2.275392">
        <ele>34.195360</ele>
        <time>2025-05-06T12:48:28.396Z</time>
      </trkpt>
      <trkpt lat="48.893035" lon="2.275895">
        <ele>33.890672</ele>
        <time>2025-05-06T12:48:36.380Z</time>
      </trkpt>
      <trkpt lat="48.893203" lon="2.276284">
        <ele>33.905521</ele>
        <time>2025-05-06T12:48:42.937Z</time>
      </trkpt>
      <trkpt lat="48.893266" lon="2.276431">
        <ele>33.911119</ele>
        <time>2025-05-06T12:48:45.395Z</time>
      </trkpt>
      <trkpt lat="48.893459" lon="2.276971">
        <ele>33.930727</ele>
        <time>2025-05-06T12:48:54.220Z</time>
      </trkpt>
      <trkpt lat="48.893480" lon="2.277030">
        <ele>33.932868</ele>
        <time>2025-05-06T12:48:55.254Z</time>
      </trkpt>
      <trkpt lat="48.893569" lon="2.277308">
        <ele>33.942732</ele>
        <time>2025-05-06T12:48:59.792Z</time>
      </trkpt>
      <trkpt lat="48.893608" lon="2.277423">
        <ele>33.946861</ele>
        <time>2025-05-06T12:49:01.603Z</time>
      </trkpt>
      <trkpt lat="48.893871" lon="2.278198">
        <ele>33.978812</ele>
        <time>2025-05-06T12:49:16.465Z</time>
      </trkpt>
      <trkpt lat="48.893984" lon="2.278523">
        <ele>34.038671</ele>
        <time>2025-05-06T12:49:23.417Z</time>
      </trkpt>
      <trkpt lat="48.894115" lon="2.278898">
        <ele>34.107812</ele>
        <time>2025-05-06T12:49:30.899Z</time>
      </trkpt>
      <trkpt lat="48.894129" lon="2.278938">
        <ele>34.115190</ele>
        <time>2025-05-06T12:49:31.629Z</time>
      </trkpt>
      <trkpt lat="48.894430" lon="2.279683">
        <ele>34.257562</ele>
        <time>2025-05-06T12:49:44.992Z</time>
      </trkpt>
      <trkpt lat="48.894935" lon="2.280942">
        <ele>34.413060</ele>
        <time>2025-05-06T12:50:05.759Z</time>
      </trkpt>
      <trkpt lat="48.895395" lon="2.282037">
        <ele>34.396772</ele>
        <time>2025-05-06T12:50:24.600Z</time>
      </trkpt>
      <trkpt lat="48.895819" lon="2.283023">
        <ele>34.433470</ele>
        <time>2025-05-06T12:50:42.559Z</time>
      </trkpt>
      <trkpt lat="48.896224" lon="2.283948">
        <ele>34.674415</ele>
        <time>2025-05-06T12:50:59.109Z</time>
      </trkpt>
      <trkpt lat="48.896426" lon="2.284450">
        <ele>34.802017</ele>
        <time>2025-05-06T12:51:07.930Z</time>
      </trkpt>
      <trkpt lat="48.896422" lon="2.285072">
        <ele>34.936872</ele>
        <time>2025-05-06T12:51:17.685Z</time>
      </trkpt>
      <trkpt lat="48.896393" lon="2.286586">
        <ele>35.607641</ele>
        <time>2025-05-06T12:51:46.883Z</time>
      </trkpt>
      <trkpt lat="48.896618" lon="2.287441">
        <ele>36.045265</ele>
        <time>2025-05-06T12:52:02.879Z</time>
      </trkpt>
      <trkpt lat="48.896638" lon="2.287517">
        <ele>36.084165</ele>
        <time>2025-05-06T12:52:04.066Z</time>
      </trkpt>
      <trkpt lat="48.896845" lon="2.288375">
        <ele>36.123911</ele>
        <time>2025-05-06T12:52:16.726Z</time>
      </trkpt>
      <trkpt lat="48.897065" lon="2.289326">
        <ele>35.816856</ele>
        <time>2025-05-06T12:52:30.179Z</time>
      </trkpt>
      <trkpt lat="48.897401" lon="2.290682">
        <ele>35.435128</ele>
        <time>2025-05-06T12:52:49.835Z</time>
      </trkpt>
      <trkpt lat="48.897712" lon="2.291974">
        <ele>35.376957</ele>
        <time>2025-05-06T12:53:11.776Z</time>
      </trkpt>
      <trkpt lat="48.897895" lon="2.292721">
        <ele>35.343254</ele>
        <time>2025-05-06T12:53:23.139Z</time>
      </trkpt>
      <trkpt lat="48.898534" lon="2.293048">
        <ele>35.000454</ele>
        <time>2025-05-06T12:53:37.659Z</time>
      </trkpt>
      <trkpt lat="48.899285" lon="2.293464">
        <ele>34.421423</ele>
        <time>2025-05-06T12:53:53.782Z</time>
      </trkpt>
      <trkpt lat="48.899989" lon="2.292832">
        <ele>33.667716</ele>
        <time>2025-05-06T12:54:10.028Z</time>
      </trkpt>
      <trkpt lat="48.900216" lon="2.292710">
        <ele>33.350176</ele>
        <time>2025-05-06T12:54:14.772Z</time>
      </trkpt>
      <trkpt lat="48.900298" lon="2.292693">
        <ele>33.241022</ele>
        <time>2025-05-06T12:54:16.371Z</time>
      </trkpt>
      <trkpt lat="48.900752" lon="2.292668">
        <ele>32.641823</ele>
        <time>2025-05-06T12:54:24.934Z</time>
      </trkpt>
      <trkpt lat="48.900835" lon="2.292712">
        <ele>32.525893</ele>
        <time>2025-05-06T12:54:26.601Z</time>
      </trkpt>
      <trkpt lat="48.900895" lon="2.292787">
        <ele>32.423466</ele>
        <time>2025-05-06T12:54:28.083Z</time>
      </trkpt>
      <trkpt lat="48.901064" lon="2.293191">
        <ele>32.008275</ele>
        <time>2025-05-06T12:54:34.104Z</time>
      </trkpt>
      <trkpt lat="48.901196" lon="2.293534">
        <ele>31.663669</ele>
        <time>2025-05-06T12:54:39.193Z</time>
      </trkpt>
      <trkpt lat="48.901201" lon="2.293545">
        <ele>31.653434</ele>
        <time>2025-05-06T12:54:39.358Z</time>
      </trkpt>
      <trkpt lat="48.901541" lon="2.294418">
        <ele>31.526729</ele>
        <time>2025-05-06T12:54:52.286Z</time>
      </trkpt>
      <trkpt lat="48.901640" lon="2.294656">
        <ele>31.491561</ele>
        <time>2025-05-06T12:54:56.017Z</time>
      </trkpt>
      <trkpt lat="48.901673" lon="2.294741">
        <ele>31.479234</ele>
        <time>2025-05-06T12:54:57.315Z</time>
      </trkpt>
      <trkpt lat="48.901730" lon="2.294878">
        <ele>31.458989</ele>
        <time>2025-05-06T12:54:59.666Z</time>
      </trkpt>
      <trkpt lat="48.902112" lon="2.295634">
        <ele>31.339925</ele>
        <time>2025-05-06T12:55:15.667Z</time>
      </trkpt>
      <trkpt lat="48.902609" lon="2.296579">
        <ele>32.417083</ele>
        <time>2025-05-06T12:55:38.886Z</time>
      </trkpt>
      <trkpt lat="48.902887" lon="2.296963">
        <ele>33.056895</ele>
        <time>2025-05-06T12:55:51.284Z</time>
      </trkpt>
      <trkpt lat="48.902989" lon="2.297196">
        <ele>33.370440</ele>
        <time>2025-05-06T12:55:57.615Z</time>
      </trkpt>
      <trkpt lat="48.903051" lon="2.297319">
        <ele>33.544047</ele>
        <time>2025-05-06T12:56:01.046Z</time>
      </trkpt>
      <trkpt lat="48.903356" lon="2.297821">
        <ele>34.309690</ele>
        <time>2025-05-06T12:56:15.828Z</time>
      </trkpt>
      <trkpt lat="48.903701" lon="2.298389">
        <ele>34.323542</ele>
        <time>2025-05-06T12:56:31.227Z</time>
      </trkpt>
      <trkpt lat="48.904162" lon="2.299148">
        <ele>34.246528</ele>
        <time>2025-05-06T12:56:46.636Z</time>
      </trkpt>
      <trkpt lat="48.904228" lon="2.299300">
        <ele>34.232952</ele>
        <time>2025-05-06T12:56:48.943Z</time>
      </trkpt>
      <trkpt lat="48.904924" lon="2.300730">
        <ele>33.369619</ele>
        <time>2025-05-06T12:57:10.546Z</time>
      </trkpt>
      <trkpt lat="48.905236" lon="2.301365">
        <ele>32.714613</ele>
        <time>2025-05-06T12:57:20.555Z</time>
      </trkpt>
      <trkpt lat="48.905462" lon="2.301814">
        <ele>32.247381</ele>
        <time>2025-05-06T12:57:28.085Z</time>
      </trkpt>
      <trkpt lat="48.906109" lon="2.302991">
        <ele>31.800542</ele>
        <time>2025-05-06T12:57:49.289Z</time>
      </trkpt>
      <trkpt lat="48.906224" lon="2.303197">
        <ele>31.773843</ele>
        <time>2025-05-06T12:57:53.008Z</time>
      </trkpt>
      <trkpt lat="48.906266" lon="2.303155">
        <ele>31.766289</ele>
        <time>2025-05-06T12:57:54.093Z</time>
      </trkpt>
      <trkpt lat="48.906640" lon="2.302785">
        <ele>31.699241</ele>
        <time>2025-05-06T12:58:03.874Z</time>
      </trkpt>
      <trkpt lat="48.906866" lon="2.302562">
        <ele>31.658757</ele>
        <time>2025-05-06T12:58:10.126Z</time>
      </trkpt>
      <trkpt lat="48.907221" lon="2.302172">
        <ele>31.789913</ele>
        <time>2025-05-06T12:58:21.366Z</time>
      </trkpt>
      <trkpt lat="48.907534" lon="2.301562">
        <ele>32.022354</ele>
        <time>2025-05-06T12:58:35.697Z</time>
      </trkpt>
      <trkpt lat="48.907598" lon="2.301428">
        <ele>32.072106</ele>
        <time>2025-05-06T12:58:38.771Z</time>
      </trkpt>
      <trkpt lat="48.907920" lon="2.300816">
        <ele>32.307567</ele>
        <time>2025-05-06T12:58:51.999Z</time>
      </trkpt>
      <trkpt lat="48.908072" lon="2.300528">
        <ele>32.418507</ele>
        <time>2025-05-06T12:58:57.249Z</time>
      </trkpt>
      <trkpt lat="48.908232" lon="2.300369">
        <ele>32.375499</ele>
        <time>2025-05-06T12:59:01.224Z</time>
      </trkpt>
      <trkpt lat="48.908408" lon="2.300322">
        <ele>32.204967</ele>
        <time>2025-05-06T12:59:04.822Z</time>
      </trkpt>
      <trkpt lat="48.908437" lon="2.300308">
        <ele>32.175931</ele>
        <time>2025-05-06T12:59:05.419Z</time>
      </trkpt>
      <trkpt lat="48.908453" lon="2.300290">
        <ele>32.156940</ele>
        <time>2025-05-06T12:59:05.818Z</time>
      </trkpt>
      <trkpt lat="48.908478" lon="2.300263">
        <ele>32.127682</ele>
        <time>2025-05-06T12:59:06.428Z</time>
      </trkpt>
      <trkpt lat="48.908552" lon="2.300180">
        <ele>32.039944</ele>
        <time>2025-05-06T12:59:08.220Z</time>
      </trkpt>
      <trkpt lat="48.908589" lon="2.300139">
        <ele>31.996261</ele>
        <time>2025-05-06T12:59:09.095Z</time>
      </trkpt>
      <trkpt lat="48.908599" lon="2.300127">
        <ele>31.984106</ele>
        <time>2025-05-06T12:59:09.344Z</time>
      </trkpt>
      <trkpt lat="48.908613" lon="2.300125">
        <ele>31.970687</ele>
        <time>2025-05-06T12:59:09.637Z</time>
      </trkpt>
      <trkpt lat="48.908675" lon="2.300118">
        <ele>31.911355</ele>
        <time>2025-05-06T12:59:10.870Z</time>
      </trkpt>
      <trkpt lat="48.908702" lon="2.300115">
        <ele>31.885519</ele>
        <time>2025-05-06T12:59:11.421Z</time>
      </trkpt>
      <trkpt lat="48.908723" lon="2.300112">
        <ele>31.865389</ele>
        <time>2025-05-06T12:59:11.837Z</time>
      </trkpt>
      <trkpt lat="48.908744" lon="2.300109">
        <ele>31.845260</ele>
        <time>2025-05-06T12:59:12.252Z</time>
      </trkpt>
      <trkpt lat="48.908745" lon="2.300077">
        <ele>31.825165</ele>
        <time>2025-05-06T12:59:12.681Z</time>
      </trkpt>
      <trkpt lat="48.908802" lon="2.299957">
        <ele>31.732296</ele>
        <time>2025-05-06T12:59:14.576Z</time>
      </trkpt>
      <trkpt lat="48.910582" lon="2.299152">
        <ele>30.870320</ele>
        <time>2025-05-06T12:59:53.111Z</time>
      </trkpt>
      <trkpt lat="48.910666" lon="2.299112">
        <ele>30.883471</ele>
        <time>2025-05-06T12:59:55.746Z</time>
      </trkpt>
      <trkpt lat="48.911056" lon="2.298947">
        <ele>30.943952</ele>
        <time>2025-05-06T13:00:07.633Z</time>
      </trkpt>
      <trkpt lat="48.911077" lon="2.298942">
        <ele>30.947128</ele>
        <time>2025-05-06T13:00:08.287Z</time>
      </trkpt>
      <trkpt lat="48.911090" lon="2.298937">
        <ele>30.949131</ele>
        <time>2025-05-06T13:00:08.700Z</time>
      </trkpt>
      <trkpt lat="48.911130" lon="2.298922">
        <ele>30.955287</ele>
        <time>2025-05-06T13:00:09.959Z</time>
      </trkpt>
      <trkpt lat="48.911179" lon="2.298902">
        <ele>30.962867</ele>
        <time>2025-05-06T13:00:11.441Z</time>
      </trkpt>
      <trkpt lat="48.911218" lon="2.298872">
        <ele>30.969396</ele>
        <time>2025-05-06T13:00:12.929Z</time>
      </trkpt>
      <trkpt lat="48.911303" lon="2.298811">
        <ele>30.983438</ele>
        <time>2025-05-06T13:00:15.771Z</time>
      </trkpt>
      <trkpt lat="48.911341" lon="2.298770">
        <ele>30.990398</ele>
        <time>2025-05-06T13:00:17.374Z</time>
      </trkpt>
      <trkpt lat="48.911421" lon="2.298712">
        <ele>31.003638</ele>
        <time>2025-05-06T13:00:20.198Z</time>
      </trkpt>
      <trkpt lat="48.913107" lon="2.297872">
        <ele>31.624004</ele>
        <time>2025-05-06T13:01:03.496Z</time>
      </trkpt>
      <trkpt lat="48.913380" lon="2.297704">
        <ele>31.475039</ele>
        <time>2025-05-06T13:01:09.568Z</time>
      </trkpt>
      <trkpt lat="48.914477" lon="2.296951">
        <ele>30.278408</ele>
        <time>2025-05-06T13:01:33.219Z</time>
      </trkpt>
      <trkpt lat="48.915034" lon="2.296477">
        <ele>29.752224</ele>
        <time>2025-05-06T13:01:45.350Z</time>
      </trkpt>
      <trkpt lat="48.915052" lon="2.296503">
        <ele>29.739180</ele>
        <time>2025-05-06T13:01:45.820Z</time>
      </trkpt>
      <trkpt lat="48.915036" lon="2.296527">
        <ele>29.727372</ele>
        <time>2025-05-06T13:01:46.259Z</time>
      </trkpt>
      <trkpt lat="48.915057" lon="2.296554">
        <ele>29.712923</ele>
        <time>2025-05-06T13:01:46.805Z</time>
      </trkpt>
      <trkpt lat="48.915135" lon="2.296446">
        <ele>29.657497</ele>
        <time>2025-05-06T13:01:49.025Z</time>
      </trkpt>
      <trkpt lat="48.915379" lon="2.296177">
        <ele>29.499137</ele>
        <time>2025-05-06T13:01:55.205Z</time>
      </trkpt>
      <trkpt lat="48.915639" lon="2.295981">
        <ele>29.346639</ele>
        <time>2025-05-06T13:02:01.190Z</time>
      </trkpt>
      <trkpt lat="48.915675" lon="2.295955">
        <ele>29.325696</ele>
        <time>2025-05-06T13:02:01.989Z</time>
      </trkpt>
      <trkpt lat="48.915808" lon="2.295893">
        <ele>29.252588</ele>
        <time>2025-05-06T13:02:04.855Z</time>
      </trkpt>
      <trkpt lat="48.916323" lon="2.295817">
        <ele>28.980649</ele>
        <time>2025-05-06T13:02:16.174Z</time>
      </trkpt>
      <trkpt lat="48.916404" lon="2.295807">
        <ele>28.937938</ele>
        <time>2025-05-06T13:02:18.084Z</time>
      </trkpt>
      <trkpt lat="48.916911" lon="2.295735">
        <ele>29.310851</ele>
        <time>2025-05-06T13:02:31.296Z</time>
      </trkpt>
      <trkpt lat="48.916948" lon="2.295731">
        <ele>29.339735</ele>
        <time>2025-05-06T13:02:32.321Z</time>
      </trkpt>
      <trkpt lat="48.917183" lon="2.295944">
        <ele>29.552728</ele>
        <time>2025-05-06T13:02:39.750Z</time>
      </trkpt>
      <trkpt lat="48.917262" lon="2.296010">
        <ele>29.622906</ele>
        <time>2025-05-06T13:02:42.150Z</time>
      </trkpt>
      <trkpt lat="48.917293" lon="2.295942">
        <ele>29.665255</ele>
        <time>2025-05-06T13:02:43.526Z</time>
      </trkpt>
      <trkpt lat="48.917307" lon="2.295917">
        <ele>29.682063</ele>
        <time>2025-05-06T13:02:44.100Z</time>
      </trkpt>
      <trkpt lat="48.917353" lon="2.295890">
        <ele>29.720455</ele>
        <time>2025-05-06T13:02:45.381Z</time>
      </trkpt>
      <trkpt lat="48.917952" lon="2.296413">
        <ele>30.258213</ele>
        <time>2025-05-06T13:03:04.343Z</time>
      </trkpt>
      <trkpt lat="48.918049" lon="2.296499">
        <ele>30.317306</ele>
        <time>2025-05-06T13:03:07.564Z</time>
      </trkpt>
      <trkpt lat="48.918069" lon="2.296516">
        <ele>30.304741</ele>
        <time>2025-05-06T13:03:08.186Z</time>
      </trkpt>
      <trkpt lat="48.918095" lon="2.296539">
        <ele>30.288247</ele>
        <time>2025-05-06T13:03:09.023Z</time>
      </trkpt>
      <trkpt lat="48.918802" lon="2.297162">
        <ele>29.840157</ele>
        <time>2025-05-06T13:03:29.970Z</time>
      </trkpt>
      <trkpt lat="48.918834" lon="2.297190">
        <ele>29.819912</ele>
        <time>2025-05-06T13:03:30.736Z</time>
      </trkpt>
      <trkpt lat="48.918865" lon="2.297217">
        <ele>29.800321</ele>
        <time>2025-05-06T13:03:31.455Z</time>
      </trkpt>
      <trkpt lat="48.919537" lon="2.297803">
        <ele>29.375524</ele>
        <time>2025-05-06T13:03:45.701Z</time>
      </trkpt>
      <trkpt lat="48.919579" lon="2.297842">
        <ele>29.348538</ele>
        <time>2025-05-06T13:03:46.561Z</time>
      </trkpt>
      <trkpt lat="48.919693" lon="2.297828">
        <ele>29.297936</ele>
        <time>2025-05-06T13:03:48.615Z</time>
      </trkpt>
      <trkpt lat="48.919718" lon="2.297843">
        <ele>29.286349</ele>
        <time>2025-05-06T13:03:49.080Z</time>
      </trkpt>
      <trkpt lat="48.919744" lon="2.297859">
        <ele>29.274257</ele>
        <time>2025-05-06T13:03:49.585Z</time>
      </trkpt>
      <trkpt lat="48.919771" lon="2.297869">
        <ele>29.262276</ele>
        <time>2025-05-06T13:03:50.097Z</time>
      </trkpt>
      <trkpt lat="48.919786" lon="2.298210">
        <ele>29.165447</ele>
        <time>2025-05-06T13:03:54.225Z</time>
      </trkpt>
      <trkpt lat="48.919800" lon="2.298219">
        <ele>29.158894</ele>
        <time>2025-05-06T13:03:54.503Z</time>
      </trkpt>
      <trkpt lat="48.920058" lon="2.298428">
        <ele>29.032875</ele>
        <time>2025-05-06T13:04:00.100Z</time>
      </trkpt>
      <trkpt lat="48.920377" lon="2.298678">
        <ele>28.878168</ele>
        <time>2025-05-06T13:04:07.263Z</time>
      </trkpt>
      <trkpt lat="48.920396" lon="2.298693">
        <ele>28.868939</ele>
        <time>2025-05-06T13:04:07.699Z</time>
      </trkpt>
      <trkpt lat="48.920516" lon="2.298788">
        <ele>28.810618</ele>
        <time>2025-05-06T13:04:10.554Z</time>
      </trkpt>
      <trkpt lat="48.920561" lon="2.298824">
        <ele>28.788698</ele>
        <time>2025-05-06T13:04:11.736Z</time>
      </trkpt>
      <trkpt lat="48.920602" lon="2.298856">
        <ele>28.768831</ele>
        <time>2025-05-06T13:04:12.833Z</time>
      </trkpt>
      <trkpt lat="48.920742" lon="2.298964">
        <ele>28.701156</ele>
        <time>2025-05-06T13:04:17.221Z</time>
      </trkpt>
      <trkpt lat="48.921149" lon="2.299283">
        <ele>28.753862</ele>
        <time>2025-05-06T13:04:32.146Z</time>
      </trkpt>
      <trkpt lat="48.921166" lon="2.299295">
        <ele>28.777740</ele>
        <time>2025-05-06T13:04:32.735Z</time>
      </trkpt>
      <trkpt lat="48.921197" lon="2.299322">
        <ele>28.823251</ele>
        <time>2025-05-06T13:04:34.124Z</time>
      </trkpt>
      <trkpt lat="48.921230" lon="2.299350">
        <ele>28.871392</ele>
        <time>2025-05-06T13:04:35.623Z</time>
      </trkpt>
      <trkpt lat="48.921282" lon="2.299395">
        <ele>28.947612</ele>
        <time>2025-05-06T13:04:38.045Z</time>
      </trkpt>
      <trkpt lat="48.921311" lon="2.299422">
        <ele>28.990929</ele>
        <time>2025-05-06T13:04:39.154Z</time>
      </trkpt>
      <trkpt lat="48.921391" lon="2.299487">
        <ele>29.106480</ele>
        <time>2025-05-06T13:04:42.194Z</time>
      </trkpt>
      <trkpt lat="48.921755" lon="2.299726">
        <ele>29.611603</ele>
        <time>2025-05-06T13:04:54.991Z</time>
      </trkpt>
      <trkpt lat="48.921758" lon="2.299792">
        <ele>29.666993</ele>
        <time>2025-05-06T13:04:56.248Z</time>
      </trkpt>
      <trkpt lat="48.921782" lon="2.299803">
        <ele>29.698929</ele>
        <time>2025-05-06T13:04:57.028Z</time>
      </trkpt>
      <trkpt lat="48.921926" lon="2.299834">
        <ele>29.884236</ele>
        <time>2025-05-06T13:05:01.183Z</time>
      </trkpt>
      <trkpt lat="48.922071" lon="2.299858">
        <ele>30.070080</ele>
        <time>2025-05-06T13:05:05.266Z</time>
      </trkpt>
      <trkpt lat="48.922277" lon="2.299879">
        <ele>30.333147</ele>
        <time>2025-05-06T13:05:10.833Z</time>
      </trkpt>
      <trkpt lat="48.922610" lon="2.299911">
        <ele>30.758290</ele>
        <time>2025-05-06T13:05:19.327Z</time>
      </trkpt>
      <trkpt lat="48.922764" lon="2.299925">
        <ele>30.867967</ele>
        <time>2025-05-06T13:05:22.988Z</time>
      </trkpt>
      <trkpt lat="48.922953" lon="2.299941">
        <ele>30.891044</ele>
        <time>2025-05-06T13:05:27.230Z</time>
      </trkpt>
      <trkpt lat="48.923087" lon="2.299959">
        <ele>30.907444</ele>
        <time>2025-05-06T13:05:30.370Z</time>
      </trkpt>
      <trkpt lat="48.923188" lon="2.299974">
        <ele>30.919816</ele>
        <time>2025-05-06T13:05:32.855Z</time>
      </trkpt>
      <trkpt lat="48.924318" lon="2.300046">
        <ele>31.057698</ele>
        <time>2025-05-06T13:05:58.825Z</time>
      </trkpt>
      <trkpt lat="48.924404" lon="2.300054">
        <ele>31.068202</ele>
        <time>2025-05-06T13:06:00.672Z</time>
      </trkpt>
      <trkpt lat="48.924436" lon="2.300053">
        <ele>31.072104</ele>
        <time>2025-05-06T13:06:01.345Z</time>
      </trkpt>
      <trkpt lat="48.924434" lon="2.299988">
        <ele>31.077316</ele>
        <time>2025-05-06T13:06:02.289Z</time>
      </trkpt>
      <trkpt lat="48.924487" lon="2.299987">
        <ele>31.070333</ele>
        <time>2025-05-06T13:06:03.458Z</time>
      </trkpt>
      <trkpt lat="48.925067" lon="2.299983">
        <ele>30.975040</ele>
        <time>2025-05-06T13:06:16.109Z</time>
      </trkpt>
      <trkpt lat="48.925480" lon="2.299968">
        <ele>30.907167</ele>
        <time>2025-05-06T13:06:25.018Z</time>
      </trkpt>
      <trkpt lat="48.925515" lon="2.299952">
        <ele>30.901162</ele>
        <time>2025-05-06T13:06:25.799Z</time>
      </trkpt>
      <trkpt lat="48.925617" lon="2.299841">
        <ele>30.880561</ele>
        <time>2025-05-06T13:06:28.553Z</time>
      </trkpt>
      <trkpt lat="48.925673" lon="2.299825">
        <ele>30.871200</ele>
        <time>2025-05-06T13:06:29.831Z</time>
      </trkpt>
      <trkpt lat="48.925726" lon="2.299831">
        <ele>30.862468</ele>
        <time>2025-05-06T13:06:31.032Z</time>
      </trkpt>
      <trkpt lat="48.925790" lon="2.299900">
        <ele>30.849582</ele>
        <time>2025-05-06T13:06:32.821Z</time>
      </trkpt>
      <trkpt lat="48.925800" lon="2.299935">
        <ele>30.845462</ele>
        <time>2025-05-06T13:06:33.419Z</time>
      </trkpt>
      <trkpt lat="48.925856" lon="2.299945">
        <ele>30.836199</ele>
        <time>2025-05-06T13:06:34.743Z</time>
      </trkpt>
      <trkpt lat="48.926172" lon="2.299997">
        <ele>30.783979</ele>
        <time>2025-05-06T13:06:42.885Z</time>
      </trkpt>
      <trkpt lat="48.926396" lon="2.300041">
        <ele>30.805067</ele>
        <time>2025-05-06T13:06:49.069Z</time>
      </trkpt>
      <trkpt lat="48.926399" lon="2.300041">
        <ele>30.805378</ele>
        <time>2025-05-06T13:06:49.153Z</time>
      </trkpt>
      <trkpt lat="48.926402" lon="2.300083">
        <ele>30.808258</ele>
        <time>2025-05-06T13:06:49.912Z</time>
      </trkpt>
      <trkpt lat="48.926405" lon="2.300125">
        <ele>30.811138</ele>
        <time>2025-05-06T13:06:50.661Z</time>
      </trkpt>
      <trkpt lat="48.926407" lon="2.300159">
        <ele>30.813465</ele>
        <time>2025-05-06T13:06:51.271Z</time>
      </trkpt>
      <trkpt lat="48.926414" lon="2.300270">
        <ele>30.821066</ele>
        <time>2025-05-06T13:06:53.224Z</time>
      </trkpt>
      <trkpt lat="48.926701" lon="2.301519">
        <ele>30.911263</ele>
        <time>2025-05-06T13:07:15.015Z</time>
      </trkpt>
      <trkpt lat="48.926892" lon="2.302383">
        <ele>30.948129</ele>
        <time>2025-05-06T13:07:28.222Z</time>
      </trkpt>
      <trkpt lat="48.926922" lon="2.302448">
        <ele>30.921354</ele>
        <time>2025-05-06T13:07:29.322Z</time>
      </trkpt>
      <trkpt lat="48.926943" lon="2.302437">
        <ele>30.909960</ele>
        <time>2025-05-06T13:07:29.932Z</time>
      </trkpt>
      <trkpt lat="48.926979" lon="2.302419">
        <ele>30.890520</ele>
        <time>2025-05-06T13:07:30.995Z</time>
      </trkpt>
      <trkpt lat="48.927033" lon="2.302666">
        <ele>30.802776</ele>
        <time>2025-05-06T13:07:34.629Z</time>
      </trkpt>
      <trkpt lat="48.927069" lon="2.302828">
        <ele>30.745132</ele>
        <time>2025-05-06T13:07:36.960Z</time>
      </trkpt>
      <trkpt lat="48.927101" lon="2.302978">
        <ele>30.691974</ele>
        <time>2025-05-06T13:07:39.088Z</time>
      </trkpt>
      <trkpt lat="48.927037" lon="2.303062">
        <ele>30.648618</ele>
        <time>2025-05-06T13:07:40.779Z</time>
      </trkpt>
      <trkpt lat="48.927026" lon="2.303170">
        <ele>30.611780</ele>
        <time>2025-05-06T13:07:42.169Z</time>
      </trkpt>
      <trkpt lat="48.927130" lon="2.303679">
        <ele>30.432108</ele>
        <time>2025-05-06T13:07:49.229Z</time>
      </trkpt>
      <trkpt lat="48.927188" lon="2.303748">
        <ele>30.394342</ele>
        <time>2025-05-06T13:07:50.732Z</time>
      </trkpt>
      <trkpt lat="48.927284" lon="2.303737">
        <ele>30.344952</ele>
        <time>2025-05-06T13:07:52.709Z</time>
      </trkpt>
      <trkpt lat="48.927329" lon="2.303666">
        <ele>30.311700</ele>
        <time>2025-05-06T13:07:54.054Z</time>
      </trkpt>
      <trkpt lat="48.927371" lon="2.303696">
        <ele>30.287898</ele>
        <time>2025-05-06T13:07:55.135Z</time>
      </trkpt>
      <trkpt lat="48.927509" lon="2.303769">
        <ele>30.212947</ele>
        <time>2025-05-06T13:07:58.570Z</time>
      </trkpt>
      <trkpt lat="48.927514" lon="2.303774">
        <ele>30.209878</ele>
        <time>2025-05-06T13:07:58.703Z</time>
      </trkpt>
      <trkpt lat="48.927514" lon="2.303774">
        <ele>30.209878</ele>
        <time>2025-05-06T13:07:58.703Z</time>
      </trkpt>
      <trkpt lat="48.927531" lon="2.303804">
        <ele>30.196524</ele>
        <time>2025-05-06T13:07:59.349Z</time>
      </trkpt>
      <trkpt lat="48.927915" lon="2.304036">
        <ele>30.094915</ele>
        <time>2025-05-06T13:08:09.731Z</time>
      </trkpt>
      <trkpt lat="48.928467" lon="2.304327">
        <ele>30.330042</ele>
        <time>2025-05-06T13:08:25.642Z</time>
      </trkpt>
      <trkpt lat="48.928908" lon="2.304500">
        <ele>30.513344</ele>
        <time>2025-05-06T13:08:38.348Z</time>
      </trkpt>
      <trkpt lat="48.929150" lon="2.304572">
        <ele>30.612592</ele>
        <time>2025-05-06T13:08:45.152Z</time>
      </trkpt>
      <trkpt lat="48.929488" lon="2.304562">
        <ele>30.748661</ele>
        <time>2025-05-06T13:08:54.316Z</time>
      </trkpt>
      <trkpt lat="48.929784" lon="2.304476">
        <ele>30.741222</ele>
        <time>2025-05-06T13:09:02.264Z</time>
      </trkpt>
      <trkpt lat="48.930190" lon="2.304225">
        <ele>30.689637</ele>
        <time>2025-05-06T13:09:13.267Z</time>
      </trkpt>
      <trkpt lat="48.930202" lon="2.304105">
        <ele>30.680249</ele>
        <time>2025-05-06T13:09:15.206Z</time>
      </trkpt>
      <trkpt lat="48.930263" lon="2.304060">
        <ele>30.672270</ele>
        <time>2025-05-06T13:09:16.842Z</time>
      </trkpt>
      <trkpt lat="48.930335" lon="2.304134">
        <ele>30.662043</ele>
        <time>2025-05-06T13:09:18.931Z</time>
      </trkpt>
      <trkpt lat="48.930382" lon="2.304097">
        <ele>30.655814</ele>
        <time>2025-05-06T13:09:20.210Z</time>
      </trkpt>
      <trkpt lat="48.930461" lon="2.304047">
        <ele>30.645742</ele>
        <time>2025-05-06T13:09:22.260Z</time>
      </trkpt>
      <trkpt lat="48.930785" lon="2.303950">
        <ele>30.606871</ele>
        <time>2025-05-06T13:09:30.088Z</time>
      </trkpt>
      <trkpt lat="48.931260" lon="2.303947">
        <ele>30.535498</ele>
        <time>2025-05-06T13:09:41.106Z</time>
      </trkpt>
      <trkpt lat="48.931399" lon="2.303946">
        <ele>30.486140</ele>
        <time>2025-05-06T13:09:44.343Z</time>
      </trkpt>
      <trkpt lat="48.931460" lon="2.304013">
        <ele>30.459429</ele>
        <time>2025-05-06T13:09:46.099Z</time>
      </trkpt>
      <trkpt lat="48.931621" lon="2.304200">
        <ele>30.387517</ele>
        <time>2025-05-06T13:09:50.917Z</time>
      </trkpt>
      <trkpt lat="48.931736" lon="2.304241">
        <ele>30.345576</ele>
        <time>2025-05-06T13:09:53.745Z</time>
      </trkpt>
      <trkpt lat="48.931993" lon="2.304333">
        <ele>30.251828</ele>
        <time>2025-05-06T13:10:00.071Z</time>
      </trkpt>
      <trkpt lat="48.932057" lon="2.304347">
        <ele>30.228868</ele>
        <time>2025-05-06T13:10:01.625Z</time>
      </trkpt>
      <trkpt lat="48.932057" lon="2.304347">
        <ele>30.228868</ele>
        <time>2025-05-06T13:10:01.625Z</time>
      </trkpt>
      <trkpt lat="48.932096" lon="2.304371">
        <ele>30.213931</ele>
        <time>2025-05-06T13:10:02.618Z</time>
      </trkpt>
      <trkpt lat="48.932171" lon="2.304476">
        <ele>30.177747</ele>
        <time>2025-05-06T13:10:05.068Z</time>
      </trkpt>
      <trkpt lat="48.932064" lon="2.304604">
        <ele>30.129423</ele>
        <time>2025-05-06T13:10:08.023Z</time>
      </trkpt>
      <trkpt lat="48.931841" lon="2.305008">
        <ele>30.006328</ele>
        <time>2025-05-06T13:10:15.449Z</time>
      </trkpt>
      <trkpt lat="48.931719" lon="2.305232">
        <ele>29.938451</ele>
        <time>2025-05-06T13:10:19.462Z</time>
      </trkpt>
      <trkpt lat="48.931760" lon="2.305400">
        <ele>29.903985</ele>
        <time>2025-05-06T13:10:22.762Z</time>
      </trkpt>
      <trkpt lat="48.931936" lon="2.305076">
        <ele>29.836822</ele>
        <time>2025-05-06T13:10:28.893Z</time>
      </trkpt>
      <trkpt lat="48.932104" lon="2.304750">
        <ele>29.770632</ele>
        <time>2025-05-06T13:10:35.027Z</time>
      </trkpt>
      <trkpt lat="48.932267" lon="2.304570">
        <ele>29.721663</ele>
        <time>2025-05-06T13:10:39.566Z</time>
      </trkpt>
      <trkpt lat="48.932358" lon="2.304509">
        <ele>29.697484</ele>
        <time>2025-05-06T13:10:41.800Z</time>
      </trkpt>
      <trkpt lat="48.933017" lon="2.304446">
        <ele>29.536918</ele>
        <time>2025-05-06T13:10:56.598Z</time>
      </trkpt>
      <trkpt lat="48.933088" lon="2.304440">
        <ele>29.519626</ele>
        <time>2025-05-06T13:10:58.202Z</time>
      </trkpt>
      <trkpt lat="48.933105" lon="2.304580">
        <ele>29.496882</ele>
        <time>2025-05-06T13:11:00.206Z</time>
      </trkpt>
      <trkpt lat="48.933202" lon="2.305954">
        <ele>29.370247</ele>
        <time>2025-05-06T13:11:20.364Z</time>
      </trkpt>
      <trkpt lat="48.933188" lon="2.306249">
        <ele>29.344541</ele>
        <time>2025-05-06T13:11:24.763Z</time>
      </trkpt>
      <trkpt lat="48.933178" lon="2.306372">
        <ele>29.333769</ele>
        <time>2025-05-06T13:11:26.524Z</time>
      </trkpt>
      <trkpt lat="48.933219" lon="2.307200">
        <ele>29.261602</ele>
        <time>2025-05-06T13:11:38.211Z</time>
      </trkpt>
      <trkpt lat="48.933236" lon="2.307444">
        <ele>29.244614</ele>
        <time>2025-05-06T13:11:41.704Z</time>
      </trkpt>
      <trkpt lat="48.933260" lon="2.307576">
        <ele>29.244653</ele>
        <time>2025-05-06T13:11:43.692Z</time>
      </trkpt>
      <trkpt lat="48.933321" lon="2.307789">
        <ele>29.244718</ele>
        <time>2025-05-06T13:11:46.937Z</time>
      </trkpt>
      <trkpt lat="48.933339" lon="2.308021">
        <ele>29.244784</ele>
        <time>2025-05-06T13:11:50.251Z</time>
      </trkpt>
      <trkpt lat="48.933402" lon="2.308008">
        <ele>29.244811</ele>
        <time>2025-05-06T13:11:52.033Z</time>
      </trkpt>
      <trkpt lat="48.933560" lon="2.307986">
        <ele>29.244879</ele>
        <time>2025-05-06T13:11:56.663Z</time>
      </trkpt>
      <trkpt lat="48.933565" lon="2.308087">
        <ele>29.244908</ele>
        <time>2025-05-06T13:11:58.672Z</time>
      </trkpt>
      <trkpt lat="48.933594" lon="2.308083">
        <ele>29.244920</ele>
        <time>2025-05-06T13:11:59.341Z</time>
      </trkpt>
      <trkpt lat="48.933688" lon="2.308031">
        <ele>29.244963</ele>
        <time>2025-05-06T13:12:01.712Z</time>
      </trkpt>
      <trkpt lat="48.933705" lon="2.308253">
        <ele>29.245026</ele>
        <time>2025-05-06T13:12:05.172Z</time>
      </trkpt>
      <trkpt lat="48.933787" lon="2.308495">
        <ele>29.245102</ele>
        <time>2025-05-06T13:12:09.334Z</time>
      </trkpt>
      <trkpt lat="48.933938" lon="2.308730">
        <ele>29.245195</ele>
        <time>2025-05-06T13:12:14.240Z</time>
      </trkpt>
      <trkpt lat="48.934068" lon="2.308847">
        <ele>29.245260</ele>
        <time>2025-05-06T13:12:17.679Z</time>
      </trkpt>
      <trkpt lat="48.934475" lon="2.308767">
        <ele>29.312576</ele>
        <time>2025-05-06T13:12:27.705Z</time>
      </trkpt>
      <trkpt lat="48.934634" lon="2.308780">
        <ele>29.383401</ele>
        <time>2025-05-06T13:12:31.439Z</time>
      </trkpt>
      <trkpt lat="48.934909" lon="2.308865">
        <ele>29.508217</ele>
        <time>2025-05-06T13:12:38.019Z</time>
      </trkpt>
      <trkpt lat="48.935248" lon="2.309079">
        <ele>29.671455</ele>
        <time>2025-05-06T13:12:47.106Z</time>
      </trkpt>
      <trkpt lat="48.935892" lon="2.309624">
        <ele>29.999195</ele>
        <time>2025-05-06T13:13:05.369Z</time>
      </trkpt>
      <trkpt lat="48.936121" lon="2.309783">
        <ele>30.082016</ele>
        <time>2025-05-06T13:13:11.565Z</time>
      </trkpt>
      <trkpt lat="48.936245" lon="2.309840">
        <ele>30.114100</ele>
        <time>2025-05-06T13:13:14.783Z</time>
      </trkpt>
      <trkpt lat="48.936377" lon="2.309850">
        <ele>30.146836</ele>
        <time>2025-05-06T13:13:18.069Z</time>
      </trkpt>
      <trkpt lat="48.936462" lon="2.309812">
        <ele>30.168779</ele>
        <time>2025-05-06T13:13:20.296Z</time>
      </trkpt>
      <trkpt lat="48.936729" lon="2.309694">
        <ele>30.237643</ele>
        <time>2025-05-06T13:13:27.402Z</time>
      </trkpt>
      <trkpt lat="48.936858" lon="2.309697">
        <ele>30.269599</ele>
        <time>2025-05-06T13:13:30.591Z</time>
      </trkpt>
      <trkpt lat="48.936956" lon="2.309746">
        <ele>30.295149</ele>
        <time>2025-05-06T13:13:32.997Z</time>
      </trkpt>
      <trkpt lat="48.937185" lon="2.309938">
        <ele>30.359904</ele>
        <time>2025-05-06T13:13:38.757Z</time>
      </trkpt>
      <trkpt lat="48.937258" lon="2.309983">
        <ele>30.379412</ele>
        <time>2025-05-06T13:13:40.407Z</time>
      </trkpt>
      <trkpt lat="48.937480" lon="2.310086">
        <ele>30.436897</ele>
        <time>2025-05-06T13:13:45.402Z</time>
      </trkpt>
      <trkpt lat="48.937597" lon="2.310218">
        <ele>30.472967</ele>
        <time>2025-05-06T13:13:48.580Z</time>
      </trkpt>
      <trkpt lat="48.937672" lon="2.310445">
        <ele>30.570425</ele>
        <time>2025-05-06T13:13:52.234Z</time>
      </trkpt>
      <trkpt lat="48.937693" lon="2.310672">
        <ele>30.697198</ele>
        <time>2025-05-06T13:13:55.547Z</time>
      </trkpt>
      <trkpt lat="48.937687" lon="2.310942">
        <ele>30.846597</ele>
        <time>2025-05-06T13:13:59.600Z</time>
      </trkpt>
      <trkpt lat="48.937643" lon="2.311273">
        <ele>31.033354</ele>
        <time>2025-05-06T13:14:05.320Z</time>
      </trkpt>
      <trkpt lat="48.937447" lon="2.312405">
        <ele>31.680748</ele>
        <time>2025-05-06T13:14:26.713Z</time>
      </trkpt>
      <trkpt lat="48.937420" lon="2.312631">
        <ele>31.807780</ele>
        <time>2025-05-06T13:14:31.036Z</time>
      </trkpt>
      <trkpt lat="48.937467" lon="2.312966">
        <ele>31.997218</ele>
        <time>2025-05-06T13:14:37.851Z</time>
      </trkpt>
      <trkpt lat="48.937563" lon="2.313321">
        <ele>32.169122</ele>
        <time>2025-05-06T13:14:45.597Z</time>
      </trkpt>
      <trkpt lat="48.937369" lon="2.313564">
        <ele>32.338813</ele>
        <time>2025-05-06T13:14:56.617Z</time>
      </trkpt>
      <trkpt lat="48.937253" lon="2.313588">
        <ele>32.417885</ele>
        <time>2025-05-06T13:15:01.581Z</time>
      </trkpt>
      <trkpt lat="48.937205" lon="2.313545">
        <ele>32.455504</ele>
        <time>2025-05-06T13:15:03.977Z</time>
      </trkpt>
      <trkpt lat="48.937070" lon="2.313243">
        <ele>32.617582</ele>
        <time>2025-05-06T13:15:14.050Z</time>
      </trkpt>
      <trkpt lat="48.937087" lon="2.313172">
        <ele>32.651112</ele>
        <time>2025-05-06T13:15:15.385Z</time>
      </trkpt>
      <trkpt lat="48.937034" lon="2.313009">
        <ele>32.731809</ele>
        <time>2025-05-06T13:15:18.427Z</time>
      </trkpt>
      <trkpt lat="48.937057" lon="2.312969">
        <ele>32.755396</ele>
        <time>2025-05-06T13:15:19.330Z</time>
      </trkpt>
      <trkpt lat="48.937106" lon="2.313009">
        <ele>32.792951</ele>
        <time>2025-05-06T13:15:20.678Z</time>
      </trkpt>
      <trkpt lat="48.937161" lon="2.313136">
        <ele>32.860444</ele>
        <time>2025-05-06T13:15:23.045Z</time>
      </trkpt>
      <trkpt lat="48.937173" lon="2.313197">
        <ele>32.888697</ele>
        <time>2025-05-06T13:15:24.046Z</time>
      </trkpt>
      <trkpt lat="48.937161" lon="2.313136">
        <ele>32.916950</ele>
        <time>2025-05-06T13:15:25.010Z</time>
      </trkpt>
      <trkpt lat="48.937106" lon="2.313009">
        <ele>32.984442</ele>
        <time>2025-05-06T13:15:27.342Z</time>
      </trkpt>
      <trkpt lat="48.937057" lon="2.312969">
        <ele>33.021998</ele>
        <time>2025-05-06T13:15:28.628Z</time>
      </trkpt>
      <trkpt lat="48.937034" lon="2.313009">
        <ele>33.045584</ele>
        <time>2025-05-06T13:15:29.418Z</time>
      </trkpt>
      <trkpt lat="48.937087" lon="2.313172">
        <ele>33.126281</ele>
        <time>2025-05-06T13:15:32.295Z</time>
      </trkpt>
      <trkpt lat="48.937070" lon="2.313243">
        <ele>33.159811</ele>
        <time>2025-05-06T13:15:33.425Z</time>
      </trkpt>
      <trkpt lat="48.937205" lon="2.313545">
        <ele>33.111004</ele>
        <time>2025-05-06T13:15:42.289Z</time>
      </trkpt>
      <trkpt lat="48.937253" lon="2.313588">
        <ele>33.070727</ele>
        <time>2025-05-06T13:15:44.295Z</time>
      </trkpt>
      <trkpt lat="48.937369" lon="2.313564">
        <ele>32.986067</ele>
        <time>2025-05-06T13:15:48.537Z</time>
      </trkpt>
      <trkpt lat="48.937563" lon="2.313321">
        <ele>32.804384</ele>
        <time>2025-05-06T13:15:57.411Z</time>
      </trkpt>
      <trkpt lat="48.937774" lon="2.313794">
        <ele>32.532774</ele>
        <time>2025-05-06T13:16:05.081Z</time>
      </trkpt>
      <trkpt lat="48.937886" lon="2.313827">
        <ele>32.450275</ele>
        <time>2025-05-06T13:16:07.373Z</time>
      </trkpt>
      <trkpt lat="48.938431" lon="2.314066">
        <ele>32.040115</ele>
        <time>2025-05-06T13:16:18.503Z</time>
      </trkpt>
      <trkpt lat="48.938483" lon="2.314101">
        <ele>31.998998</ele>
        <time>2025-05-06T13:16:19.608Z</time>
      </trkpt>
      <trkpt lat="48.938592" lon="2.314324">
        <ele>31.888289</ele>
        <time>2025-05-06T13:16:23.162Z</time>
      </trkpt>
      <trkpt lat="48.938861" lon="2.314126">
        <ele>31.760273</ele>
        <time>2025-05-06T13:16:29.059Z</time>
      </trkpt>
      <trkpt lat="48.939007" lon="2.314091">
        <ele>31.696949</ele>
        <time>2025-05-06T13:16:32.044Z</time>
      </trkpt>
      <trkpt lat="48.939076" lon="2.314110">
        <ele>31.666907</ele>
        <time>2025-05-06T13:16:33.451Z</time>
      </trkpt>
      <trkpt lat="48.939198" lon="2.314179">
        <ele>31.611146</ele>
        <time>2025-05-06T13:16:36.171Z</time>
      </trkpt>
      <trkpt lat="48.939346" lon="2.314337">
        <ele>31.533699</ele>
        <time>2025-05-06T13:16:40.006Z</time>
      </trkpt>
      <trkpt lat="48.939526" lon="2.314634">
        <ele>31.419972</ele>
        <time>2025-05-06T13:16:45.832Z</time>
      </trkpt>
      <trkpt lat="48.939628" lon="2.315001">
        <ele>31.307823</ele>
        <time>2025-05-06T13:16:51.525Z</time>
      </trkpt>
      <trkpt lat="48.939714" lon="2.315213">
        <ele>31.237700</ele>
        <time>2025-05-06T13:16:55.126Z</time>
      </trkpt>
      <trkpt lat="48.939762" lon="2.315307">
        <ele>31.204193</ele>
        <time>2025-05-06T13:16:56.843Z</time>
      </trkpt>
      <trkpt lat="48.939820" lon="2.315359">
        <ele>31.175354</ele>
        <time>2025-05-06T13:16:58.378Z</time>
      </trkpt>
      <trkpt lat="48.940215" lon="2.315650">
        <ele>31.116154</ele>
        <time>2025-05-06T13:17:08.645Z</time>
      </trkpt>
      <trkpt lat="48.940390" lon="2.315894">
        <ele>31.095656</ele>
        <time>2025-05-06T13:17:14.252Z</time>
      </trkpt>
      <trkpt lat="48.940643" lon="2.316106">
        <ele>31.070711</ele>
        <time>2025-05-06T13:17:20.683Z</time>
      </trkpt>
      <trkpt lat="48.940814" lon="2.316232">
        <ele>31.054301</ele>
        <time>2025-05-06T13:17:24.816Z</time>
      </trkpt>
      <trkpt lat="48.940931" lon="2.316477">
        <ele>31.037115</ele>
        <time>2025-05-06T13:17:29.150Z</time>
      </trkpt>
      <trkpt lat="48.940985" lon="2.316843">
        <ele>31.015832</ele>
        <time>2025-05-06T13:17:34.513Z</time>
      </trkpt>
      <trkpt lat="48.940964" lon="2.317032">
        <ele>31.004957</ele>
        <time>2025-05-06T13:17:37.247Z</time>
      </trkpt>
      <trkpt lat="48.940935" lon="2.317281">
        <ele>30.982112</ele>
        <time>2025-05-06T13:17:40.815Z</time>
      </trkpt>
      <trkpt lat="48.940935" lon="2.317675">
        <ele>30.889614</ele>
        <time>2025-05-06T13:17:46.255Z</time>
      </trkpt>
      <trkpt lat="48.940849" lon="2.318181">
        <ele>30.766909</ele>
        <time>2025-05-06T13:17:53.306Z</time>
      </trkpt>
      <trkpt lat="48.940848" lon="2.318349">
        <ele>30.727467</ele>
        <time>2025-05-06T13:17:55.599Z</time>
      </trkpt>
      <trkpt lat="48.940923" lon="2.318542">
        <ele>30.674821</ele>
        <time>2025-05-06T13:17:58.629Z</time>
      </trkpt>
      <trkpt lat="48.941155" lon="2.318769">
        <ele>30.576251</ele>
        <time>2025-05-06T13:18:04.302Z</time>
      </trkpt>
      <trkpt lat="48.941266" lon="2.319025">
        <ele>30.504237</ele>
        <time>2025-05-06T13:18:08.460Z</time>
      </trkpt>
      <trkpt lat="48.941282" lon="2.319411">
        <ele>30.413437</ele>
        <time>2025-05-06T13:18:13.947Z</time>
      </trkpt>
      <trkpt lat="48.941343" lon="2.319749">
        <ele>30.359211</ele>
        <time>2025-05-06T13:18:19.305Z</time>
      </trkpt>
      <trkpt lat="48.941263" lon="2.319739">
        <ele>30.372245</ele>
        <time>2025-05-06T13:18:21.141Z</time>
      </trkpt>
      <trkpt lat="48.941204" lon="2.319773">
        <ele>30.382489</ele>
        <time>2025-05-06T13:18:22.642Z</time>
      </trkpt>
      <trkpt lat="48.941194" lon="2.319955">
        <ele>30.401969</ele>
        <time>2025-05-06T13:18:25.446Z</time>
      </trkpt>
      <trkpt lat="48.941205" lon="2.319990">
        <ele>30.406107</ele>
        <time>2025-05-06T13:18:27.233Z</time>
      </trkpt>
      <trkpt lat="48.941069" lon="2.320102">
        <ele>30.431215</ele>
        <time>2025-05-06T13:18:30.910Z</time>
      </trkpt>
      <trkpt lat="48.940994" lon="2.320281">
        <ele>30.453861</ele>
        <time>2025-05-06T13:18:34.279Z</time>
      </trkpt>
      <trkpt lat="48.940996" lon="2.320486">
        <ele>30.475728</ele>
        <time>2025-05-06T13:18:37.611Z</time>
      </trkpt>
      <trkpt lat="48.940999" lon="2.320500">
        <ele>30.477299</ele>
        <time>2025-05-06T13:18:37.864Z</time>
      </trkpt>
      <trkpt lat="48.941038" lon="2.320629">
        <ele>30.492445</ele>
        <time>2025-05-06T13:18:40.198Z</time>
      </trkpt>
      <trkpt lat="48.941220" lon="2.320887">
        <ele>30.532827</ele>
        <time>2025-05-06T13:18:46.383Z</time>
      </trkpt>
      <trkpt lat="48.941787" lon="2.321627">
        <ele>30.606568</ele>
        <time>2025-05-06T13:19:03.460Z</time>
      </trkpt>
      <trkpt lat="48.941933" lon="2.321718">
        <ele>30.527085</ele>
        <time>2025-05-06T13:19:06.819Z</time>
      </trkpt>
      <trkpt lat="48.942165" lon="2.321612">
        <ele>30.405048</ele>
        <time>2025-05-06T13:19:11.826Z</time>
      </trkpt>
      <trkpt lat="48.942317" lon="2.321584">
        <ele>30.327909</ele>
        <time>2025-05-06T13:19:14.944Z</time>
      </trkpt>
      <trkpt lat="48.942384" lon="2.321630">
        <ele>30.290879</ele>
        <time>2025-05-06T13:19:16.451Z</time>
      </trkpt>
      <trkpt lat="48.942468" lon="2.321801">
        <ele>30.220217</ele>
        <time>2025-05-06T13:19:19.350Z</time>
      </trkpt>
      <trkpt lat="48.942579" lon="2.321891">
        <ele>30.156857</ele>
        <time>2025-05-06T13:19:21.920Z</time>
      </trkpt>
      <trkpt lat="48.942594" lon="2.321934">
        <ele>30.140745</ele>
        <time>2025-05-06T13:19:22.573Z</time>
      </trkpt>
      <trkpt lat="48.942733" lon="2.321853">
        <ele>30.065759</ele>
        <time>2025-05-06T13:19:25.626Z</time>
      </trkpt>
      <trkpt lat="48.942854" lon="2.321648">
        <ele>29.974554</ele>
        <time>2025-05-06T13:19:29.363Z</time>
      </trkpt>
      <trkpt lat="48.942931" lon="2.321441">
        <ele>29.895832</ele>
        <time>2025-05-06T13:19:32.606Z</time>
      </trkpt>
      <trkpt lat="48.942999" lon="2.321016">
        <ele>29.751081</ele>
        <time>2025-05-06T13:19:38.572Z</time>
      </trkpt>
      <trkpt lat="48.943103" lon="2.320892">
        <ele>29.700726</ele>
        <time>2025-05-06T13:19:41.297Z</time>
      </trkpt>
      <trkpt lat="48.943146" lon="2.320966">
        <ele>29.678256</ele>
        <time>2025-05-06T13:19:42.632Z</time>
      </trkpt>
      <trkpt lat="48.943333" lon="2.321147">
        <ele>29.601532</ele>
        <time>2025-05-06T13:19:47.246Z</time>
      </trkpt>
      <trkpt lat="48.943417" lon="2.321164">
        <ele>29.572191</ele>
        <time>2025-05-06T13:19:49.017Z</time>
      </trkpt>
      <trkpt lat="48.943574" lon="2.321174">
        <ele>29.517783</ele>
        <time>2025-05-06T13:19:52.345Z</time>
      </trkpt>
      <trkpt lat="48.943943" lon="2.321077">
        <ele>29.388128</ele>
        <time>2025-05-06T13:20:00.300Z</time>
      </trkpt>
      <trkpt lat="48.944045" lon="2.321084">
        <ele>29.352775</ele>
        <time>2025-05-06T13:20:02.485Z</time>
      </trkpt>
      <trkpt lat="48.944149" lon="2.321162">
        <ele>29.312634</ele>
        <time>2025-05-06T13:20:04.958Z</time>
      </trkpt>
      <trkpt lat="48.944187" lon="2.321190">
        <ele>29.298016</ele>
        <time>2025-05-06T13:20:05.855Z</time>
      </trkpt>
      <trkpt lat="48.944302" lon="2.321334">
        <ele>29.246462</ele>
        <time>2025-05-06T13:20:09.068Z</time>
      </trkpt>
      <trkpt lat="48.944383" lon="2.321515">
        <ele>29.196654</ele>
        <time>2025-05-06T13:20:12.210Z</time>
      </trkpt>
      <trkpt lat="48.944435" lon="2.321728">
        <ele>29.144977</ele>
        <time>2025-05-06T13:20:15.453Z</time>
      </trkpt>
      <trkpt lat="48.944443" lon="2.322054">
        <ele>29.104976</ele>
        <time>2025-05-06T13:20:20.126Z</time>
      </trkpt>
      <trkpt lat="48.944368" lon="2.322442">
        <ele>29.086542</ele>
        <time>2025-05-06T13:20:25.981Z</time>
      </trkpt>
      <trkpt lat="48.944264" lon="2.322599">
        <ele>29.076379</ele>
        <time>2025-05-06T13:20:29.259Z</time>
      </trkpt>
      <trkpt lat="48.944251" lon="2.322874">
        <ele>29.063813</ele>
        <time>2025-05-06T13:20:33.333Z</time>
      </trkpt>
      <trkpt lat="48.944156" lon="2.323114">
        <ele>29.051042</ele>
        <time>2025-05-06T13:20:37.476Z</time>
      </trkpt>
      <trkpt lat="48.944090" lon="2.323374">
        <ele>29.038338</ele>
        <time>2025-05-06T13:20:41.643Z</time>
      </trkpt>
      <trkpt lat="48.944128" lon="2.323598">
        <ele>29.027793</ele>
        <time>2025-05-06T13:20:45.088Z</time>
      </trkpt>
      <trkpt lat="48.944313" lon="2.324001">
        <ele>29.005384</ele>
        <time>2025-05-06T13:20:52.334Z</time>
      </trkpt>
      <trkpt lat="48.944322" lon="2.324133">
        <ele>28.999336</ele>
        <time>2025-05-06T13:20:54.226Z</time>
      </trkpt>
      <trkpt lat="48.944279" lon="2.324348">
        <ele>28.989093</ele>
        <time>2025-05-06T13:20:57.340Z</time>
      </trkpt>
      <trkpt lat="48.945065" lon="2.324360">
        <ele>28.943463</ele>
        <time>2025-05-06T13:21:14.200Z</time>
      </trkpt>
      <trkpt lat="48.945065" lon="2.324360">
        <ele>28.943463</ele>
        <time>2025-05-06T13:21:14.200Z</time>
      </trkpt>
      <trkpt lat="48.945217" lon="2.324398">
        <ele>28.934533</ele>
        <time>2025-05-06T13:21:17.692Z</time>
      </trkpt>
      <trkpt lat="48.945321" lon="2.324371">
        <ele>28.928417</ele>
        <time>2025-05-06T13:21:20.046Z</time>
      </trkpt>
      <trkpt lat="48.945402" lon="2.324192">
        <ele>28.920140</ele>
        <time>2025-05-06T13:21:23.355Z</time>
      </trkpt>
      <trkpt lat="48.945448" lon="2.323982">
        <ele>28.911711</ele>
        <time>2025-05-06T13:21:26.788Z</time>
      </trkpt>
      <trkpt lat="48.945580" lon="2.323035">
        <ele>28.840225</ele>
        <time>2025-05-06T13:21:42.373Z</time>
      </trkpt>
      <trkpt lat="48.945699" lon="2.322195">
        <ele>28.689580</ele>
        <time>2025-05-06T13:21:56.382Z</time>
      </trkpt>
      <trkpt lat="48.945831" lon="2.321940">
        <ele>28.632661</ele>
        <time>2025-05-06T13:22:01.529Z</time>
      </trkpt>
      <trkpt lat="48.945861" lon="2.321849">
        <ele>28.614812</ele>
        <time>2025-05-06T13:22:02.973Z</time>
      </trkpt>
      <trkpt lat="48.946052" lon="2.320585">
        <ele>28.391002</ele>
        <time>2025-05-06T13:22:20.612Z</time>
      </trkpt>
      <trkpt lat="48.946343" lon="2.318669">
        <ele>28.118893</ele>
        <time>2025-05-06T13:22:48.438Z</time>
      </trkpt>
      <trkpt lat="48.946516" lon="2.317550">
        <ele>28.056431</ele>
        <time>2025-05-06T13:23:05.535Z</time>
      </trkpt>
      <trkpt lat="48.946689" lon="2.316361">
        <ele>28.136089</ele>
        <time>2025-05-06T13:23:23.699Z</time>
      </trkpt>
      <trkpt lat="48.946681" lon="2.316231">
        <ele>28.144629</ele>
        <time>2025-05-06T13:23:25.654Z</time>
      </trkpt>
      <trkpt lat="48.946669" lon="2.316099">
        <ele>28.153345</ele>
        <time>2025-05-06T13:23:27.666Z</time>
      </trkpt>
      <trkpt lat="48.946801" lon="2.315181">
        <ele>28.205530</ele>
        <time>2025-05-06T13:23:41.832Z</time>
      </trkpt>
      <trkpt lat="48.946882" lon="2.314610">
        <ele>28.209155</ele>
        <time>2025-05-06T13:23:50.755Z</time>
      </trkpt>
      <trkpt lat="48.946876" lon="2.314370">
        <ele>28.210646</ele>
        <time>2025-05-06T13:23:54.423Z</time>
      </trkpt>
      <trkpt lat="48.946915" lon="2.314211">
        <ele>28.211699</ele>
        <time>2025-05-06T13:23:56.944Z</time>
      </trkpt>
      <trkpt lat="48.947016" lon="2.313982">
        <ele>28.213411</ele>
        <time>2025-05-06T13:24:00.986Z</time>
      </trkpt>
      <trkpt lat="48.947039" lon="2.313719">
        <ele>28.215058</ele>
        <time>2025-05-06T13:24:04.808Z</time>
      </trkpt>
      <trkpt lat="48.947083" lon="2.313264">
        <ele>28.217912</ele>
        <time>2025-05-06T13:24:11.338Z</time>
      </trkpt>
      <trkpt lat="48.947101" lon="2.313063">
        <ele>28.219171</ele>
        <time>2025-05-06T13:24:14.222Z</time>
      </trkpt>
      <trkpt lat="48.947103" lon="2.312752">
        <ele>28.221102</ele>
        <time>2025-05-06T13:24:18.724Z</time>
      </trkpt>
      <trkpt lat="48.947246" lon="2.312314">
        <ele>28.135462</ele>
        <time>2025-05-06T13:24:25.839Z</time>
      </trkpt>
      <trkpt lat="48.947306" lon="2.311990">
        <ele>28.065845</ele>
        <time>2025-05-06T13:24:30.663Z</time>
      </trkpt>
      <trkpt lat="48.947378" lon="2.311595">
        <ele>27.981069</ele>
        <time>2025-05-06T13:24:36.429Z</time>
      </trkpt>
      <trkpt lat="48.947537" lon="2.311058">
        <ele>27.859250</ele>
        <time>2025-05-06T13:24:44.514Z</time>
      </trkpt>
      <trkpt lat="48.947662" lon="2.310295">
        <ele>27.696624</ele>
        <time>2025-05-06T13:24:55.344Z</time>
      </trkpt>
      <trkpt lat="48.947869" lon="2.309569">
        <ele>27.674492</ele>
        <time>2025-05-06T13:25:06.378Z</time>
      </trkpt>
      <trkpt lat="48.947923" lon="2.309133">
        <ele>27.688990</ele>
        <time>2025-05-06T13:25:12.555Z</time>
      </trkpt>
      <trkpt lat="48.948076" lon="2.308742">
        <ele>27.703862</ele>
        <time>2025-05-06T13:25:19.006Z</time>
      </trkpt>
      <trkpt lat="48.948141" lon="2.308487">
        <ele>27.712800</ele>
        <time>2025-05-06T13:25:22.945Z</time>
      </trkpt>
      <trkpt lat="48.948204" lon="2.308025">
        <ele>27.728218</ele>
        <time>2025-05-06T13:25:30.209Z</time>
      </trkpt>
      <trkpt lat="48.948547" lon="2.306738">
        <ele>28.191720</ele>
        <time>2025-05-06T13:25:54.745Z</time>
      </trkpt>
      <trkpt lat="48.948519" lon="2.306612">
        <ele>28.258877</ele>
        <time>2025-05-06T13:25:57.079Z</time>
      </trkpt>
      <trkpt lat="48.948461" lon="2.306575">
        <ele>28.307219</ele>
        <time>2025-05-06T13:25:58.630Z</time>
      </trkpt>
      <trkpt lat="48.948568" lon="2.306138">
        <ele>28.542682</ele>
        <time>2025-05-06T13:26:06.963Z</time>
      </trkpt>
      <trkpt lat="48.948597" lon="2.306032">
        <ele>28.600656</ele>
        <time>2025-05-06T13:26:09.260Z</time>
      </trkpt>
      <trkpt lat="48.948676" lon="2.305742">
        <ele>28.759163</ele>
        <time>2025-05-06T13:26:15.420Z</time>
      </trkpt>
      <trkpt lat="48.948729" lon="2.305575">
        <ele>28.852804</ele>
        <time>2025-05-06T13:26:19.028Z</time>
      </trkpt>
      <trkpt lat="48.948856" lon="2.305291">
        <ele>29.026269</ele>
        <time>2025-05-06T13:26:25.537Z</time>
      </trkpt>
      <trkpt lat="48.948886" lon="2.305179">
        <ele>29.087337</ele>
        <time>2025-05-06T13:26:27.848Z</time>
      </trkpt>
      <trkpt lat="48.948889" lon="2.305041">
        <ele>29.121252</ele>
        <time>2025-05-06T13:26:30.279Z</time>
      </trkpt>
      <trkpt lat="48.948882" lon="2.304991">
        <ele>29.115921</ele>
        <time>2025-05-06T13:26:31.089Z</time>
      </trkpt>
      <trkpt lat="48.948806" lon="2.304886">
        <ele>29.099626</ele>
        <time>2025-05-06T13:26:33.557Z</time>
      </trkpt>
      <trkpt lat="48.948713" lon="2.304848">
        <ele>29.084336</ele>
        <time>2025-05-06T13:26:35.756Z</time>
      </trkpt>
      <trkpt lat="48.948568" lon="2.304905">
        <ele>29.060557</ele>
        <time>2025-05-06T13:26:39.031Z</time>
      </trkpt>
      <trkpt lat="48.948507" lon="2.305152">
        <ele>29.033038</ele>
        <time>2025-05-06T13:26:42.783Z</time>
      </trkpt>
      <trkpt lat="48.948440" lon="2.305272">
        <ele>29.016612</ele>
        <time>2025-05-06T13:26:44.992Z</time>
      </trkpt>
      <trkpt lat="48.948402" lon="2.305297">
        <ele>29.010039</ele>
        <time>2025-05-06T13:26:45.925Z</time>
      </trkpt>
      <trkpt lat="48.948357" lon="2.305307">
        <ele>29.002818</ele>
        <time>2025-05-06T13:26:46.906Z</time>
      </trkpt>
      <trkpt lat="48.947934" lon="2.305136">
        <ele>28.933323</ele>
        <time>2025-05-06T13:26:57.133Z</time>
      </trkpt>
      <trkpt lat="48.947881" lon="2.305143">
        <ele>28.924876</ele>
        <time>2025-05-06T13:26:58.385Z</time>
      </trkpt>
      <trkpt lat="48.947814" lon="2.305220">
        <ele>28.911547</ele>
        <time>2025-05-06T13:27:00.255Z</time>
      </trkpt>
      <trkpt lat="48.947764" lon="2.305359">
        <ele>28.895019</ele>
        <time>2025-05-06T13:27:02.450Z</time>
      </trkpt>
      <trkpt lat="48.948572" lon="2.305842">
        <ele>28.610289</ele>
        <time>2025-05-06T13:27:19.272Z</time>
      </trkpt>
      <trkpt lat="48.949163" lon="2.306224">
        <ele>28.331299</ele>
        <time>2025-05-06T13:27:32.616Z</time>
      </trkpt>
      <trkpt lat="48.949573" lon="2.306472">
        <ele>28.139596</ele>
        <time>2025-05-06T13:27:43.116Z</time>
      </trkpt>
      <trkpt lat="48.949902" lon="2.306628">
        <ele>28.276063</ele>
        <time>2025-05-06T13:27:50.877Z</time>
      </trkpt>
      <trkpt lat="48.950036" lon="2.306721">
        <ele>28.472460</ele>
        <time>2025-05-06T13:27:54.262Z</time>
      </trkpt>
      <trkpt lat="48.950324" lon="2.306803">
        <ele>28.863209</ele>
        <time>2025-05-06T13:28:01.412Z</time>
      </trkpt>
      <trkpt lat="48.950491" lon="2.306849">
        <ele>29.089544</ele>
        <time>2025-05-06T13:28:05.824Z</time>
      </trkpt>
      <trkpt lat="48.950688" lon="2.306894">
        <ele>29.355213</ele>
        <time>2025-05-06T13:28:11.226Z</time>
      </trkpt>
      <trkpt lat="48.950719" lon="2.306902">
        <ele>29.397146</ele>
        <time>2025-05-06T13:28:12.164Z</time>
      </trkpt>
      <trkpt lat="48.950996" lon="2.306975">
        <ele>29.772060</ele>
        <time>2025-05-06T13:28:19.485Z</time>
      </trkpt>
      <trkpt lat="48.951075" lon="2.306944">
        <ele>29.880861</ele>
        <time>2025-05-06T13:28:22.133Z</time>
      </trkpt>
      <trkpt lat="48.951713" lon="2.307124">
        <ele>31.424404</ele>
        <time>2025-05-06T13:28:46.570Z</time>
      </trkpt>
      <trkpt lat="48.951807" lon="2.307203">
        <ele>31.905662</ele>
        <time>2025-05-06T13:28:51.263Z</time>
      </trkpt>
      <trkpt lat="48.952028" lon="2.307268">
        <ele>32.914583</ele>
        <time>2025-05-06T13:29:01.463Z</time>
      </trkpt>
      <trkpt lat="48.952128" lon="2.307294">
        <ele>33.369310</ele>
        <time>2025-05-06T13:29:06.379Z</time>
      </trkpt>
      <trkpt lat="48.952224" lon="2.307325">
        <ele>33.809191</ele>
        <time>2025-05-06T13:29:11.268Z</time>
      </trkpt>
      <trkpt lat="48.952473" lon="2.307383">
        <ele>34.938293</ele>
        <time>2025-05-06T13:29:23.619Z</time>
      </trkpt>
      <trkpt lat="48.952574" lon="2.307414">
        <ele>35.400121</ele>
        <time>2025-05-06T13:29:28.772Z</time>
      </trkpt>
      <trkpt lat="48.953202" lon="2.307607">
        <ele>38.271828</ele>
        <time>2025-05-06T13:30:02.325Z</time>
      </trkpt>
      <trkpt lat="48.953896" lon="2.307822">
        <ele>39.478067</ele>
        <time>2025-05-06T13:30:28.102Z</time>
      </trkpt>
      <trkpt lat="48.954102" lon="2.307881">
        <ele>39.785411</ele>
        <time>2025-05-06T13:30:33.941Z</time>
      </trkpt>
      <trkpt lat="48.954135" lon="2.307891">
        <ele>39.834746</ele>
        <time>2025-05-06T13:30:34.804Z</time>
      </trkpt>
      <trkpt lat="48.954247" lon="2.307923">
        <ele>40.001831</ele>
        <time>2025-05-06T13:30:37.665Z</time>
      </trkpt>
      <trkpt lat="48.954427" lon="2.307971">
        <ele>40.269773</ele>
        <time>2025-05-06T13:30:41.922Z</time>
      </trkpt>
      <trkpt lat="48.954541" lon="2.307996">
        <ele>40.438650</ele>
        <time>2025-05-06T13:30:44.531Z</time>
      </trkpt>
      <trkpt lat="48.954683" lon="2.308000">
        <ele>40.646894</ele>
        <time>2025-05-06T13:30:47.802Z</time>
      </trkpt>
      <trkpt lat="48.954881" lon="2.308033">
        <ele>40.938945</ele>
        <time>2025-05-06T13:30:52.294Z</time>
      </trkpt>
      <trkpt lat="48.954872" lon="2.308126">
        <ele>41.029455</ele>
        <time>2025-05-06T13:30:53.683Z</time>
      </trkpt>
      <trkpt lat="48.954904" lon="2.308149">
        <ele>41.081338</ele>
        <time>2025-05-06T13:30:54.449Z</time>
      </trkpt>
      <trkpt lat="48.955544" lon="2.308343">
        <ele>40.603946</ele>
        <time>2025-05-06T13:31:07.461Z</time>
      </trkpt>
      <trkpt lat="48.955691" lon="2.308409">
        <ele>40.462286</ele>
        <time>2025-05-06T13:31:10.452Z</time>
      </trkpt>
      <trkpt lat="48.956240" lon="2.308728">
        <ele>39.919140</ele>
        <time>2025-05-06T13:31:22.213Z</time>
      </trkpt>
      <trkpt lat="48.956414" lon="2.308868">
        <ele>39.737238</ele>
        <time>2025-05-06T13:31:26.122Z</time>
      </trkpt>
      <trkpt lat="48.956454" lon="2.308935">
        <ele>39.682277</ele>
        <time>2025-05-06T13:31:27.297Z</time>
      </trkpt>
      <trkpt lat="48.956540" lon="2.309021">
        <ele>39.587178</ele>
        <time>2025-05-06T13:31:29.312Z</time>
      </trkpt>
      <trkpt lat="48.956846" lon="2.309308">
        <ele>39.131246</ele>
        <time>2025-05-06T13:31:36.203Z</time>
      </trkpt>
      <trkpt lat="48.957065" lon="2.309600">
        <ele>38.724012</ele>
        <time>2025-05-06T13:31:41.769Z</time>
      </trkpt>
      <trkpt lat="48.957164" lon="2.309809">
        <ele>38.487264</ele>
        <time>2025-05-06T13:31:45.029Z</time>
      </trkpt>
      <trkpt lat="48.957172" lon="2.309874">
        <ele>38.426511</ele>
        <time>2025-05-06T13:31:45.855Z</time>
      </trkpt>
      <trkpt lat="48.957151" lon="2.309896">
        <ele>38.390850</ele>
        <time>2025-05-06T13:31:46.343Z</time>
      </trkpt>
      <trkpt lat="48.957113" lon="2.309936">
        <ele>38.326221</ele>
        <time>2025-05-06T13:31:47.311Z</time>
      </trkpt>
      <trkpt lat="48.957167" lon="2.310054">
        <ele>38.194088</ele>
        <time>2025-05-06T13:31:49.780Z</time>
      </trkpt>
      <trkpt lat="48.957254" lon="2.310257">
        <ele>37.971391</ele>
        <time>2025-05-06T13:31:54.025Z</time>
      </trkpt>
      <trkpt lat="48.957429" lon="2.310075">
        <ele>37.674909</ele>
        <time>2025-05-06T13:31:58.132Z</time>
      </trkpt>
      <trkpt lat="48.957524" lon="2.309977">
        <ele>37.514376</ele>
        <time>2025-05-06T13:32:00.310Z</time>
      </trkpt>
      <trkpt lat="48.957548" lon="2.309952">
        <ele>37.473695</ele>
        <time>2025-05-06T13:32:00.857Z</time>
      </trkpt>
      <trkpt lat="48.958225" lon="2.309229">
        <ele>36.463861</ele>
        <time>2025-05-06T13:32:17.066Z</time>
      </trkpt>
      <trkpt lat="48.958301" lon="2.309676">
        <ele>36.133790</ele>
        <time>2025-05-06T13:32:22.897Z</time>
      </trkpt>
      <trkpt lat="48.958405" lon="2.310847">
        <ele>35.289094</ele>
        <time>2025-05-06T13:32:38.272Z</time>
      </trkpt>
      <trkpt lat="48.958445" lon="2.311290">
        <ele>35.060601</ele>
        <time>2025-05-06T13:32:44.403Z</time>
      </trkpt>
      <trkpt lat="48.958460" lon="2.311452">
        <ele>35.149096</ele>
        <time>2025-05-06T13:32:46.744Z</time>
      </trkpt>
      <trkpt lat="48.958520" lon="2.312049">
        <ele>35.475782</ele>
        <time>2025-05-06T13:32:56.066Z</time>
      </trkpt>
      <trkpt lat="48.958548" lon="2.312170">
        <ele>35.545178</ele>
        <time>2025-05-06T13:32:58.234Z</time>
      </trkpt>
      <trkpt lat="48.958776" lon="2.312670">
        <ele>35.874458</ele>
        <time>2025-05-06T13:33:09.233Z</time>
      </trkpt>
      <trkpt lat="48.958908" lon="2.312962">
        <ele>36.066217</ele>
        <time>2025-05-06T13:33:15.978Z</time>
      </trkpt>
      <trkpt lat="48.959357" lon="2.313949">
        <ele>36.753779</ele>
        <time>2025-05-06T13:33:39.638Z</time>
      </trkpt>
      <trkpt lat="48.959331" lon="2.313995">
        <ele>36.792487</ele>
        <time>2025-05-06T13:33:40.853Z</time>
      </trkpt>
      <trkpt lat="48.959335" lon="2.314083">
        <ele>36.848743</ele>
        <time>2025-05-06T13:33:42.711Z</time>
      </trkpt>
      <trkpt lat="48.959390" lon="2.314132">
        <ele>36.910632</ele>
        <time>2025-05-06T13:33:44.668Z</time>
      </trkpt>
      <trkpt lat="48.959431" lon="2.314112">
        <ele>36.952448</ele>
        <time>2025-05-06T13:33:45.988Z</time>
      </trkpt>
      <trkpt lat="48.959843" lon="2.315015">
        <ele>37.653712</ele>
        <time>2025-05-06T13:34:06.422Z</time>
      </trkpt>
      <trkpt lat="48.960226" lon="2.315829">
        <ele>38.244156</ele>
        <time>2025-05-06T13:34:22.469Z</time>
      </trkpt>
      <trkpt lat="48.960483" lon="2.316301">
        <ele>38.189568</ele>
        <time>2025-05-06T13:34:31.432Z</time>
      </trkpt>
      <trkpt lat="48.960872" lon="2.315622">
        <ele>38.109346</ele>
        <time>2025-05-06T13:34:44.005Z</time>
      </trkpt>
      <trkpt lat="48.962052" lon="2.317139">
        <ele>38.163278</ele>
        <time>2025-05-06T13:35:17.262Z</time>
      </trkpt>
      <trkpt lat="48.962454" lon="2.316468">
        <ele>38.282879</ele>
        <time>2025-05-06T13:35:32.147Z</time>
      </trkpt>
      <trkpt lat="48.962864" lon="2.315791">
        <ele>38.396798</ele>
        <time>2025-05-06T13:35:47.535Z</time>
      </trkpt>
      <trkpt lat="48.962915" lon="2.315822">
        <ele>38.405639</ele>
        <time>2025-05-06T13:35:48.905Z</time>
      </trkpt>
      <trkpt lat="48.962966" lon="2.315790">
        <ele>38.414519</ele>
        <time>2025-05-06T13:35:50.312Z</time>
      </trkpt>
      <trkpt lat="48.963337" lon="2.316334">
        <ele>38.497429</ele>
        <time>2025-05-06T13:36:03.201Z</time>
      </trkpt>
      <trkpt lat="48.964828" lon="2.318509">
        <ele>38.409353</ele>
        <time>2025-05-06T13:36:50.166Z</time>
      </trkpt>
      <trkpt lat="48.964889" lon="2.318596">
        <ele>38.390174</ele>
        <time>2025-05-06T13:36:52.034Z</time>
      </trkpt>
      <trkpt lat="48.964963" lon="2.318700">
        <ele>38.367066</ele>
        <time>2025-05-06T13:36:54.305Z</time>
      </trkpt>
      <trkpt lat="48.965020" lon="2.318797">
        <ele>38.347451</ele>
        <time>2025-05-06T13:36:56.231Z</time>
      </trkpt>
      <trkpt lat="48.965443" lon="2.319602">
        <ele>38.210876</ele>
        <time>2025-05-06T13:37:11.377Z</time>
      </trkpt>
      <trkpt lat="48.965585" lon="2.319418">
        <ele>38.183674</ele>
        <time>2025-05-06T13:37:15.297Z</time>
      </trkpt>
      <trkpt lat="48.965798" lon="2.319716">
        <ele>38.141475</ele>
        <time>2025-05-06T13:37:21.620Z</time>
      </trkpt>
      <trkpt lat="48.966166" lon="2.320394">
        <ele>38.057205</ele>
        <time>2025-05-06T13:37:34.269Z</time>
      </trkpt>
      <trkpt lat="48.966251" lon="2.320476">
        <ele>38.042525</ele>
        <time>2025-05-06T13:37:36.583Z</time>
      </trkpt>
      <trkpt lat="48.966364" lon="2.320653">
        <ele>38.018875</ele>
        <time>2025-05-06T13:37:40.396Z</time>
      </trkpt>
      <trkpt lat="48.966505" lon="2.320953">
        <ele>37.983532</ele>
        <time>2025-05-06T13:37:46.463Z</time>
      </trkpt>
      <trkpt lat="48.966687" lon="2.321231">
        <ele>38.301398</ele>
        <time>2025-05-06T13:37:53.149Z</time>
      </trkpt>
      <trkpt lat="48.966857" lon="2.321005">
        <ele>38.600044</ele>
        <time>2025-05-06T13:37:59.395Z</time>
      </trkpt>
      <trkpt lat="48.967013" lon="2.320798">
        <ele>38.873874</ele>
        <time>2025-05-06T13:38:05.347Z</time>
      </trkpt>
      <trkpt lat="48.967151" lon="2.320696">
        <ele>39.076892</ele>
        <time>2025-05-06T13:38:09.958Z</time>
      </trkpt>
      <trkpt lat="48.967212" lon="2.320634">
        <ele>39.173952</ele>
        <time>2025-05-06T13:38:12.253Z</time>
      </trkpt>
      <trkpt lat="48.967323" lon="2.320521">
        <ele>39.350656</ele>
        <time>2025-05-06T13:38:16.409Z</time>
      </trkpt>
      <trkpt lat="48.967721" lon="2.319987">
        <ele>40.052638</ele>
        <time>2025-05-06T13:38:33.914Z</time>
      </trkpt>
      <trkpt lat="48.968002" lon="2.319582">
        <ele>40.449519</ele>
        <time>2025-05-06T13:38:47.071Z</time>
      </trkpt>
      <trkpt lat="48.968225" lon="2.319274">
        <ele>40.621777</ele>
        <time>2025-05-06T13:38:56.432Z</time>
      </trkpt>
      <trkpt lat="48.968410" lon="2.319494">
        <ele>40.756084</ele>
        <time>2025-05-06T13:39:02.619Z</time>
      </trkpt>
      <trkpt lat="48.968432" lon="2.319524">
        <ele>40.772981</ele>
        <time>2025-05-06T13:39:03.416Z</time>
      </trkpt>
      <trkpt lat="48.968815" lon="2.319974">
        <ele>41.049774</ele>
        <time>2025-05-06T13:39:15.162Z</time>
      </trkpt>
      <trkpt lat="48.968849" lon="2.319997">
        <ele>41.071063</ele>
        <time>2025-05-06T13:39:16.024Z</time>
      </trkpt>
      <trkpt lat="48.969132" lon="2.320100">
        <ele>41.237568</ele>
        <time>2025-05-06T13:39:22.680Z</time>
      </trkpt>
      <trkpt lat="48.969319" lon="2.320228">
        <ele>41.354886</ele>
        <time>2025-05-06T13:39:27.238Z</time>
      </trkpt>
      <trkpt lat="48.969775" lon="2.320720">
        <ele>41.473248</ele>
        <time>2025-05-06T13:39:39.536Z</time>
      </trkpt>
      <trkpt lat="48.969755" lon="2.320803">
        <ele>41.482870</ele>
        <time>2025-05-06T13:39:40.769Z</time>
      </trkpt>
      <trkpt lat="48.969765" lon="2.320891">
        <ele>41.492590</ele>
        <time>2025-05-06T13:39:42.040Z</time>
      </trkpt>
      <trkpt lat="48.969811" lon="2.320966">
        <ele>41.503760</ele>
        <time>2025-05-06T13:39:43.490Z</time>
      </trkpt>
      <trkpt lat="48.969909" lon="2.320977">
        <ele>41.520051</ele>
        <time>2025-05-06T13:39:45.674Z</time>
      </trkpt>
      <trkpt lat="48.969965" lon="2.321204">
        <ele>41.546442</ele>
        <time>2025-05-06T13:39:49.243Z</time>
      </trkpt>
      <trkpt lat="48.970121" lon="2.321496">
        <ele>41.587414</ele>
        <time>2025-05-06T13:39:55.429Z</time>
      </trkpt>
      <trkpt lat="48.970277" lon="2.321669">
        <ele>41.619403</ele>
        <time>2025-05-06T13:40:00.531Z</time>
      </trkpt>
      <trkpt lat="48.970381" lon="2.321740">
        <ele>41.638297</ele>
        <time>2025-05-06T13:40:03.606Z</time>
      </trkpt>
      <trkpt lat="48.970894" lon="2.322097">
        <ele>42.031619</ele>
        <time>2025-05-06T13:40:19.471Z</time>
      </trkpt>
      <trkpt lat="48.971299" lon="2.322382">
        <ele>42.627188</ele>
        <time>2025-05-06T13:40:32.471Z</time>
      </trkpt>
      <trkpt lat="48.971621" lon="2.322609">
        <ele>43.100852</ele>
        <time>2025-05-06T13:40:42.845Z</time>
      </trkpt>
      <trkpt lat="48.972017" lon="2.322880">
        <ele>43.680399</ele>
        <time>2025-05-06T13:40:55.918Z</time>
      </trkpt>
      <trkpt lat="48.972064" lon="2.322880">
        <ele>43.743144</ele>
        <time>2025-05-06T13:40:57.372Z</time>
      </trkpt>
      <trkpt lat="48.972065" lon="2.322949">
        <ele>43.803625</ele>
        <time>2025-05-06T13:40:58.790Z</time>
      </trkpt>
      <trkpt lat="48.972099" lon="2.323025">
        <ele>43.884222</ele>
        <time>2025-05-06T13:41:00.710Z</time>
      </trkpt>
      <trkpt lat="48.972186" lon="2.323078">
        <ele>44.009308</ele>
        <time>2025-05-06T13:41:03.692Z</time>
      </trkpt>
      <trkpt lat="48.972295" lon="2.323082">
        <ele>44.188025</ele>
        <time>2025-05-06T13:41:07.270Z</time>
      </trkpt>
      <trkpt lat="48.972362" lon="2.323130">
        <ele>44.337754</ele>
        <time>2025-05-06T13:41:09.728Z</time>
      </trkpt>
      <trkpt lat="48.972901" lon="2.323489">
        <ele>45.527397</ele>
        <time>2025-05-06T13:41:29.277Z</time>
      </trkpt>
      <trkpt lat="48.973434" lon="2.323666">
        <ele>46.630593</ele>
        <time>2025-05-06T13:41:47.550Z</time>
      </trkpt>
      <trkpt lat="48.973504" lon="2.323684">
        <ele>46.774156</ele>
        <time>2025-05-06T13:41:49.924Z</time>
      </trkpt>
      <trkpt lat="48.973559" lon="2.323698">
        <ele>46.886924</ele>
        <time>2025-05-06T13:41:51.834Z</time>
      </trkpt>
      <trkpt lat="48.974729" lon="2.323996">
        <ele>49.287881</ele>
        <time>2025-05-06T13:42:32.303Z</time>
      </trkpt>
      <trkpt lat="48.975231" lon="2.324115">
        <ele>50.316629</ele>
        <time>2025-05-06T13:42:49.176Z</time>
      </trkpt>
      <trkpt lat="48.975365" lon="2.324114">
        <ele>50.587973</ele>
        <time>2025-05-06T13:42:53.318Z</time>
      </trkpt>
      <trkpt lat="48.975658" lon="2.324244">
        <ele>51.205927</ele>
        <time>2025-05-06T13:43:02.892Z</time>
      </trkpt>
      <trkpt lat="48.975698" lon="2.324332">
        <ele>51.348197</ele>
        <time>2025-05-06T13:43:05.159Z</time>
      </trkpt>
      <trkpt lat="48.975706" lon="2.324845">
        <ele>52.072101</ele>
        <time>2025-05-06T13:43:16.067Z</time>
      </trkpt>
      <trkpt lat="48.975751" lon="2.325087">
        <ele>52.427608</ele>
        <time>2025-05-06T13:43:21.511Z</time>
      </trkpt>
      <trkpt lat="48.975806" lon="2.325283">
        <ele>52.728890</ele>
        <time>2025-05-06T13:43:26.151Z</time>
      </trkpt>
      <trkpt lat="48.975949" lon="2.325474">
        <ele>53.138401</ele>
        <time>2025-05-06T13:43:32.459Z</time>
      </trkpt>
      <trkpt lat="48.976267" lon="2.325553">
        <ele>53.832209</ele>
        <time>2025-05-06T13:43:43.109Z</time>
      </trkpt>
      <trkpt lat="48.976590" lon="2.325542">
        <ele>54.527914</ele>
        <time>2025-05-06T13:43:53.484Z</time>
      </trkpt>
      <trkpt lat="48.977292" lon="2.325315">
        <ele>56.485968</ele>
        <time>2025-05-06T13:44:18.045Z</time>
      </trkpt>
      <trkpt lat="48.977285" lon="2.324235">
        <ele>58.771417</ele>
        <time>2025-05-06T13:44:44.612Z</time>
      </trkpt>
      <trkpt lat="48.977300" lon="2.324097">
        <ele>59.067409</ele>
        <time>2025-05-06T13:44:47.965Z</time>
      </trkpt>
      <trkpt lat="48.977367" lon="2.323913">
        <ele>59.512666</ele>
        <time>2025-05-06T13:44:53.270Z</time>
      </trkpt>
      <trkpt lat="48.977482" lon="2.323564">
        <ele>60.339008</ele>
        <time>2025-05-06T13:45:03.953Z</time>
      </trkpt>
      <trkpt lat="48.977604" lon="2.323052">
        <ele>61.894216</ele>
        <time>2025-05-06T13:45:20.595Z</time>
      </trkpt>
      <trkpt lat="48.977817" lon="2.322798">
        <ele>63.546734</ele>
        <time>2025-05-06T13:45:34.157Z</time>
      </trkpt>
      <trkpt lat="48.977883" lon="2.322839">
        <ele>63.982187</ele>
        <time>2025-05-06T13:45:38.773Z</time>
      </trkpt>
      <trkpt lat="48.978277" lon="2.322833">
        <ele>66.389430</ele>
        <time>2025-05-06T13:46:03.981Z</time>
      </trkpt>
      <trkpt lat="48.978591" lon="2.322885">
        <ele>68.319096</ele>
        <time>2025-05-06T13:46:24.930Z</time>
      </trkpt>
      <trkpt lat="48.978808" lon="2.322962">
        <ele>69.680327</ele>
        <time>2025-05-06T13:46:40.704Z</time>
      </trkpt>
      <trkpt lat="48.978939" lon="2.323116">
        <ele>70.691202</ele>
        <time>2025-05-06T13:46:53.149Z</time>
      </trkpt>
      <trkpt lat="48.978887" lon="2.323457">
        <ele>72.130397</ele>
        <time>2025-05-06T13:47:10.894Z</time>
      </trkpt>
      <trkpt lat="48.979076" lon="2.323482">
        <ele>73.925935</ele>
        <time>2025-05-06T13:47:23.091Z</time>
      </trkpt>
      <trkpt lat="48.979308" lon="2.323513">
        <ele>76.130150</ele>
        <time>2025-05-06T13:47:38.626Z</time>
      </trkpt>
      <trkpt lat="48.979892" lon="2.323778">
        <ele>81.897398</ele>
        <time>2025-05-06T13:48:21.782Z</time>
      </trkpt>
      <trkpt lat="48.980318" lon="2.323918">
        <ele>86.022041</ele>
        <time>2025-05-06T13:48:55.900Z</time>
      </trkpt>
      <trkpt lat="48.980510" lon="2.323611">
        <ele>88.656227</ele>
        <time>2025-05-06T13:49:17.063Z</time>
      </trkpt>
      <trkpt lat="48.981214" lon="2.323567">
        <ele>93.333097</ele>
        <time>2025-05-06T13:50:07.214Z</time>
      </trkpt>
      <trkpt lat="48.981259" lon="2.323564">
        <ele>93.624003</ele>
        <time>2025-05-06T13:50:10.154Z</time>
      </trkpt>
      <trkpt lat="48.982150" lon="2.323839">
        <ele>99.495318</ele>
        <time>2025-05-06T13:50:55.912Z</time>
      </trkpt>
      <trkpt lat="48.982247" lon="2.323835">
        <ele>100.122014</ele>
        <time>2025-05-06T13:50:59.553Z</time>
      </trkpt>
      <trkpt lat="48.982266" lon="2.323897">
        <ele>100.412045</ele>
        <time>2025-05-06T13:51:01.213Z</time>
      </trkpt>
      <trkpt lat="48.981954" lon="2.324416">
        <ele>100.105853</ele>
        <time>2025-05-06T13:51:15.218Z</time>
      </trkpt>
      <trkpt lat="48.981905" lon="2.324618">
        <ele>99.916766</ele>
        <time>2025-05-06T13:51:18.479Z</time>
      </trkpt>
      <trkpt lat="48.981830" lon="2.325488">
        <ele>99.146322</ele>
        <time>2025-05-06T13:51:29.627Z</time>
      </trkpt>
      <trkpt lat="48.981623" lon="2.325439">
        <ele>98.866066</ele>
        <time>2025-05-06T13:51:33.338Z</time>
      </trkpt>
      <trkpt lat="48.981505" lon="2.325446">
        <ele>98.708081</ele>
        <time>2025-05-06T13:51:35.410Z</time>
      </trkpt>
      <trkpt lat="48.981479" lon="2.325508">
        <ele>98.643479</ele>
        <time>2025-05-06T13:51:36.240Z</time>
      </trkpt>
      <trkpt lat="48.981467" lon="2.325837">
        <ele>98.354161</ele>
        <time>2025-05-06T13:51:39.965Z</time>
      </trkpt>
      <trkpt lat="48.981498" lon="2.326488">
        <ele>98.002872</ele>
        <time>2025-05-06T13:51:47.124Z</time>
      </trkpt>
      <trkpt lat="48.981527" lon="2.327093">
        <ele>97.714873</ele>
        <time>2025-05-06T13:51:53.902Z</time>
      </trkpt>
      <trkpt lat="48.981548" lon="2.327380">
        <ele>97.577771</ele>
        <time>2025-05-06T13:51:57.474Z</time>
      </trkpt>
      <trkpt lat="48.981612" lon="2.328253">
        <ele>97.160722</ele>
        <time>2025-05-06T13:52:11.516Z</time>
      </trkpt>
      <trkpt lat="48.981880" lon="2.328235">
        <ele>96.966663</ele>
        <time>2025-05-06T13:52:22.176Z</time>
      </trkpt>
      <trkpt lat="48.982942" lon="2.328324">
        <ele>104.592427</ele>
        <time>2025-05-06T13:53:30.189Z</time>
      </trkpt>
      <trkpt lat="48.983772" lon="2.328440">
        <ele>109.993046</ele>
        <time>2025-05-06T13:54:27.165Z</time>
      </trkpt>
      <trkpt lat="48.984038" lon="2.328405">
        <ele>110.177092</ele>
        <time>2025-05-06T13:54:40.054Z</time>
      </trkpt>
      <trkpt lat="48.984181" lon="2.328329">
        <ele>110.281491</ele>
        <time>2025-05-06T13:54:46.018Z</time>
      </trkpt>
      <trkpt lat="48.984284" lon="2.328422">
        <ele>110.364022</ele>
        <time>2025-05-06T13:54:49.928Z</time>
      </trkpt>
      <trkpt lat="48.984448" lon="2.328484">
        <ele>110.480501</ele>
        <time>2025-05-06T13:54:54.556Z</time>
      </trkpt>
      <trkpt lat="48.984372" lon="2.329077">
        <ele>110.753834</ele>
        <time>2025-05-06T13:55:05.289Z</time>
      </trkpt>
      <trkpt lat="48.984351" lon="2.329842">
        <ele>111.100214</ele>
        <time>2025-05-06T13:55:17.111Z</time>
      </trkpt>
      <trkpt lat="48.984401" lon="2.330093">
        <ele>110.878417</ele>
        <time>2025-05-06T13:55:22.077Z</time>
      </trkpt>
      <trkpt lat="48.984459" lon="2.330581">
        <ele>109.581770</ele>
        <time>2025-05-06T13:55:31.353Z</time>
      </trkpt>
      <trkpt lat="48.984496" lon="2.331898">
        <ele>106.135280</ele>
        <time>2025-05-06T13:55:57.158Z</time>
      </trkpt>
      <trkpt lat="48.984604" lon="2.332842">
        <ele>103.650036</ele>
        <time>2025-05-06T13:56:16.218Z</time>
      </trkpt>
      <trkpt lat="48.984654" lon="2.333769">
        <ele>101.349205</ele>
        <time>2025-05-06T13:56:34.406Z</time>
      </trkpt>
      <trkpt lat="48.984641" lon="2.334117">
        <ele>100.486972</ele>
        <time>2025-05-06T13:56:41.180Z</time>
      </trkpt>
      <trkpt lat="48.984611" lon="2.334925">
        <ele>98.485044</ele>
        <time>2025-05-06T13:56:57.176Z</time>
      </trkpt>
      <trkpt lat="48.984575" lon="2.335249">
        <ele>97.672166</ele>
        <time>2025-05-06T13:57:03.676Z</time>
      </trkpt>
      <trkpt lat="48.984223" lon="2.335272">
        <ele>96.733182</ele>
        <time>2025-05-06T13:57:14.365Z</time>
      </trkpt>
      <trkpt lat="48.984031" lon="2.335221">
        <ele>96.323670</ele>
        <time>2025-05-06T13:57:20.243Z</time>
      </trkpt>
      <trkpt lat="48.983955" lon="2.335045">
        <ele>96.033150</ele>
        <time>2025-05-06T13:57:24.391Z</time>
      </trkpt>
      <trkpt lat="48.983184" lon="2.334947">
        <ele>94.407508</ele>
        <time>2025-05-06T13:57:49.373Z</time>
      </trkpt>
      <trkpt lat="48.982810" lon="2.334978">
        <ele>93.620502</ele>
        <time>2025-05-06T13:58:02.366Z</time>
      </trkpt>
      <trkpt lat="48.982779" lon="2.334933">
        <ele>93.530538</ele>
        <time>2025-05-06T13:58:03.955Z</time>
      </trkpt>
      <trkpt lat="48.982717" lon="2.334696">
        <ele>93.551204</ele>
        <time>2025-05-06T13:58:10.032Z</time>
      </trkpt>
      <trkpt lat="48.982666" lon="2.334370">
        <ele>93.738129</ele>
        <time>2025-05-06T13:58:18.398Z</time>
      </trkpt>
      <trkpt lat="48.982680" lon="2.333926">
        <ele>93.986061</ele>
        <time>2025-05-06T13:58:30.770Z</time>
      </trkpt>
      <trkpt lat="48.982615" lon="2.332885">
        <ele>94.569315</ele>
        <time>2025-05-06T13:59:05.773Z</time>
      </trkpt>
      <trkpt lat="48.982688" lon="2.332379">
        <ele>94.858281</ele>
        <time>2025-05-06T13:59:21.576Z</time>
      </trkpt>
      <trkpt lat="48.982745" lon="2.331380">
        <ele>92.018517</ele>
        <time>2025-05-06T13:59:43.294Z</time>
      </trkpt>
      <trkpt lat="48.982524" lon="2.331326">
        <ele>90.755865</ele>
        <time>2025-05-06T13:59:48.250Z</time>
      </trkpt>
      <trkpt lat="48.982482" lon="2.331394">
        <ele>90.410149</ele>
        <time>2025-05-06T13:59:49.264Z</time>
      </trkpt>
      <trkpt lat="48.981742" lon="2.331468">
        <ele>86.226617</ele>
        <time>2025-05-06T14:00:08.798Z</time>
      </trkpt>
      <trkpt lat="48.981324" lon="2.331546">
        <ele>83.672954</ele>
        <time>2025-05-06T14:00:19.684Z</time>
      </trkpt>
      <trkpt lat="48.981209" lon="2.331546">
        <ele>82.905771</ele>
        <time>2025-05-06T14:00:22.751Z</time>
      </trkpt>
      <trkpt lat="48.981155" lon="2.331523">
        <ele>82.531718</ele>
        <time>2025-05-06T14:00:24.266Z</time>
      </trkpt>
      <trkpt lat="48.981112" lon="2.331505">
        <ele>82.234229</ele>
        <time>2025-05-06T14:00:25.454Z</time>
      </trkpt>
      <trkpt lat="48.980939" lon="2.331460">
        <ele>81.063421</ele>
        <time>2025-05-06T14:00:30.225Z</time>
      </trkpt>
      <trkpt lat="48.980951" lon="2.331265">
        <ele>80.205897</ele>
        <time>2025-05-06T14:00:33.751Z</time>
      </trkpt>
      <trkpt lat="48.980980" lon="2.330958">
        <ele>78.847893</ele>
        <time>2025-05-06T14:00:39.383Z</time>
      </trkpt>
      <trkpt lat="48.980967" lon="2.330866">
        <ele>78.435855</ele>
        <time>2025-05-06T14:00:41.116Z</time>
      </trkpt>
      <trkpt lat="48.981020" lon="2.330478">
        <ele>76.700652</ele>
        <time>2025-05-06T14:00:48.363Z</time>
      </trkpt>
      <trkpt lat="48.981107" lon="2.330402">
        <ele>76.031638</ele>
        <time>2025-05-06T14:00:51.129Z</time>
      </trkpt>
      <trkpt lat="48.981142" lon="2.330332">
        <ele>75.646346</ele>
        <time>2025-05-06T14:00:52.763Z</time>
      </trkpt>
      <trkpt lat="48.981137" lon="2.330159">
        <ele>74.888161</ele>
        <time>2025-05-06T14:00:55.964Z</time>
      </trkpt>
      <trkpt lat="48.981104" lon="2.330096">
        <ele>74.535244</ele>
        <time>2025-05-06T14:00:57.502Z</time>
      </trkpt>
      <trkpt lat="48.980988" lon="2.329994">
        <ele>73.641770</ele>
        <time>2025-05-06T14:01:01.370Z</time>
      </trkpt>
      <trkpt lat="48.980769" lon="2.329906">
        <ele>72.382683</ele>
        <time>2025-05-06T14:01:07.992Z</time>
      </trkpt>
      <trkpt lat="48.980747" lon="2.329931">
        <ele>72.265843</ele>
        <time>2025-05-06T14:01:08.791Z</time>
      </trkpt>
      <trkpt lat="48.980709" lon="2.330106">
        <ele>71.750810</ele>
        <time>2025-05-06T14:01:12.307Z</time>
      </trkpt>
      <trkpt lat="48.980652" lon="2.330108">
        <ele>71.508082</ele>
        <time>2025-05-06T14:01:13.948Z</time>
      </trkpt>
      <trkpt lat="48.980550" lon="2.329971">
        <ele>70.929209</ele>
        <time>2025-05-06T14:01:17.840Z</time>
      </trkpt>
      <trkpt lat="48.980507" lon="2.329822">
        <ele>70.474417</ele>
        <time>2025-05-06T14:01:20.867Z</time>
      </trkpt>
      <trkpt lat="48.980414" lon="2.329812">
        <ele>70.077507</ele>
        <time>2025-05-06T14:01:23.491Z</time>
      </trkpt>
      <trkpt lat="48.980363" lon="2.329807">
        <ele>69.859938</ele>
        <time>2025-05-06T14:01:24.894Z</time>
      </trkpt>
      <trkpt lat="48.980250" lon="2.329824">
        <ele>69.376529</ele>
        <time>2025-05-06T14:01:28.059Z</time>
      </trkpt>
      <trkpt lat="48.980117" lon="2.329732">
        <ele>68.754693</ele>
        <time>2025-05-06T14:01:32.155Z</time>
      </trkpt>
      <trkpt lat="48.979997" lon="2.329710">
        <ele>68.240137</ele>
        <time>2025-05-06T14:01:35.663Z</time>
      </trkpt>
      <trkpt lat="48.979817" lon="2.329570">
        <ele>67.379761</ele>
        <time>2025-05-06T14:01:41.646Z</time>
      </trkpt>
      <trkpt lat="48.979708" lon="2.329539">
        <ele>66.907705</ele>
        <time>2025-05-06T14:01:45.029Z</time>
      </trkpt>
      <trkpt lat="48.979541" lon="2.329490">
        <ele>66.183680</ele>
        <time>2025-05-06T14:01:50.402Z</time>
      </trkpt>
      <trkpt lat="48.979569" lon="2.327617">
        <ele>62.755236</ele>
        <time>2025-05-06T14:02:31.418Z</time>
      </trkpt>
      <trkpt lat="48.978365" lon="2.327629">
        <ele>60.098148</ele>
        <time>2025-05-06T14:02:52.932Z</time>
      </trkpt>
      <trkpt lat="48.978407" lon="2.327753">
        <ele>59.938591</ele>
        <time>2025-05-06T14:02:54.537Z</time>
      </trkpt>
      <trkpt lat="48.978408" lon="2.327773">
        <ele>59.915655</ele>
        <time>2025-05-06T14:02:54.767Z</time>
      </trkpt>
      <trkpt lat="48.978411" lon="2.327911">
        <ele>59.757770</ele>
        <time>2025-05-06T14:02:56.382Z</time>
      </trkpt>
      <trkpt lat="48.978380" lon="2.328556">
        <ele>59.018258</ele>
        <time>2025-05-06T14:03:04.315Z</time>
      </trkpt>
      <trkpt lat="48.978316" lon="2.329147">
        <ele>58.333331</ele>
        <time>2025-05-06T14:03:12.488Z</time>
      </trkpt>
      <trkpt lat="48.978283" lon="2.329237">
        <ele>58.215448</ele>
        <time>2025-05-06T14:03:14.012Z</time>
      </trkpt>
      <trkpt lat="48.978296" lon="2.329304">
        <ele>58.135558</ele>
        <time>2025-05-06T14:03:15.095Z</time>
      </trkpt>
      <trkpt lat="48.978362" lon="2.329353">
        <ele>58.007649</ele>
        <time>2025-05-06T14:03:16.856Z</time>
      </trkpt>
      <trkpt lat="48.978407" lon="2.329323">
        <ele>57.922074</ele>
        <time>2025-05-06T14:03:18.074Z</time>
      </trkpt>
      <trkpt lat="48.978554" lon="2.330186">
        <ele>58.217060</ele>
        <time>2025-05-06T14:03:33.141Z</time>
      </trkpt>
      <trkpt lat="48.978740" lon="2.330675">
        <ele>58.698502</ele>
        <time>2025-05-06T14:03:43.267Z</time>
      </trkpt>
      <trkpt lat="48.978820" lon="2.330994">
        <ele>58.989398</ele>
        <time>2025-05-06T14:03:49.819Z</time>
      </trkpt>
      <trkpt lat="48.978849" lon="2.331152">
        <ele>59.129151</ele>
        <time>2025-05-06T14:03:53.232Z</time>
      </trkpt>
      <trkpt lat="48.978970" lon="2.331765">
        <ele>59.674427</ele>
        <time>2025-05-06T14:04:07.616Z</time>
      </trkpt>
      <trkpt lat="48.979086" lon="2.332355">
        <ele>60.566768</ele>
        <time>2025-05-06T14:04:21.605Z</time>
      </trkpt>
      <trkpt lat="48.979707" lon="2.332362">
        <ele>62.792024</ele>
        <time>2025-05-06T14:04:51.763Z</time>
      </trkpt>
      <trkpt lat="48.979832" lon="2.332377">
        <ele>63.241316</ele>
        <time>2025-05-06T14:04:58.395Z</time>
      </trkpt>
      <trkpt lat="48.979873" lon="2.333512">
        <ele>65.914615</ele>
        <time>2025-05-06T14:05:44.036Z</time>
      </trkpt>
      <trkpt lat="48.979979" lon="2.333504">
        <ele>66.294905</ele>
        <time>2025-05-06T14:05:50.778Z</time>
      </trkpt>
      <trkpt lat="48.980320" lon="2.333649">
        <ele>67.518251</ele>
        <time>2025-05-06T14:06:12.145Z</time>
      </trkpt>
      <trkpt lat="48.980435" lon="2.333633">
        <ele>67.915449</ele>
        <time>2025-05-06T14:06:18.967Z</time>
      </trkpt>
      <trkpt lat="48.980564" lon="2.333578">
        <ele>68.376200</ele>
        <time>2025-05-06T14:06:26.821Z</time>
      </trkpt>
      <trkpt lat="48.980869" lon="2.333632">
        <ele>69.432334</ele>
        <time>2025-05-06T14:06:44.588Z</time>
      </trkpt>
      <trkpt lat="48.980874" lon="2.334176">
        <ele>70.660502</ele>
        <time>2025-05-06T14:07:05.107Z</time>
      </trkpt>
      <trkpt lat="48.980844" lon="2.334178">
        <ele>70.763789</ele>
        <time>2025-05-06T14:07:06.276Z</time>
      </trkpt>
      <trkpt lat="48.980865" lon="2.334564">
        <ele>71.638150</ele>
        <time>2025-05-06T14:07:19.527Z</time>
      </trkpt>
      <trkpt lat="48.980967" lon="2.335027">
        <ele>72.627653</ele>
        <time>2025-05-06T14:07:34.183Z</time>
      </trkpt>
      <trkpt lat="48.981040" lon="2.335625">
        <ele>72.694936</ele>
        <time>2025-05-06T14:07:49.164Z</time>
      </trkpt>
      <trkpt lat="48.981054" lon="2.335736">
        <ele>72.707439</ele>
        <time>2025-05-06T14:07:51.917Z</time>
      </trkpt>
      <trkpt lat="48.981161" lon="2.336200">
        <ele>72.761841</ele>
        <time>2025-05-06T14:08:04.068Z</time>
      </trkpt>
      <trkpt lat="48.981225" lon="2.336380">
        <ele>72.784486</ele>
        <time>2025-05-06T14:08:10.015Z</time>
      </trkpt>
      <trkpt lat="48.981252" lon="2.336985">
        <ele>72.851563</ele>
        <time>2025-05-06T14:08:25.575Z</time>
      </trkpt>
      <trkpt lat="48.981407" lon="2.337588">
        <ele>72.923198</ele>
        <time>2025-05-06T14:08:39.830Z</time>
      </trkpt>
      <trkpt lat="48.981672" lon="2.337528">
        <ele>73.072717</ele>
        <time>2025-05-06T14:08:48.485Z</time>
      </trkpt>
      <trkpt lat="48.981811" lon="2.338894">
        <ele>73.593546</ele>
        <time>2025-05-06T14:09:21.467Z</time>
      </trkpt>
      <trkpt lat="48.981815" lon="2.338930">
        <ele>73.607303</ele>
        <time>2025-05-06T14:09:22.374Z</time>
      </trkpt>
      <trkpt lat="48.982336" lon="2.338934">
        <ele>73.906410</ele>
        <time>2025-05-06T14:09:44.899Z</time>
      </trkpt>
      <trkpt lat="48.982402" lon="2.338991">
        <ele>73.949964</ele>
        <time>2025-05-06T14:09:48.789Z</time>
      </trkpt>
      <trkpt lat="48.982487" lon="2.339013">
        <ele>74.259050</ele>
        <time>2025-05-06T14:09:53.632Z</time>
      </trkpt>
      <trkpt lat="48.982758" lon="2.338910">
        <ele>75.413069</ele>
        <time>2025-05-06T14:10:10.585Z</time>
      </trkpt>
      <trkpt lat="48.983026" lon="2.338912">
        <ele>76.520398</ele>
        <time>2025-05-06T14:10:28.862Z</time>
      </trkpt>
      <trkpt lat="48.983044" lon="2.338328">
        <ele>78.105724</ele>
        <time>2025-05-06T14:10:54.447Z</time>
      </trkpt>
      <trkpt lat="48.983629" lon="2.338365">
        <ele>80.524894</ele>
        <time>2025-05-06T14:11:29.840Z</time>
      </trkpt>
      <trkpt lat="48.983901" lon="2.338464">
        <ele>81.300052</ele>
        <time>2025-05-06T14:11:44.778Z</time>
      </trkpt>
      <trkpt lat="48.984387" lon="2.338532">
        <ele>80.682985</ele>
        <time>2025-05-06T14:12:05.127Z</time>
      </trkpt>
      <trkpt lat="48.984546" lon="2.338605">
        <ele>80.473024</ele>
        <time>2025-05-06T14:12:10.955Z</time>
      </trkpt>
      <trkpt lat="48.984721" lon="2.338836">
        <ele>80.180284</ele>
        <time>2025-05-06T14:12:18.591Z</time>
      </trkpt>
      <trkpt lat="48.984539" lon="2.339206">
        <ele>79.796608</ele>
        <time>2025-05-06T14:12:28.151Z</time>
      </trkpt>
      <trkpt lat="48.984303" lon="2.339688">
        <ele>79.297618</ele>
        <time>2025-05-06T14:12:40.125Z</time>
      </trkpt>
      <trkpt lat="48.984122" lon="2.340137">
        <ele>78.181561</ele>
        <time>2025-05-06T14:12:50.250Z</time>
      </trkpt>
      <trkpt lat="48.983437" lon="2.341042">
        <ele>73.979365</ele>
        <time>2025-05-06T14:13:16.356Z</time>
      </trkpt>
      <trkpt lat="48.982885" lon="2.341701">
        <ele>70.737987</ele>
        <time>2025-05-06T14:13:36.799Z</time>
      </trkpt>
      <trkpt lat="48.982707" lon="2.341369">
        <ele>69.669409</ele>
        <time>2025-05-06T14:13:41.543Z</time>
      </trkpt>
      <trkpt lat="48.982407" lon="2.341760">
        <ele>68.170043</ele>
        <time>2025-05-06T14:13:48.288Z</time>
      </trkpt>
      <trkpt lat="48.982287" lon="2.341800">
        <ele>67.703503</ele>
        <time>2025-05-06T14:13:50.402Z</time>
      </trkpt>
      <trkpt lat="48.982204" lon="2.341812">
        <ele>67.386852</ele>
        <time>2025-05-06T14:13:51.862Z</time>
      </trkpt>
      <trkpt lat="48.982049" lon="2.341769">
        <ele>66.788481</ele>
        <time>2025-05-06T14:13:54.628Z</time>
      </trkpt>
      <trkpt lat="48.981669" lon="2.341599">
        <ele>65.284313</ele>
        <time>2025-05-06T14:14:01.593Z</time>
      </trkpt>
      <trkpt lat="48.981398" lon="2.341446">
        <ele>64.186667</ele>
        <time>2025-05-06T14:14:06.712Z</time>
      </trkpt>
      <trkpt lat="48.981180" lon="2.341301">
        <ele>63.499761</ele>
        <time>2025-05-06T14:14:11.054Z</time>
      </trkpt>
      <trkpt lat="48.980486" lon="2.341026">
        <ele>61.664556</ele>
        <time>2025-05-06T14:14:24.714Z</time>
      </trkpt>
      <trkpt lat="48.980162" lon="2.341514">
        <ele>60.498597</ele>
        <time>2025-05-06T14:14:33.286Z</time>
      </trkpt>
      <trkpt lat="48.979986" lon="2.341758">
        <ele>59.889614</ele>
        <time>2025-05-06T14:14:37.708Z</time>
      </trkpt>
      <trkpt lat="48.979807" lon="2.341749">
        <ele>59.431258</ele>
        <time>2025-05-06T14:14:41.054Z</time>
      </trkpt>
      <trkpt lat="48.979036" lon="2.341753">
        <ele>57.726193</ele>
        <time>2025-05-06T14:14:54.959Z</time>
      </trkpt>
      <trkpt lat="48.978946" lon="2.341671">
        <ele>57.495976</ele>
        <time>2025-05-06T14:14:56.827Z</time>
      </trkpt>
      <trkpt lat="48.978884" lon="2.341462">
        <ele>57.165496</ele>
        <time>2025-05-06T14:14:59.514Z</time>
      </trkpt>
      <trkpt lat="48.978812" lon="2.341352">
        <ele>56.941649</ele>
        <time>2025-05-06T14:15:01.355Z</time>
      </trkpt>
      <trkpt lat="48.978756" lon="2.341320">
        <ele>56.810346</ele>
        <time>2025-05-06T14:15:02.453Z</time>
      </trkpt>
      <trkpt lat="48.978551" lon="2.341346">
        <ele>56.358738</ele>
        <time>2025-05-06T14:15:06.331Z</time>
      </trkpt>
      <trkpt lat="48.978201" lon="2.341424">
        <ele>55.582181</ele>
        <time>2025-05-06T14:15:13.532Z</time>
      </trkpt>
      <trkpt lat="48.978192" lon="2.341959">
        <ele>55.652663</ele>
        <time>2025-05-06T14:15:21.534Z</time>
      </trkpt>
      <trkpt lat="48.978218" lon="2.342071">
        <ele>55.728112</ele>
        <time>2025-05-06T14:15:23.455Z</time>
      </trkpt>
      <trkpt lat="48.978322" lon="2.342243">
        <ele>55.876636</ele>
        <time>2025-05-06T14:15:27.570Z</time>
      </trkpt>
      <trkpt lat="48.978659" lon="2.342785">
        <ele>56.350790</ele>
        <time>2025-05-06T14:15:43.710Z</time>
      </trkpt>
      <trkpt lat="48.979016" lon="2.343199">
        <ele>56.784910</ele>
        <time>2025-05-06T14:15:58.857Z</time>
      </trkpt>
      <trkpt lat="48.979270" lon="2.343507">
        <ele>57.099024</ele>
        <time>2025-05-06T14:16:08.808Z</time>
      </trkpt>
      <trkpt lat="48.979323" lon="2.343731">
        <ele>57.061016</ele>
        <time>2025-05-06T14:16:13.036Z</time>
      </trkpt>
      <trkpt lat="48.979132" lon="2.343799">
        <ele>56.937538</ele>
        <time>2025-05-06T14:16:17.781Z</time>
      </trkpt>
      <trkpt lat="48.978840" lon="2.343908">
        <ele>56.748281</ele>
        <time>2025-05-06T14:16:24.491Z</time>
      </trkpt>
      <trkpt lat="48.978830" lon="2.343912">
        <ele>56.741772</ele>
        <time>2025-05-06T14:16:24.728Z</time>
      </trkpt>
      <trkpt lat="48.978575" lon="2.344009">
        <ele>56.576316</ele>
        <time>2025-05-06T14:16:30.317Z</time>
      </trkpt>
      <trkpt lat="48.977960" lon="2.344269">
        <ele>56.174530</ele>
        <time>2025-05-06T14:16:42.852Z</time>
      </trkpt>
      <trkpt lat="48.977836" lon="2.344391">
        <ele>56.081608</ele>
        <time>2025-05-06T14:16:45.897Z</time>
      </trkpt>
      <trkpt lat="48.977486" lon="2.344996">
        <ele>55.430823</ele>
        <time>2025-05-06T14:16:56.746Z</time>
      </trkpt>
      <trkpt lat="48.977419" lon="2.345061">
        <ele>55.318530</ele>
        <time>2025-05-06T14:16:58.342Z</time>
      </trkpt>
      <trkpt lat="48.977339" lon="2.345080">
        <ele>55.204066</ele>
        <time>2025-05-06T14:17:00.006Z</time>
      </trkpt>
      <trkpt lat="48.977225" lon="2.345046">
        <ele>55.039843</ele>
        <time>2025-05-06T14:17:02.331Z</time>
      </trkpt>
      <trkpt lat="48.976917" lon="2.344875">
        <ele>54.576405</ele>
        <time>2025-05-06T14:17:08.947Z</time>
      </trkpt>
      <trkpt lat="48.976563" lon="2.346241">
        <ele>53.286508</ele>
        <time>2025-05-06T14:17:27.945Z</time>
      </trkpt>
      <trkpt lat="48.976143" lon="2.347815">
        <ele>52.175194</ele>
        <time>2025-05-06T14:17:50.807Z</time>
      </trkpt>
      <trkpt lat="48.976010" lon="2.347737">
        <ele>52.033182</ele>
        <time>2025-05-06T14:17:53.802Z</time>
      </trkpt>
      <trkpt lat="48.975767" lon="2.347584">
        <ele>51.771173</ele>
        <time>2025-05-06T14:17:59.379Z</time>
      </trkpt>
      <trkpt lat="48.975583" lon="2.347455">
        <ele>51.613187</ele>
        <time>2025-05-06T14:18:03.660Z</time>
      </trkpt>
      <trkpt lat="48.974824" lon="2.347016">
        <ele>51.162983</ele>
        <time>2025-05-06T14:18:21.168Z</time>
      </trkpt>
      <trkpt lat="48.974588" lon="2.346877">
        <ele>51.022673</ele>
        <time>2025-05-06T14:18:26.194Z</time>
      </trkpt>
      <trkpt lat="48.974485" lon="2.346655">
        <ele>50.923718</ele>
        <time>2025-05-06T14:18:29.600Z</time>
      </trkpt>
      <trkpt lat="48.974492" lon="2.346585">
        <ele>50.897945</ele>
        <time>2025-05-06T14:18:30.489Z</time>
      </trkpt>
      <trkpt lat="48.974472" lon="2.346522">
        <ele>50.872472</ele>
        <time>2025-05-06T14:18:31.368Z</time>
      </trkpt>
      <trkpt lat="48.974457" lon="2.346502">
        <ele>50.861418</ele>
        <time>2025-05-06T14:18:31.757Z</time>
      </trkpt>
      <trkpt lat="48.974414" lon="2.346483">
        <ele>50.836590</ele>
        <time>2025-05-06T14:18:32.611Z</time>
      </trkpt>
      <trkpt lat="48.974368" lon="2.346506">
        <ele>50.809743</ele>
        <time>2025-05-06T14:18:33.561Z</time>
      </trkpt>
      <trkpt lat="48.974336" lon="2.346603">
        <ele>50.770227</ele>
        <time>2025-05-06T14:18:34.948Z</time>
      </trkpt>
      <trkpt lat="48.974365" lon="2.346696">
        <ele>50.732750</ele>
        <time>2025-05-06T14:18:36.303Z</time>
      </trkpt>
      <trkpt lat="48.974141" lon="2.347653">
        <ele>51.536332</ele>
        <time>2025-05-06T14:18:51.249Z</time>
      </trkpt>
      <trkpt lat="48.974022" lon="2.348142">
        <ele>52.070016</ele>
        <time>2025-05-06T14:19:01.106Z</time>
      </trkpt>
      <trkpt lat="48.973836" lon="2.348940">
        <ele>52.936578</ele>
        <time>2025-05-06T14:19:19.622Z</time>
      </trkpt>
      <trkpt lat="48.973835" lon="2.348951">
        <ele>52.947942</ele>
        <time>2025-05-06T14:19:19.896Z</time>
      </trkpt>
      <trkpt lat="48.973825" lon="2.349193">
        <ele>53.196076</ele>
        <time>2025-05-06T14:19:25.989Z</time>
      </trkpt>
      <trkpt lat="48.973992" lon="2.349366">
        <ele>53.562851</ele>
        <time>2025-05-06T14:19:34.228Z</time>
      </trkpt>
      <trkpt lat="48.974376" lon="2.349662">
        <ele>55.199826</ele>
        <time>2025-05-06T14:19:52.272Z</time>
      </trkpt>
      <trkpt lat="48.974813" lon="2.350147">
        <ele>57.256383</ele>
        <time>2025-05-06T14:20:15.478Z</time>
      </trkpt>
      <trkpt lat="48.975153" lon="2.350586">
        <ele>58.951657</ele>
        <time>2025-05-06T14:20:35.007Z</time>
      </trkpt>
      <trkpt lat="48.975577" lon="2.351222">
        <ele>61.034451</ele>
        <time>2025-05-06T14:21:00.541Z</time>
      </trkpt>
      <trkpt lat="48.975827" lon="2.351745">
        <ele>62.325251</ele>
        <time>2025-05-06T14:21:18.450Z</time>
      </trkpt>
      <trkpt lat="48.975840" lon="2.351828">
        <ele>62.495492</ele>
        <time>2025-05-06T14:21:20.749Z</time>
      </trkpt>
      <trkpt lat="48.975903" lon="2.351794">
        <ele>62.698642</ele>
        <time>2025-05-06T14:21:23.523Z</time>
      </trkpt>
      <trkpt lat="48.975979" lon="2.351977">
        <ele>63.130683</ele>
        <time>2025-05-06T14:21:29.193Z</time>
      </trkpt>
      <trkpt lat="48.976263" lon="2.352850">
        <ele>65.074559</ele>
        <time>2025-05-06T14:21:51.917Z</time>
      </trkpt>
      <trkpt lat="48.976468" lon="2.353507">
        <ele>66.013342</ele>
        <time>2025-05-06T14:22:06.522Z</time>
      </trkpt>
      <trkpt lat="48.976783" lon="2.354515">
        <ele>66.702921</ele>
        <time>2025-05-06T14:22:26.793Z</time>
      </trkpt>
      <trkpt lat="48.976911" lon="2.354919">
        <ele>66.980011</ele>
        <time>2025-05-06T14:22:34.401Z</time>
      </trkpt>
      <trkpt lat="48.977107" lon="2.355566">
        <ele>67.420153</ele>
        <time>2025-05-06T14:22:45.728Z</time>
      </trkpt>
      <trkpt lat="48.977175" lon="2.355783">
        <ele>67.487592</ele>
        <time>2025-05-06T14:22:49.304Z</time>
      </trkpt>
      <trkpt lat="48.977378" lon="2.356435">
        <ele>67.542889</ele>
        <time>2025-05-06T14:22:59.877Z</time>
      </trkpt>
      <trkpt lat="48.977581" lon="2.357304">
        <ele>67.613568</ele>
        <time>2025-05-06T14:23:13.643Z</time>
      </trkpt>
      <trkpt lat="48.977822" lon="2.358972">
        <ele>68.240717</ele>
        <time>2025-05-06T14:23:38.762Z</time>
      </trkpt>
      <trkpt lat="48.978007" lon="2.359966">
        <ele>68.993228</ele>
        <time>2025-05-06T14:23:56.634Z</time>
      </trkpt>
      <trkpt lat="48.978110" lon="2.360613">
        <ele>69.478124</ele>
        <time>2025-05-06T14:24:10.136Z</time>
      </trkpt>
      <trkpt lat="48.978137" lon="2.361015">
        <ele>69.941732</ele>
        <time>2025-05-06T14:24:19.246Z</time>
      </trkpt>
      <trkpt lat="48.978136" lon="2.361099">
        <ele>70.117463</ele>
        <time>2025-05-06T14:24:21.229Z</time>
      </trkpt>
      <trkpt lat="48.978132" lon="2.361377">
        <ele>70.699092</ele>
        <time>2025-05-06T14:24:27.958Z</time>
      </trkpt>
      <trkpt lat="48.978078" lon="2.361898">
        <ele>71.802368</ele>
        <time>2025-05-06T14:24:41.407Z</time>
      </trkpt>
      <trkpt lat="48.977989" lon="2.362334">
        <ele>72.757435</ele>
        <time>2025-05-06T14:24:53.688Z</time>
      </trkpt>
      <trkpt lat="48.977497" lon="2.363936">
        <ele>76.485672</ele>
        <time>2025-05-06T14:25:39.546Z</time>
      </trkpt>
      <trkpt lat="48.977388" lon="2.363870">
        <ele>76.869730</ele>
        <time>2025-05-06T14:25:43.949Z</time>
      </trkpt>
      <trkpt lat="48.977333" lon="2.363917">
        <ele>77.076213</ele>
        <time>2025-05-06T14:25:46.338Z</time>
      </trkpt>
      <trkpt lat="48.977274" lon="2.363845">
        <ele>77.323731</ele>
        <time>2025-05-06T14:25:49.179Z</time>
      </trkpt>
      <trkpt lat="48.977216" lon="2.363776">
        <ele>77.564682</ele>
        <time>2025-05-06T14:25:51.960Z</time>
      </trkpt>
      <trkpt lat="48.977125" lon="2.363740">
        <ele>77.872530</ele>
        <time>2025-05-06T14:25:55.556Z</time>
      </trkpt>
      <trkpt lat="48.976344" lon="2.363425">
        <ele>80.517895</ele>
        <time>2025-05-06T14:26:26.920Z</time>
      </trkpt>
      <trkpt lat="48.976268" lon="2.363306">
        <ele>80.874738</ele>
        <time>2025-05-06T14:26:31.128Z</time>
      </trkpt>
      <trkpt lat="48.976243" lon="2.363159">
        <ele>81.201103</ele>
        <time>2025-05-06T14:26:34.977Z</time>
      </trkpt>
      <trkpt lat="48.976015" lon="2.362872">
        <ele>82.544069</ele>
        <time>2025-05-06T14:26:46.994Z</time>
      </trkpt>
      <trkpt lat="48.975976" lon="2.362811">
        <ele>82.806237</ele>
        <time>2025-05-06T14:26:49.357Z</time>
      </trkpt>
      <trkpt lat="48.975935" lon="2.362734">
        <ele>83.111492</ele>
        <time>2025-05-06T14:26:52.138Z</time>
      </trkpt>
      <trkpt lat="48.975457" lon="2.361903">
        <ele>86.513297</ele>
        <time>2025-05-06T14:27:31.115Z</time>
      </trkpt>
      <trkpt lat="48.975165" lon="2.361325">
        <ele>88.758855</ele>
        <time>2025-05-06T14:27:58.661Z</time>
      </trkpt>
      <trkpt lat="48.974763" lon="2.360644">
        <ele>91.011235</ele>
        <time>2025-05-06T14:28:28.116Z</time>
      </trkpt>
      <trkpt lat="48.974569" lon="2.360232">
        <ele>92.090583</ele>
        <time>2025-05-06T14:28:42.696Z</time>
      </trkpt>
      <trkpt lat="48.974551" lon="2.360148">
        <ele>92.278681</ele>
        <time>2025-05-06T14:28:45.072Z</time>
      </trkpt>
      <trkpt lat="48.974496" lon="2.360133">
        <ele>92.459882</ele>
        <time>2025-05-06T14:28:48.156Z</time>
      </trkpt>
      <trkpt lat="48.974258" lon="2.360205">
        <ele>93.246791</ele>
        <time>2025-05-06T14:29:00.651Z</time>
      </trkpt>
      <trkpt lat="48.973770" lon="2.360401">
        <ele>94.883459</ele>
        <time>2025-05-06T14:29:24.065Z</time>
      </trkpt>
      <trkpt lat="48.973584" lon="2.360457">
        <ele>95.498328</ele>
        <time>2025-05-06T14:29:32.237Z</time>
      </trkpt>
      <trkpt lat="48.973485" lon="2.360434">
        <ele>95.687533</ele>
        <time>2025-05-06T14:29:36.452Z</time>
      </trkpt>
      <trkpt lat="48.973393" lon="2.360381">
        <ele>95.833637</ele>
        <time>2025-05-06T14:29:40.501Z</time>
      </trkpt>
      <trkpt lat="48.973241" lon="2.360218">
        <ele>96.109752</ele>
        <time>2025-05-06T14:29:48.071Z</time>
      </trkpt>
      <trkpt lat="48.973189" lon="2.360099">
        <ele>96.249143</ele>
        <time>2025-05-06T14:29:51.899Z</time>
      </trkpt>
      <trkpt lat="48.973154" lon="2.359930">
        <ele>96.421935</ele>
        <time>2025-05-06T14:29:56.743Z</time>
      </trkpt>
      <trkpt lat="48.973313" lon="2.358744">
        <ele>97.602225</ele>
        <time>2025-05-06T14:30:33.404Z</time>
      </trkpt>
      <trkpt lat="48.973294" lon="2.358417">
        <ele>97.922315</ele>
        <time>2025-05-06T14:30:43.939Z</time>
      </trkpt>
      <trkpt lat="48.973294" lon="2.358417">
        <ele>97.922315</ele>
        <time>2025-05-06T14:30:43.941Z</time>
      </trkpt>
      <trkpt lat="48.973848" lon="2.358106">
        <ele>98.236882</ele>
        <time>2025-05-06T14:30:59.210Z</time>
      </trkpt>
      <trkpt lat="48.974144" lon="2.358243">
        <ele>98.230383</ele>
        <time>2025-05-06T14:31:07.210Z</time>
      </trkpt>
      <trkpt lat="48.973880" lon="2.358096">
        <ele>98.224477</ele>
        <time>2025-05-06T14:31:14.478Z</time>
      </trkpt>
      <trkpt lat="48.973282" lon="2.358345">
        <ele>98.211453</ele>
        <time>2025-05-06T14:31:30.522Z</time>
      </trkpt>
      <trkpt lat="48.973270" lon="2.358278">
        <ele>98.210495</ele>
        <time>2025-05-06T14:31:31.426Z</time>
      </trkpt>
      <trkpt lat="48.973152" lon="2.357849">
        <ele>97.839831</ele>
        <time>2025-05-06T14:31:37.339Z</time>
      </trkpt>
      <trkpt lat="48.973132" lon="2.357691">
        <ele>97.554737</ele>
        <time>2025-05-06T14:31:39.326Z</time>
      </trkpt>
      <trkpt lat="48.973106" lon="2.357562">
        <ele>97.315650</ele>
        <time>2025-05-06T14:31:40.910Z</time>
      </trkpt>
      <trkpt lat="48.973096" lon="2.357507">
        <ele>97.214535</ele>
        <time>2025-05-06T14:31:41.582Z</time>
      </trkpt>
      <trkpt lat="48.972562" lon="2.357105">
        <ele>95.606817</ele>
        <time>2025-05-06T14:31:52.094Z</time>
      </trkpt>
      <trkpt lat="48.972297" lon="2.357087">
        <ele>94.890834</ele>
        <time>2025-05-06T14:31:56.687Z</time>
      </trkpt>
      <trkpt lat="48.971914" lon="2.356998">
        <ele>93.845107</ele>
        <time>2025-05-06T14:32:03.189Z</time>
      </trkpt>
      <trkpt lat="48.971886" lon="2.356991">
        <ele>93.768520</ele>
        <time>2025-05-06T14:32:03.663Z</time>
      </trkpt>
      <trkpt lat="48.971434" lon="2.356847">
        <ele>92.378886</ele>
        <time>2025-05-06T14:32:11.393Z</time>
      </trkpt>
      <trkpt lat="48.970386" lon="2.356451">
        <ele>88.961558</ele>
        <time>2025-05-06T14:32:30.016Z</time>
      </trkpt>
      <trkpt lat="48.970128" lon="2.356317">
        <ele>88.098859</ele>
        <time>2025-05-06T14:32:34.804Z</time>
      </trkpt>
      <trkpt lat="48.969784" lon="2.355952">
        <ele>86.444493</ele>
        <time>2025-05-06T14:32:42.018Z</time>
      </trkpt>
      <trkpt lat="48.970177" lon="2.355808">
        <ele>84.693071</ele>
        <time>2025-05-06T14:32:48.822Z</time>
      </trkpt>
      <trkpt lat="48.971269" lon="2.355370">
        <ele>79.797715</ele>
        <time>2025-05-06T14:33:06.846Z</time>
      </trkpt>
      <trkpt lat="48.971450" lon="2.355233">
        <ele>78.888846</ele>
        <time>2025-05-06T14:33:09.940Z</time>
      </trkpt>
      <trkpt lat="48.971600" lon="2.355062">
        <ele>78.046352</ele>
        <time>2025-05-06T14:33:12.827Z</time>
      </trkpt>
      <trkpt lat="48.971810" lon="2.354731">
        <ele>76.687502</ele>
        <time>2025-05-06T14:33:17.616Z</time>
      </trkpt>
      <trkpt lat="48.971995" lon="2.354438">
        <ele>75.487436</ele>
        <time>2025-05-06T14:33:21.835Z</time>
      </trkpt>
      <trkpt lat="48.972132" lon="2.354095">
        <ele>74.302239</ele>
        <time>2025-05-06T14:33:25.987Z</time>
      </trkpt>
      <trkpt lat="48.972042" lon="2.354044">
        <ele>73.870426</ele>
        <time>2025-05-06T14:33:32.683Z</time>
      </trkpt>
      <trkpt lat="48.971922" lon="2.354276">
        <ele>72.998532</ele>
        <time>2025-05-06T14:33:46.171Z</time>
      </trkpt>
      <trkpt lat="48.971907" lon="2.354306">
        <ele>72.887211</ele>
        <time>2025-05-06T14:33:47.886Z</time>
      </trkpt>
      <trkpt lat="48.971812" lon="2.354424">
        <ele>72.336001</ele>
        <time>2025-05-06T14:33:56.443Z</time>
      </trkpt>
      <trkpt lat="48.971742" lon="2.354446">
        <ele>72.014589</ele>
        <time>2025-05-06T14:34:01.399Z</time>
      </trkpt>
      <trkpt lat="48.971637" lon="2.354367">
        <ele>71.845466</ele>
        <time>2025-05-06T14:34:09.539Z</time>
      </trkpt>
      <trkpt lat="48.971484" lon="2.354061">
        <ele>72.110229</ele>
        <time>2025-05-06T14:34:27.072Z</time>
      </trkpt>
      <trkpt lat="48.971375" lon="2.353980">
        <ele>72.237395</ele>
        <time>2025-05-06T14:34:35.510Z</time>
      </trkpt>
      <trkpt lat="48.971224" lon="2.354071">
        <ele>72.407667</ele>
        <time>2025-05-06T14:34:41.197Z</time>
      </trkpt>
      <trkpt lat="48.970911" lon="2.354058">
        <ele>72.735987</ele>
        <time>2025-05-06T14:34:53.954Z</time>
      </trkpt>
      <trkpt lat="48.970811" lon="2.354005">
        <ele>72.847008</ele>
        <time>2025-05-06T14:34:58.534Z</time>
      </trkpt>
      <trkpt lat="48.970782" lon="2.353967">
        <ele>72.887118</ele>
        <time>2025-05-06T14:35:00.045Z</time>
      </trkpt>
      <trkpt lat="48.970551" lon="2.353664">
        <ele>73.206753</ele>
        <time>2025-05-06T14:35:14.690Z</time>
      </trkpt>
      <trkpt lat="48.970474" lon="2.353436">
        <ele>73.383242</ele>
        <time>2025-05-06T14:35:24.528Z</time>
      </trkpt>
      <trkpt lat="48.970391" lon="2.353348">
        <ele>73.489276</ele>
        <time>2025-05-06T14:35:30.994Z</time>
      </trkpt>
      <trkpt lat="48.970116" lon="2.353461">
        <ele>74.009695</ele>
        <time>2025-05-06T14:35:50.032Z</time>
      </trkpt>
      <trkpt lat="48.970085" lon="2.353519">
        <ele>74.153185</ele>
        <time>2025-05-06T14:35:53.152Z</time>
      </trkpt>
      <trkpt lat="48.970106" lon="2.353598">
        <ele>74.316699</ele>
        <time>2025-05-06T14:35:56.741Z</time>
      </trkpt>
      <trkpt lat="48.970363" lon="2.353894">
        <ele>75.258289</ele>
        <time>2025-05-06T14:36:16.611Z</time>
      </trkpt>
      <trkpt lat="48.970398" lon="2.353995">
        <ele>75.477395</ele>
        <time>2025-05-06T14:36:20.969Z</time>
      </trkpt>
      <trkpt lat="48.970395" lon="2.354055">
        <ele>75.592836</ele>
        <time>2025-05-06T14:36:23.148Z</time>
      </trkpt>
      <trkpt lat="48.970362" lon="2.354107">
        <ele>75.731592</ele>
        <time>2025-05-06T14:36:25.837Z</time>
      </trkpt>
      <trkpt lat="48.969923" lon="2.354408">
        <ele>77.138530</ele>
        <time>2025-05-06T14:36:50.806Z</time>
      </trkpt>
      <trkpt lat="48.969664" lon="2.354035">
        <ele>78.180168</ele>
        <time>2025-05-06T14:37:06.929Z</time>
      </trkpt>
      <trkpt lat="48.969563" lon="2.353871">
        <ele>78.611584</ele>
        <time>2025-05-06T14:37:13.526Z</time>
      </trkpt>
      <trkpt lat="48.969492" lon="2.353600">
        <ele>78.815954</ele>
        <time>2025-05-06T14:37:21.407Z</time>
      </trkpt>
      <trkpt lat="48.969450" lon="2.353294">
        <ele>78.566492</ele>
        <time>2025-05-06T14:37:29.261Z</time>
      </trkpt>
      <trkpt lat="48.969380" lon="2.353092">
        <ele>78.384219</ele>
        <time>2025-05-06T14:37:34.601Z</time>
      </trkpt>
      <trkpt lat="48.969054" lon="2.352797">
        <ele>77.923294</ele>
        <time>2025-05-06T14:37:47.571Z</time>
      </trkpt>
      <trkpt lat="48.968892" lon="2.352770">
        <ele>77.725195</ele>
        <time>2025-05-06T14:37:53.090Z</time>
      </trkpt>
      <trkpt lat="48.968837" lon="2.352751">
        <ele>77.656641</ele>
        <time>2025-05-06T14:37:54.957Z</time>
      </trkpt>
      <trkpt lat="48.968690" lon="2.352701">
        <ele>77.473551</ele>
        <time>2025-05-06T14:38:00.058Z</time>
      </trkpt>
      <trkpt lat="48.968306" lon="2.352397">
        <ele>76.947494</ele>
        <time>2025-05-06T14:38:14.414Z</time>
      </trkpt>
      <trkpt lat="48.968253" lon="2.352294">
        <ele>76.843060</ele>
        <time>2025-05-06T14:38:17.193Z</time>
      </trkpt>
      <trkpt lat="48.968264" lon="2.352033">
        <ele>76.408325</ele>
        <time>2025-05-06T14:38:22.502Z</time>
      </trkpt>
      <trkpt lat="48.968295" lon="2.351635">
        <ele>75.362796</ele>
        <time>2025-05-06T14:38:30.363Z</time>
      </trkpt>
      <trkpt lat="48.968272" lon="2.351492">
        <ele>74.978725</ele>
        <time>2025-05-06T14:38:33.193Z</time>
      </trkpt>
      <trkpt lat="48.968201" lon="2.351270">
        <ele>74.334533</ele>
        <time>2025-05-06T14:38:37.850Z</time>
      </trkpt>
      <trkpt lat="48.968091" lon="2.351127">
        <ele>73.759883</ele>
        <time>2025-05-06T14:38:41.920Z</time>
      </trkpt>
      <trkpt lat="48.967959" lon="2.351011">
        <ele>73.154322</ele>
        <time>2025-05-06T14:38:46.156Z</time>
      </trkpt>
      <trkpt lat="48.967745" lon="2.350784">
        <ele>72.118075</ele>
        <time>2025-05-06T14:38:53.336Z</time>
      </trkpt>
      <trkpt lat="48.967629" lon="2.350700">
        <ele>71.607688</ele>
        <time>2025-05-06T14:38:56.999Z</time>
      </trkpt>
      <trkpt lat="48.967389" lon="2.350664">
        <ele>70.649380</ele>
        <time>2025-05-06T14:39:04.240Z</time>
      </trkpt>
      <trkpt lat="48.967063" lon="2.350412">
        <ele>69.432146</ele>
        <time>2025-05-06T14:39:16.187Z</time>
      </trkpt>
      <trkpt lat="48.966981" lon="2.350425">
        <ele>69.302346</ele>
        <time>2025-05-06T14:39:18.959Z</time>
      </trkpt>
      <trkpt lat="48.966949" lon="2.350513">
        <ele>69.198369</ele>
        <time>2025-05-06T14:39:21.237Z</time>
      </trkpt>
      <trkpt lat="48.966931" lon="2.350674">
        <ele>69.029564</ele>
        <time>2025-05-06T14:39:24.918Z</time>
      </trkpt>
      <trkpt lat="48.966937" lon="2.351069">
        <ele>68.621184</ele>
        <time>2025-05-06T14:39:34.249Z</time>
      </trkpt>
      <trkpt lat="48.966894" lon="2.351159">
        <ele>68.506133</ele>
        <time>2025-05-06T14:39:36.909Z</time>
      </trkpt>
      <trkpt lat="48.966794" lon="2.351260">
        <ele>68.317225</ele>
        <time>2025-05-06T14:39:41.198Z</time>
      </trkpt>
      <trkpt lat="48.966593" lon="2.351313">
        <ele>67.996061</ele>
        <time>2025-05-06T14:39:48.612Z</time>
      </trkpt>
      <trkpt lat="48.966333" lon="2.351331">
        <ele>67.586290</ele>
        <time>2025-05-06T14:39:57.820Z</time>
      </trkpt>
      <trkpt lat="48.965988" lon="2.351312">
        <ele>67.042760</ele>
        <time>2025-05-06T14:40:09.647Z</time>
      </trkpt>
      <trkpt lat="48.965687" lon="2.351341">
        <ele>66.428686</ele>
        <time>2025-05-06T14:40:18.834Z</time>
      </trkpt>
      <trkpt lat="48.965681" lon="2.351342">
        <ele>66.412105</ele>
        <time>2025-05-06T14:40:19.024Z</time>
      </trkpt>
      <trkpt lat="48.965590" lon="2.351318">
        <ele>66.158399</ele>
        <time>2025-05-06T14:40:21.762Z</time>
      </trkpt>
      <trkpt lat="48.965432" lon="2.351165">
        <ele>65.644070</ele>
        <time>2025-05-06T14:40:27.237Z</time>
      </trkpt>
      <trkpt lat="48.965234" lon="2.350898">
        <ele>64.917616</ele>
        <time>2025-05-06T14:40:35.106Z</time>
      </trkpt>
      <trkpt lat="48.965036" lon="2.350788">
        <ele>64.338640</ele>
        <time>2025-05-06T14:40:41.489Z</time>
      </trkpt>
      <trkpt lat="48.964846" lon="2.350757">
        <ele>63.813704</ele>
        <time>2025-05-06T14:40:47.331Z</time>
      </trkpt>
      <trkpt lat="48.964478" lon="2.350819">
        <ele>62.796605</ele>
        <time>2025-05-06T14:40:59.023Z</time>
      </trkpt>
      <trkpt lat="48.964430" lon="2.350846">
        <ele>62.656040</ele>
        <time>2025-05-06T14:41:00.626Z</time>
      </trkpt>
      <trkpt lat="48.964297" lon="2.351067">
        <ele>62.115335</ele>
        <time>2025-05-06T14:41:07.116Z</time>
      </trkpt>
      <trkpt lat="48.964143" lon="2.351204">
        <ele>61.689151</ele>
        <time>2025-05-06T14:41:13.206Z</time>
      </trkpt>
      <trkpt lat="48.964109" lon="2.351203">
        <ele>61.627344</ele>
        <time>2025-05-06T14:41:14.387Z</time>
      </trkpt>
      <trkpt lat="48.964047" lon="2.351133">
        <ele>61.487076</ele>
        <time>2025-05-06T14:41:17.086Z</time>
      </trkpt>
      <trkpt lat="48.963896" lon="2.351319">
        <ele>61.134115</ele>
        <time>2025-05-06T14:41:21.644Z</time>
      </trkpt>
      <trkpt lat="48.963883" lon="2.351389">
        <ele>61.047309</ele>
        <time>2025-05-06T14:41:22.767Z</time>
      </trkpt>
      <trkpt lat="48.963835" lon="2.351383">
        <ele>60.959775</ele>
        <time>2025-05-06T14:41:23.859Z</time>
      </trkpt>
      <trkpt lat="48.963806" lon="2.351692">
        <ele>60.587307</ele>
        <time>2025-05-06T14:41:27.998Z</time>
      </trkpt>
      <trkpt lat="48.963733" lon="2.351600">
        <ele>60.415099</ele>
        <time>2025-05-06T14:41:31.184Z</time>
      </trkpt>
      <trkpt lat="48.963512" lon="2.351425">
        <ele>59.962387</ele>
        <time>2025-05-06T14:41:39.493Z</time>
      </trkpt>
      <trkpt lat="48.963428" lon="2.351401">
        <ele>59.807052</ele>
        <time>2025-05-06T14:41:45.402Z</time>
      </trkpt>
      <trkpt lat="48.963277" lon="2.351358">
        <ele>59.527851</ele>
        <time>2025-05-06T14:41:56.095Z</time>
      </trkpt>
      <trkpt lat="48.963285" lon="2.351230">
        <ele>59.374420</ele>
        <time>2025-05-06T14:42:01.940Z</time>
      </trkpt>
      <trkpt lat="48.963201" lon="2.351031">
        <ele>59.092113</ele>
        <time>2025-05-06T14:42:12.767Z</time>
      </trkpt>
      <trkpt lat="48.963135" lon="2.350650">
        <ele>58.621913</ele>
        <time>2025-05-06T14:42:30.741Z</time>
      </trkpt>
      <trkpt lat="48.963138" lon="2.350510">
        <ele>58.417208</ele>
        <time>2025-05-06T14:42:37.157Z</time>
      </trkpt>
      <trkpt lat="48.963139" lon="2.350484">
        <ele>58.373152</ele>
        <time>2025-05-06T14:42:38.359Z</time>
      </trkpt>
      <trkpt lat="48.963187" lon="2.350241">
        <ele>57.943902</ele>
        <time>2025-05-06T14:42:49.909Z</time>
      </trkpt>
      <trkpt lat="48.963439" lon="2.349811">
        <ele>56.968907</ele>
        <time>2025-05-06T14:43:16.220Z</time>
      </trkpt>
      <trkpt lat="48.963475" lon="2.349700">
        <ele>56.759485</ele>
        <time>2025-05-06T14:43:21.878Z</time>
      </trkpt>
      <trkpt lat="48.963478" lon="2.349466">
        <ele>56.363586</ele>
        <time>2025-05-06T14:43:32.592Z</time>
      </trkpt>
      <trkpt lat="48.963507" lon="2.348949">
        <ele>55.485869</ele>
        <time>2025-05-06T14:43:39.523Z</time>
      </trkpt>
      <trkpt lat="48.963495" lon="2.348820">
        <ele>55.265480</ele>
        <time>2025-05-06T14:43:41.280Z</time>
      </trkpt>
      <trkpt lat="48.963479" lon="2.348675">
        <ele>55.016765</ele>
        <time>2025-05-06T14:43:44.408Z</time>
      </trkpt>
      <trkpt lat="48.963552" lon="2.348371">
        <ele>54.469217</ele>
        <time>2025-05-06T14:43:51.250Z</time>
      </trkpt>
      <trkpt lat="48.963612" lon="2.347796">
        <ele>53.604228</ele>
        <time>2025-05-06T14:44:03.459Z</time>
      </trkpt>
      <trkpt lat="48.963450" lon="2.347578">
        <ele>53.203908</ele>
        <time>2025-05-06T14:44:10.301Z</time>
      </trkpt>
      <trkpt lat="48.963445" lon="2.347572">
        <ele>53.192120</ele>
        <time>2025-05-06T14:44:10.494Z</time>
      </trkpt>
      <trkpt lat="48.963223" lon="2.347545">
        <ele>52.779692</ele>
        <time>2025-05-06T14:44:17.535Z</time>
      </trkpt>
      <trkpt lat="48.963133" lon="2.347900">
        <ele>52.317004</ele>
        <time>2025-05-06T14:44:25.510Z</time>
      </trkpt>
      <trkpt lat="48.963138" lon="2.348250">
        <ele>51.891357</ele>
        <time>2025-05-06T14:44:33.060Z</time>
      </trkpt>
      <trkpt lat="48.963020" lon="2.347977">
        <ele>51.493956</ele>
        <time>2025-05-06T14:44:40.338Z</time>
      </trkpt>
      <trkpt lat="48.962996" lon="2.347850">
        <ele>51.333273</ele>
        <time>2025-05-06T14:44:43.274Z</time>
      </trkpt>
      <trkpt lat="48.962937" lon="2.348383">
        <ele>50.676078</ele>
        <time>2025-05-06T14:45:07.934Z</time>
      </trkpt>
      <trkpt lat="48.962851" lon="2.348761">
        <ele>50.462595</ele>
        <time>2025-05-06T14:45:26.197Z</time>
      </trkpt>
      <trkpt lat="48.962714" lon="2.349013">
        <ele>50.343171</ele>
        <time>2025-05-06T14:45:41.127Z</time>
      </trkpt>
      <trkpt lat="48.962597" lon="2.349141">
        <ele>50.263084</ele>
        <time>2025-05-06T14:45:51.114Z</time>
      </trkpt>
      <trkpt lat="48.962393" lon="2.349216">
        <ele>50.146412</ele>
        <time>2025-05-06T14:46:05.694Z</time>
      </trkpt>
      <trkpt lat="48.961975" lon="2.349269">
        <ele>49.913218</ele>
        <time>2025-05-06T14:46:34.861Z</time>
      </trkpt>
      <trkpt lat="48.961954" lon="2.349272">
        <ele>49.901492</ele>
        <time>2025-05-06T14:46:36.326Z</time>
      </trkpt>
      <trkpt lat="48.961548" lon="2.349206">
        <ele>49.674492</ele>
        <time>2025-05-06T14:47:04.706Z</time>
      </trkpt>
      <trkpt lat="48.961465" lon="2.349258">
        <ele>49.624597</ele>
        <time>2025-05-06T14:47:10.911Z</time>
      </trkpt>
      <trkpt lat="48.961380" lon="2.349377">
        <ele>49.636817</ele>
        <time>2025-05-06T14:47:18.940Z</time>
      </trkpt>
      <trkpt lat="48.961253" lon="2.349486">
        <ele>49.876558</ele>
        <time>2025-05-06T14:47:29.111Z</time>
      </trkpt>
      <trkpt lat="48.961198" lon="2.349580">
        <ele>50.012514</ele>
        <time>2025-05-06T14:47:34.829Z</time>
      </trkpt>
      <trkpt lat="48.961164" lon="2.349839">
        <ele>50.297713</ele>
        <time>2025-05-06T14:47:46.890Z</time>
      </trkpt>
      <trkpt lat="48.961280" lon="2.350017">
        <ele>50.568518</ele>
        <time>2025-05-06T14:47:54.666Z</time>
      </trkpt>
      <trkpt lat="48.961324" lon="2.350238">
        <ele>50.817880</ele>
        <time>2025-05-06T14:48:02.250Z</time>
      </trkpt>
      <trkpt lat="48.961494" lon="2.350874">
        <ele>51.559350</ele>
        <time>2025-05-06T14:48:33.597Z</time>
      </trkpt>
      <trkpt lat="48.961848" lon="2.351206">
        <ele>52.243052</ele>
        <time>2025-05-06T14:49:02.523Z</time>
      </trkpt>
      <trkpt lat="48.962068" lon="2.351530">
        <ele>52.220963</ele>
        <time>2025-05-06T14:49:23.792Z</time>
      </trkpt>
      <trkpt lat="48.962132" lon="2.351573">
        <ele>52.046272</ele>
        <time>2025-05-06T14:49:28.646Z</time>
      </trkpt>
      <trkpt lat="48.962084" lon="2.351982">
        <ele>51.365020</ele>
        <time>2025-05-06T14:49:47.616Z</time>
      </trkpt>
      <trkpt lat="48.961447" lon="2.351828">
        <ele>49.754284</ele>
        <time>2025-05-06T14:49:59.377Z</time>
      </trkpt>
      <trkpt lat="48.961330" lon="2.352112">
        <ele>49.204534</ele>
        <time>2025-05-06T14:50:03.089Z</time>
      </trkpt>
      <trkpt lat="48.961188" lon="2.352633">
        <ele>48.279573</ele>
        <time>2025-05-06T14:50:09.221Z</time>
      </trkpt>
      <trkpt lat="48.961123" lon="2.352448">
        <ele>47.938378</ele>
        <time>2025-05-06T14:50:11.527Z</time>
      </trkpt>
      <trkpt lat="48.961082" lon="2.352341">
        <ele>47.740487</ele>
        <time>2025-05-06T14:50:12.828Z</time>
      </trkpt>
      <trkpt lat="48.960929" lon="2.351933">
        <ele>46.989969</ele>
        <time>2025-05-06T14:50:17.944Z</time>
      </trkpt>
      <trkpt lat="48.960877" lon="2.351850">
        <ele>46.806717</ele>
        <time>2025-05-06T14:50:19.242Z</time>
      </trkpt>
      <trkpt lat="48.960776" lon="2.351565">
        <ele>46.289396</ele>
        <time>2025-05-06T14:50:22.970Z</time>
      </trkpt>
      <trkpt lat="48.960770" lon="2.351478">
        <ele>46.149663</ele>
        <time>2025-05-06T14:50:24.013Z</time>
      </trkpt>
      <trkpt lat="48.960523" lon="2.350795">
        <ele>44.904134</ele>
        <time>2025-05-06T14:50:33.517Z</time>
      </trkpt>
      <trkpt lat="48.960503" lon="2.350512">
        <ele>44.449474</ele>
        <time>2025-05-06T14:50:37.132Z</time>
      </trkpt>
      <trkpt lat="48.960511" lon="2.349221">
        <ele>43.546894</ele>
        <time>2025-05-06T14:50:54.038Z</time>
      </trkpt>
      <trkpt lat="48.960572" lon="2.348804">
        <ele>43.481368</ele>
        <time>2025-05-06T14:51:00.018Z</time>
      </trkpt>
      <trkpt lat="48.960659" lon="2.348133">
        <ele>43.376467</ele>
        <time>2025-05-06T14:51:09.924Z</time>
      </trkpt>
      <trkpt lat="48.960687" lon="2.348052">
        <ele>43.362427</ele>
        <time>2025-05-06T14:51:11.283Z</time>
      </trkpt>
      <trkpt lat="48.960690" lon="2.347916">
        <ele>43.341557</ele>
        <time>2025-05-06T14:51:13.309Z</time>
      </trkpt>
      <trkpt lat="48.960822" lon="2.347088">
        <ele>43.362490</ele>
        <time>2025-05-06T14:51:26.922Z</time>
      </trkpt>
      <trkpt lat="48.960887" lon="2.346659">
        <ele>43.557193</ele>
        <time>2025-05-06T14:51:34.943Z</time>
      </trkpt>
      <trkpt lat="48.960925" lon="2.346541">
        <ele>43.615315</ele>
        <time>2025-05-06T14:51:37.406Z</time>
      </trkpt>
      <trkpt lat="48.960923" lon="2.346427">
        <ele>43.665748</ele>
        <time>2025-05-06T14:51:39.657Z</time>
      </trkpt>
      <trkpt lat="48.960981" lon="2.346061">
        <ele>43.832252</ele>
        <time>2025-05-06T14:51:46.914Z</time>
      </trkpt>
      <trkpt lat="48.961030" lon="2.346043">
        <ele>43.866202</ele>
        <time>2025-05-06T14:51:48.382Z</time>
      </trkpt>
      <trkpt lat="48.961086" lon="2.345960">
        <ele>43.918832</ele>
        <time>2025-05-06T14:51:50.506Z</time>
      </trkpt>
      <trkpt lat="48.961097" lon="2.345883">
        <ele>43.953681</ele>
        <time>2025-05-06T14:51:51.925Z</time>
      </trkpt>
      <trkpt lat="48.961148" lon="2.345825">
        <ele>43.996551</ele>
        <time>2025-05-06T14:51:53.591Z</time>
      </trkpt>
      <trkpt lat="48.961257" lon="2.345714">
        <ele>44.084866</ele>
        <time>2025-05-06T14:51:57.020Z</time>
      </trkpt>
      <trkpt lat="48.961729" lon="2.345243">
        <ele>44.455584</ele>
        <time>2025-05-06T14:52:10.680Z</time>
      </trkpt>
      <trkpt lat="48.961523" lon="2.344751">
        <ele>44.034588</ele>
        <time>2025-05-06T14:52:19.540Z</time>
      </trkpt>
      <trkpt lat="48.961353" lon="2.344321">
        <ele>43.672456</ele>
        <time>2025-05-06T14:52:26.609Z</time>
      </trkpt>
      <trkpt lat="48.961370" lon="2.344221">
        <ele>43.597930</ele>
        <time>2025-05-06T14:52:28.018Z</time>
      </trkpt>
      <trkpt lat="48.961463" lon="2.343882">
        <ele>43.332861</ele>
        <time>2025-05-06T14:52:32.846Z</time>
      </trkpt>
      <trkpt lat="48.961571" lon="2.343786">
        <ele>43.195453</ele>
        <time>2025-05-06T14:52:35.276Z</time>
      </trkpt>
      <trkpt lat="48.961588" lon="2.343676">
        <ele>43.113922</ele>
        <time>2025-05-06T14:52:36.706Z</time>
      </trkpt>
      <trkpt lat="48.961593" lon="2.343463">
        <ele>42.960152</ele>
        <time>2025-05-06T14:52:39.422Z</time>
      </trkpt>
      <trkpt lat="48.961715" lon="2.342983">
        <ele>42.588806</ele>
        <time>2025-05-06T14:52:46.002Z</time>
      </trkpt>
      <trkpt lat="48.962176" lon="2.341269">
        <ele>40.249352</ele>
        <time>2025-05-06T14:53:07.872Z</time>
      </trkpt>
      <trkpt lat="48.962264" lon="2.340944">
        <ele>39.789284</ele>
        <time>2025-05-06T14:53:12.088Z</time>
      </trkpt>
      <trkpt lat="48.962302" lon="2.340811">
        <ele>39.599464</ele>
        <time>2025-05-06T14:53:13.837Z</time>
      </trkpt>
      <trkpt lat="48.962659" lon="2.339508">
        <ele>38.499385</ele>
        <time>2025-05-06T14:53:31.671Z</time>
      </trkpt>
      <trkpt lat="48.962941" lon="2.338955">
        <ele>38.179773</ele>
        <time>2025-05-06T14:53:41.324Z</time>
      </trkpt>
      <trkpt lat="48.962083" lon="2.338338">
        <ele>37.701187</ele>
        <time>2025-05-06T14:54:02.650Z</time>
      </trkpt>
      <trkpt lat="48.961503" lon="2.337878">
        <ele>37.883517</ele>
        <time>2025-05-06T14:54:17.671Z</time>
      </trkpt>
      <trkpt lat="48.961573" lon="2.337684">
        <ele>37.924042</ele>
        <time>2025-05-06T14:54:21.219Z</time>
      </trkpt>
      <trkpt lat="48.961773" lon="2.337447">
        <ele>37.994697</ele>
        <time>2025-05-06T14:54:27.786Z</time>
      </trkpt>
      <trkpt lat="48.961900" lon="2.337121">
        <ele>38.064091</ele>
        <time>2025-05-06T14:54:34.385Z</time>
      </trkpt>
      <trkpt lat="48.962107" lon="2.336432">
        <ele>38.305449</ele>
        <time>2025-05-06T14:54:47.730Z</time>
      </trkpt>
      <trkpt lat="48.962187" lon="2.336162">
        <ele>38.466853</ele>
        <time>2025-05-06T14:54:53.132Z</time>
      </trkpt>
      <trkpt lat="48.962265" lon="2.335931">
        <ele>38.608390</ele>
        <time>2025-05-06T14:54:57.936Z</time>
      </trkpt>
      <trkpt lat="48.962376" lon="2.335564">
        <ele>38.828556</ele>
        <time>2025-05-06T14:55:05.638Z</time>
      </trkpt>
      <trkpt lat="48.962501" lon="2.334936">
        <ele>39.186116</ele>
        <time>2025-05-06T14:55:18.350Z</time>
      </trkpt>
      <trkpt lat="48.962705" lon="2.334102">
        <ele>39.627663</ele>
        <time>2025-05-06T14:55:33.603Z</time>
      </trkpt>
      <trkpt lat="48.962774" lon="2.333860">
        <ele>39.544561</ele>
        <time>2025-05-06T14:55:37.716Z</time>
      </trkpt>
      <trkpt lat="48.962682" lon="2.333711">
        <ele>39.480137</ele>
        <time>2025-05-06T14:55:40.744Z</time>
      </trkpt>
      <trkpt lat="48.962587" lon="2.333584">
        <ele>39.419497</ele>
        <time>2025-05-06T14:55:43.551Z</time>
      </trkpt>
      <trkpt lat="48.962386" lon="2.333318">
        <ele>39.291755</ele>
        <time>2025-05-06T14:55:49.461Z</time>
      </trkpt>
      <trkpt lat="48.962169" lon="2.333048">
        <ele>39.157330</ele>
        <time>2025-05-06T14:55:55.287Z</time>
      </trkpt>
      <trkpt lat="48.961839" lon="2.332636">
        <ele>38.952625</ele>
        <time>2025-05-06T14:56:03.650Z</time>
      </trkpt>
      <trkpt lat="48.961765" lon="2.332543">
        <ele>38.906599</ele>
        <time>2025-05-06T14:56:05.536Z</time>
      </trkpt>
      <trkpt lat="48.961706" lon="2.332469">
        <ele>38.869933</ele>
        <time>2025-05-06T14:56:07.005Z</time>
      </trkpt>
      <trkpt lat="48.961534" lon="2.332253">
        <ele>38.754422</ele>
        <time>2025-05-06T14:56:11.315Z</time>
      </trkpt>
      <trkpt lat="48.961305" lon="2.331950">
        <ele>38.538442</ele>
        <time>2025-05-06T14:56:17.266Z</time>
      </trkpt>
      <trkpt lat="48.961169" lon="2.331749">
        <ele>38.403514</ele>
        <time>2025-05-06T14:56:21.089Z</time>
      </trkpt>
      <trkpt lat="48.960953" lon="2.331394">
        <ele>38.177256</ele>
        <time>2025-05-06T14:56:27.610Z</time>
      </trkpt>
      <trkpt lat="48.960747" lon="2.331028">
        <ele>37.951897</ele>
        <time>2025-05-06T14:56:34.134Z</time>
      </trkpt>
      <trkpt lat="48.960605" lon="2.330780">
        <ele>37.798069</ele>
        <time>2025-05-06T14:56:38.587Z</time>
      </trkpt>
      <trkpt lat="48.960359" lon="2.330281">
        <ele>37.506359</ele>
        <time>2025-05-06T14:56:47.290Z</time>
      </trkpt>
      <trkpt lat="48.960262" lon="2.330090">
        <ele>37.413822</ele>
        <time>2025-05-06T14:56:50.675Z</time>
      </trkpt>
      <trkpt lat="48.959930" lon="2.329330">
        <ele>37.068553</ele>
        <time>2025-05-06T14:57:03.783Z</time>
      </trkpt>
      <trkpt lat="48.959841" lon="2.329037">
        <ele>36.946444</ele>
        <time>2025-05-06T14:57:08.411Z</time>
      </trkpt>
      <trkpt lat="48.959788" lon="2.328850">
        <ele>36.869406</ele>
        <time>2025-05-06T14:57:11.280Z</time>
      </trkpt>
      <trkpt lat="48.959734" lon="2.328703">
        <ele>36.805694</ele>
        <time>2025-05-06T14:57:13.622Z</time>
      </trkpt>
      <trkpt lat="48.959646" lon="2.328388">
        <ele>36.676212</ele>
        <time>2025-05-06T14:57:18.175Z</time>
      </trkpt>
      <trkpt lat="48.959565" lon="2.328087">
        <ele>36.553171</ele>
        <time>2025-05-06T14:57:22.326Z</time>
      </trkpt>
      <trkpt lat="48.959494" lon="2.327859">
        <ele>36.449888</ele>
        <time>2025-05-06T14:57:25.652Z</time>
      </trkpt>
      <trkpt lat="48.959479" lon="2.327821">
        <ele>36.411859</ele>
        <time>2025-05-06T14:57:26.241Z</time>
      </trkpt>
      <trkpt lat="48.959176" lon="2.327237">
        <ele>35.773454</ele>
        <time>2025-05-06T14:57:35.560Z</time>
      </trkpt>
      <trkpt lat="48.959055" lon="2.327011">
        <ele>35.523338</ele>
        <time>2025-05-06T14:57:39.179Z</time>
      </trkpt>
      <trkpt lat="48.959034" lon="2.326974">
        <ele>35.481390</ele>
        <time>2025-05-06T14:57:39.771Z</time>
      </trkpt>
      <trkpt lat="48.958973" lon="2.326844">
        <ele>35.344342</ele>
        <time>2025-05-06T14:57:41.763Z</time>
      </trkpt>
      <trkpt lat="48.958965" lon="2.326707">
        <ele>35.226373</ele>
        <time>2025-05-06T14:57:43.477Z</time>
      </trkpt>
      <trkpt lat="48.959086" lon="2.326338">
        <ele>34.872605</ele>
        <time>2025-05-06T14:57:48.606Z</time>
      </trkpt>
      <trkpt lat="48.959055" lon="2.326042">
        <ele>34.615514</ele>
        <time>2025-05-06T14:57:52.396Z</time>
      </trkpt>
      <trkpt lat="48.959021" lon="2.326057">
        <ele>34.569275</ele>
        <time>2025-05-06T14:57:53.604Z</time>
      </trkpt>
      <trkpt lat="48.958995" lon="2.326133">
        <ele>34.495772</ele>
        <time>2025-05-06T14:57:55.484Z</time>
      </trkpt>
      <trkpt lat="48.958995" lon="2.326418">
        <ele>34.251325</ele>
        <time>2025-05-06T14:57:59.080Z</time>
      </trkpt>
      <trkpt lat="48.958969" lon="2.326419">
        <ele>34.217351</ele>
        <time>2025-05-06T14:57:59.574Z</time>
      </trkpt>
      <trkpt lat="48.958970" lon="2.325932">
        <ele>34.148532</ele>
        <time>2025-05-06T14:58:05.962Z</time>
      </trkpt>
      <trkpt lat="48.958943" lon="2.325934">
        <ele>34.152366</ele>
        <time>2025-05-06T14:58:06.536Z</time>
      </trkpt>
      <trkpt lat="48.958941" lon="2.326581">
        <ele>34.212621</ele>
        <time>2025-05-06T14:58:15.884Z</time>
      </trkpt>
      <trkpt lat="48.958914" lon="2.326582">
        <ele>34.216451</ele>
        <time>2025-05-06T14:58:16.534Z</time>
      </trkpt>
      <trkpt lat="48.958914" lon="2.326154">
        <ele>34.256310</ele>
        <time>2025-05-06T14:58:23.366Z</time>
      </trkpt>
      <trkpt lat="48.958649" lon="2.326143">
        <ele>34.293910</ele>
        <time>2025-05-06T14:58:30.089Z</time>
      </trkpt>
      <trkpt lat="48.958721" lon="2.324927">
        <ele>34.650324</ele>
        <time>2025-05-06T14:58:50.956Z</time>
      </trkpt>
      <trkpt lat="48.958702" lon="2.324921">
        <ele>34.670588</ele>
        <time>2025-05-06T14:58:51.483Z</time>
      </trkpt>
      <trkpt lat="48.958646" lon="2.324861">
        <ele>34.742091</ele>
        <time>2025-05-06T14:58:53.399Z</time>
      </trkpt>
      <trkpt lat="48.958692" lon="2.324653">
        <ele>34.892589</ele>
        <time>2025-05-06T14:58:57.495Z</time>
      </trkpt>
      <trkpt lat="48.958856" lon="2.322756">
        <ele>36.204581</ele>
        <time>2025-05-06T14:59:32.767Z</time>
      </trkpt>
      <trkpt lat="48.958858" lon="2.322588">
        <ele>36.294358</ele>
        <time>2025-05-06T14:59:35.734Z</time>
      </trkpt>
      <trkpt lat="48.958758" lon="2.322417">
        <ele>36.395889</ele>
        <time>2025-05-06T14:59:39.739Z</time>
      </trkpt>
      <trkpt lat="48.958758" lon="2.322332">
        <ele>36.433576</ele>
        <time>2025-05-06T14:59:41.211Z</time>
      </trkpt>
      <trkpt lat="48.958877" lon="2.322090">
        <ele>36.567630</ele>
        <time>2025-05-06T14:59:46.451Z</time>
      </trkpt>
      <trkpt lat="48.958872" lon="2.320791">
        <ele>37.143596</ele>
        <time>2025-05-06T15:00:08.308Z</time>
      </trkpt>
      <trkpt lat="48.958840" lon="2.320656">
        <ele>37.207234</ele>
        <time>2025-05-06T15:00:10.657Z</time>
      </trkpt>
      <trkpt lat="48.958474" lon="2.320060">
        <ele>37.426878</ele>
        <time>2025-05-06T15:00:23.683Z</time>
      </trkpt>
      <trkpt lat="48.958395" lon="2.319983">
        <ele>37.405796</ele>
        <time>2025-05-06T15:00:25.903Z</time>
      </trkpt>
      <trkpt lat="48.958494" lon="2.319713">
        <ele>37.360155</ele>
        <time>2025-05-06T15:00:30.891Z</time>
      </trkpt>
      <trkpt lat="48.958421" lon="2.317871">
        <ele>37.087804</ele>
        <time>2025-05-06T15:00:57.955Z</time>
      </trkpt>
      <trkpt lat="48.958274" lon="2.317758">
        <ele>37.025847</ele>
        <time>2025-05-06T15:01:01.427Z</time>
      </trkpt>
      <trkpt lat="48.958226" lon="2.317766">
        <ele>36.977935</ele>
        <time>2025-05-06T15:01:02.436Z</time>
      </trkpt>
      <trkpt lat="48.958188" lon="2.317816">
        <ele>36.928107</ele>
        <time>2025-05-06T15:01:03.508Z</time>
      </trkpt>
      <trkpt lat="48.958188" lon="2.317722">
        <ele>36.866865</ele>
        <time>2025-05-06T15:01:04.874Z</time>
      </trkpt>
      <trkpt lat="48.958184" lon="2.317028">
        <ele>36.414699</ele>
        <time>2025-05-06T15:01:14.980Z</time>
      </trkpt>
      <trkpt lat="48.958223" lon="2.316673">
        <ele>36.180198</ele>
        <time>2025-05-06T15:01:20.152Z</time>
      </trkpt>
      <trkpt lat="48.958199" lon="2.316424">
        <ele>36.016234</ele>
        <time>2025-05-06T15:01:23.766Z</time>
      </trkpt>
      <trkpt lat="48.958237" lon="2.315979">
        <ele>35.723870</ele>
        <time>2025-05-06T15:01:30.274Z</time>
      </trkpt>
      <trkpt lat="48.958228" lon="2.315117">
        <ele>35.266689</ele>
        <time>2025-05-06T15:01:42.883Z</time>
      </trkpt>
      <trkpt lat="48.958261" lon="2.314819">
        <ele>35.254768</ele>
        <time>2025-05-06T15:01:47.277Z</time>
      </trkpt>
      <trkpt lat="48.958222" lon="2.313948">
        <ele>35.220331</ele>
        <time>2025-05-06T15:02:00.527Z</time>
      </trkpt>
      <trkpt lat="48.958201" lon="2.313414">
        <ele>35.199230</ele>
        <time>2025-05-06T15:02:09.165Z</time>
      </trkpt>
      <trkpt lat="48.958139" lon="2.313291">
        <ele>35.193113</ele>
        <time>2025-05-06T15:02:11.902Z</time>
      </trkpt>
      <trkpt lat="48.958058" lon="2.313210">
        <ele>35.187292</ele>
        <time>2025-05-06T15:02:14.579Z</time>
      </trkpt>
      <trkpt lat="48.957929" lon="2.313107">
        <ele>35.178542</ele>
        <time>2025-05-06T15:02:18.843Z</time>
      </trkpt>
      <trkpt lat="48.957670" lon="2.312978">
        <ele>35.233909</ele>
        <time>2025-05-06T15:02:27.002Z</time>
      </trkpt>
      <trkpt lat="48.957578" lon="2.312894">
        <ele>35.371982</ele>
        <time>2025-05-06T15:02:30.276Z</time>
      </trkpt>
      <trkpt lat="48.957335" lon="2.312506">
        <ele>35.825167</ele>
        <time>2025-05-06T15:02:41.323Z</time>
      </trkpt>
      <trkpt lat="48.957209" lon="2.312387">
        <ele>36.016007</ele>
        <time>2025-05-06T15:02:46.186Z</time>
      </trkpt>
      <trkpt lat="48.957043" lon="2.312314">
        <ele>36.238410</ele>
        <time>2025-05-06T15:02:51.915Z</time>
      </trkpt>
      <trkpt lat="48.956491" lon="2.311043">
        <ele>37.516349</ele>
        <time>2025-05-06T15:03:28.272Z</time>
      </trkpt>
      <trkpt lat="48.956602" lon="2.310932">
        <ele>37.649850</ele>
        <time>2025-05-06T15:03:31.975Z</time>
      </trkpt>
      <trkpt lat="48.957254" lon="2.310257">
        <ele>38.442449</ele>
        <time>2025-05-06T15:03:53.048Z</time>
      </trkpt>
      <trkpt lat="48.957167" lon="2.310054">
        <ele>38.602474</ele>
        <time>2025-05-06T15:03:58.181Z</time>
      </trkpt>
      <trkpt lat="48.957113" lon="2.309936">
        <ele>38.697421</ele>
        <time>2025-05-06T15:04:01.362Z</time>
      </trkpt>
      <trkpt lat="48.957151" lon="2.309896">
        <ele>38.743862</ele>
        <time>2025-05-06T15:04:02.542Z</time>
      </trkpt>
      <trkpt lat="48.957172" lon="2.309874">
        <ele>38.769487</ele>
        <time>2025-05-06T15:04:03.177Z</time>
      </trkpt>
      <trkpt lat="48.957164" lon="2.309809">
        <ele>38.813143</ele>
        <time>2025-05-06T15:04:04.398Z</time>
      </trkpt>
      <trkpt lat="48.957065" lon="2.309600">
        <ele>38.983264</ele>
        <time>2025-05-06T15:04:08.968Z</time>
      </trkpt>
      <trkpt lat="48.956846" lon="2.309308">
        <ele>39.275892</ele>
        <time>2025-05-06T15:04:17.048Z</time>
      </trkpt>
      <trkpt lat="48.956540" lon="2.309021">
        <ele>39.624171</ele>
        <time>2025-05-06T15:04:27.366Z</time>
      </trkpt>
      <trkpt lat="48.956454" lon="2.308935">
        <ele>39.723739</ele>
        <time>2025-05-06T15:04:30.278Z</time>
      </trkpt>
      <trkpt lat="48.956414" lon="2.308868">
        <ele>39.781283</ele>
        <time>2025-05-06T15:04:31.907Z</time>
      </trkpt>
      <trkpt lat="48.956240" lon="2.308728">
        <ele>39.971733</ele>
        <time>2025-05-06T15:04:37.248Z</time>
      </trkpt>
      <trkpt lat="48.955691" lon="2.308409">
        <ele>40.540403</ele>
        <time>2025-05-06T15:04:52.915Z</time>
      </trkpt>
      <trkpt lat="48.955544" lon="2.308343">
        <ele>40.688720</ele>
        <time>2025-05-06T15:04:57.127Z</time>
      </trkpt>
      <trkpt lat="48.954904" lon="2.308149">
        <ele>40.874299</ele>
        <time>2025-05-06T15:05:15.114Z</time>
      </trkpt>
      <trkpt lat="48.954872" lon="2.308126">
        <ele>40.856018</ele>
        <time>2025-05-06T15:05:16.029Z</time>
      </trkpt>
      <trkpt lat="48.954881" lon="2.308033">
        <ele>40.824127</ele>
        <time>2025-05-06T15:05:17.569Z</time>
      </trkpt>
      <trkpt lat="48.954894" lon="2.307907">
        <ele>40.780857</ele>
        <time>2025-05-06T15:05:19.616Z</time>
      </trkpt>
      <trkpt lat="48.954907" lon="2.307784">
        <ele>40.738592</ele>
        <time>2025-05-06T15:05:21.512Z</time>
      </trkpt>
      <trkpt lat="48.954808" lon="2.307758">
        <ele>40.686690</ele>
        <time>2025-05-06T15:05:23.867Z</time>
      </trkpt>
      <trkpt lat="48.954698" lon="2.307730">
        <ele>40.629072</ele>
        <time>2025-05-06T15:05:26.402Z</time>
      </trkpt>
      <trkpt lat="48.954624" lon="2.307875">
        <ele>40.566771</ele>
        <time>2025-05-06T15:05:29.043Z</time>
      </trkpt>
      <trkpt lat="48.954488" lon="2.307842">
        <ele>40.495622</ele>
        <time>2025-05-06T15:05:32.038Z</time>
      </trkpt>
      <trkpt lat="48.954237" lon="2.307779">
        <ele>40.364197</ele>
        <time>2025-05-06T15:05:37.484Z</time>
      </trkpt>
      <trkpt lat="48.954160" lon="2.307754">
        <ele>40.323522</ele>
        <time>2025-05-06T15:05:39.069Z</time>
      </trkpt>
      <trkpt lat="48.953914" lon="2.307677">
        <ele>40.193773</ele>
        <time>2025-05-06T15:05:43.973Z</time>
      </trkpt>
      <trkpt lat="48.953215" lon="2.307480">
        <ele>37.732520</ele>
        <time>2025-05-06T15:05:56.343Z</time>
      </trkpt>
      <trkpt lat="48.952584" lon="2.307309">
        <ele>34.868602</ele>
        <time>2025-05-06T15:06:06.197Z</time>
      </trkpt>
      <trkpt lat="48.952483" lon="2.307282">
        <ele>34.410382</ele>
        <time>2025-05-06T15:06:07.776Z</time>
      </trkpt>
      <trkpt lat="48.952235" lon="2.307214">
        <ele>33.284375</ele>
        <time>2025-05-06T15:06:11.730Z</time>
      </trkpt>
      <trkpt lat="48.952138" lon="2.307190">
        <ele>32.845247</ele>
        <time>2025-05-06T15:06:13.272Z</time>
      </trkpt>
      <trkpt lat="48.952039" lon="2.307162">
        <ele>32.395301</ele>
        <time>2025-05-06T15:06:14.848Z</time>
      </trkpt>
      <trkpt lat="48.951821" lon="2.307103">
        <ele>31.882555</ele>
        <time>2025-05-06T15:06:18.514Z</time>
      </trkpt>
      <trkpt lat="48.951713" lon="2.307124">
        <ele>31.748930</ele>
        <time>2025-05-06T15:06:20.324Z</time>
      </trkpt>
      <trkpt lat="48.951075" lon="2.306944">
        <ele>30.952587</ele>
        <time>2025-05-06T15:06:32.395Z</time>
      </trkpt>
      <trkpt lat="48.951006" lon="2.306863">
        <ele>30.845660</ele>
        <time>2025-05-06T15:06:34.322Z</time>
      </trkpt>
      <trkpt lat="48.950733" lon="2.306771">
        <ele>30.502501</ele>
        <time>2025-05-06T15:06:43.350Z</time>
      </trkpt>
      <trkpt lat="48.950704" lon="2.306763">
        <ele>30.466330</ele>
        <time>2025-05-06T15:06:44.202Z</time>
      </trkpt>
      <trkpt lat="48.950505" lon="2.306712">
        <ele>30.218662</ele>
        <time>2025-05-06T15:06:50.675Z</time>
      </trkpt>
      <trkpt lat="48.950491" lon="2.306849">
        <ele>30.106914</ele>
        <time>2025-05-06T15:06:53.326Z</time>
      </trkpt>
      <trkpt lat="48.950500" lon="2.306957">
        <ele>30.019170</ele>
        <time>2025-05-06T15:06:55.544Z</time>
      </trkpt>
      <trkpt lat="48.950509" lon="2.307616">
        <ele>29.748706</ele>
        <time>2025-05-06T15:07:07.129Z</time>
      </trkpt>
      <trkpt lat="48.950418" lon="2.307610">
        <ele>29.716213</ele>
        <time>2025-05-06T15:07:09.480Z</time>
      </trkpt>
      <trkpt lat="48.950203" lon="2.307661">
        <ele>29.638592</ele>
        <time>2025-05-06T15:07:15.163Z</time>
      </trkpt>
      <trkpt lat="48.950037" lon="2.307876">
        <ele>29.560852</ele>
        <time>2025-05-06T15:07:20.593Z</time>
      </trkpt>
      <trkpt lat="48.949925" lon="2.307902">
        <ele>29.520437</ele>
        <time>2025-05-06T15:07:23.028Z</time>
      </trkpt>
      <trkpt lat="48.949790" lon="2.307828">
        <ele>29.469254</ele>
        <time>2025-05-06T15:07:25.913Z</time>
      </trkpt>
      <trkpt lat="48.949756" lon="2.307824">
        <ele>29.457089</ele>
        <time>2025-05-06T15:07:26.566Z</time>
      </trkpt>
      <trkpt lat="48.949717" lon="2.307867">
        <ele>29.439912</ele>
        <time>2025-05-06T15:07:27.520Z</time>
      </trkpt>
      <trkpt lat="48.949287" lon="2.309143">
        <ele>28.937876</ele>
        <time>2025-05-06T15:07:44.978Z</time>
      </trkpt>
      <trkpt lat="48.949135" lon="2.310059">
        <ele>28.382485</ele>
        <time>2025-05-06T15:07:56.746Z</time>
      </trkpt>
      <trkpt lat="48.949002" lon="2.310233">
        <ele>28.225528</ele>
        <time>2025-05-06T15:08:00.193Z</time>
      </trkpt>
      <trkpt lat="48.948910" lon="2.310410">
        <ele>28.092833</ele>
        <time>2025-05-06T15:08:03.215Z</time>
      </trkpt>
      <trkpt lat="48.948718" lon="2.311103">
        <ele>27.650683</ele>
        <time>2025-05-06T15:08:13.999Z</time>
      </trkpt>
      <trkpt lat="48.948690" lon="2.311475">
        <ele>27.729376</ele>
        <time>2025-05-06T15:08:20.126Z</time>
      </trkpt>
      <trkpt lat="48.948594" lon="2.311725">
        <ele>27.852532</ele>
        <time>2025-05-06T15:08:25.207Z</time>
      </trkpt>
      <trkpt lat="48.948436" lon="2.312480">
        <ele>28.189515</ele>
        <time>2025-05-06T15:08:41.022Z</time>
      </trkpt>
      <trkpt lat="48.948420" lon="2.312650">
        <ele>28.262549</ele>
        <time>2025-05-06T15:08:44.102Z</time>
      </trkpt>
      <trkpt lat="48.948436" lon="2.313054">
        <ele>28.434669</ele>
        <time>2025-05-06T15:08:50.946Z</time>
      </trkpt>
      <trkpt lat="48.948560" lon="2.313335">
        <ele>28.578640</ele>
        <time>2025-05-06T15:08:56.348Z</time>
      </trkpt>
      <trkpt lat="48.948611" lon="2.313604">
        <ele>28.697708</ele>
        <time>2025-05-06T15:09:00.716Z</time>
      </trkpt>
      <trkpt lat="48.948585" lon="2.313736">
        <ele>28.756314</ele>
        <time>2025-05-06T15:09:02.790Z</time>
      </trkpt>
      <trkpt lat="48.948515" lon="2.313858">
        <ele>28.695166</ele>
        <time>2025-05-06T15:09:05.196Z</time>
      </trkpt>
      <trkpt lat="48.948414" lon="2.313865">
        <ele>28.610101</ele>
        <time>2025-05-06T15:09:07.625Z</time>
      </trkpt>
      <trkpt lat="48.948276" lon="2.313942">
        <ele>28.486444</ele>
        <time>2025-05-06T15:09:11.138Z</time>
      </trkpt>
      <trkpt lat="48.948169" lon="2.314076">
        <ele>28.369881</ele>
        <time>2025-05-06T15:09:14.416Z</time>
      </trkpt>
      <trkpt lat="48.948112" lon="2.314208">
        <ele>28.282590</ele>
        <time>2025-05-06T15:09:16.868Z</time>
      </trkpt>
      <trkpt lat="48.948025" lon="2.314583">
        <ele>28.062833</ele>
        <time>2025-05-06T15:09:22.603Z</time>
      </trkpt>
      <trkpt lat="48.947922" lon="2.315382">
        <ele>27.612915</ele>
        <time>2025-05-06T15:09:33.791Z</time>
      </trkpt>
      <trkpt lat="48.947926" lon="2.315841">
        <ele>27.359269</ele>
        <time>2025-05-06T15:09:40.493Z</time>
      </trkpt>
      <trkpt lat="48.947751" lon="2.316173">
        <ele>27.235520</ele>
        <time>2025-05-06T15:09:46.899Z</time>
      </trkpt>
      <trkpt lat="48.947702" lon="2.316297">
        <ele>27.223445</ele>
        <time>2025-05-06T15:09:49.126Z</time>
      </trkpt>
      <trkpt lat="48.947512" lon="2.317489">
        <ele>27.121099</ele>
        <time>2025-05-06T15:10:08.393Z</time>
      </trkpt>
      <trkpt lat="48.947481" lon="2.318089">
        <ele>27.070881</ele>
        <time>2025-05-06T15:10:19.073Z</time>
      </trkpt>
      <trkpt lat="48.947387" lon="2.318497">
        <ele>27.034804</ele>
        <time>2025-05-06T15:10:27.031Z</time>
      </trkpt>
      <trkpt lat="48.947283" lon="2.319114">
        <ele>27.004006</ele>
        <time>2025-05-06T15:10:37.837Z</time>
      </trkpt>
      <trkpt lat="48.947185" lon="2.319902">
        <ele>26.970195</ele>
        <time>2025-05-06T15:10:50.850Z</time>
      </trkpt>
      <trkpt lat="48.947026" lon="2.320353">
        <ele>26.948615</ele>
        <time>2025-05-06T15:10:58.939Z</time>
      </trkpt>
      <trkpt lat="48.946987" lon="2.320549">
        <ele>26.939982</ele>
        <time>2025-05-06T15:11:02.134Z</time>
      </trkpt>
      <trkpt lat="48.946378" lon="2.324312">
        <ele>26.408868</ele>
        <time>2025-05-06T15:12:03.150Z</time>
      </trkpt>
      <trkpt lat="48.946097" lon="2.325566">
        <ele>26.227672</ele>
        <time>2025-05-06T15:12:24.122Z</time>
      </trkpt>
      <trkpt lat="48.946078" lon="2.325882">
        <ele>26.184277</ele>
        <time>2025-05-06T15:12:29.100Z</time>
      </trkpt>
      <trkpt lat="48.945913" lon="2.326631">
        <ele>26.086107</ele>
        <time>2025-05-06T15:12:40.389Z</time>
      </trkpt>
      <trkpt lat="48.945754" lon="2.327355">
        <ele>26.031242</ele>
        <time>2025-05-06T15:12:51.764Z</time>
      </trkpt>
      <trkpt lat="48.945754" lon="2.327355">
        <ele>26.031242</ele>
        <time>2025-05-06T15:12:51.764Z</time>
      </trkpt>
      <trkpt lat="48.945716" lon="2.327507">
        <ele>26.019553</ele>
        <time>2025-05-06T15:12:54.133Z</time>
      </trkpt>
      <trkpt lat="48.945667" lon="2.327660">
        <ele>26.007319</ele>
        <time>2025-05-06T15:12:56.594Z</time>
      </trkpt>
      <trkpt lat="48.945399" lon="2.328695">
        <ele>25.927361</ele>
        <time>2025-05-06T15:13:12.518Z</time>
      </trkpt>
      <trkpt lat="48.945284" lon="2.328985">
        <ele>25.903015</ele>
        <time>2025-05-06T15:13:17.322Z</time>
      </trkpt>
      <trkpt lat="48.945066" lon="2.329671">
        <ele>25.815625</ele>
        <time>2025-05-06T15:13:28.046Z</time>
      </trkpt>
      <trkpt lat="48.944705" lon="2.330623">
        <ele>25.687032</ele>
        <time>2025-05-06T15:13:43.287Z</time>
      </trkpt>
      <trkpt lat="48.944333" lon="2.331712">
        <ele>25.630405</ele>
        <time>2025-05-06T15:14:01.566Z</time>
      </trkpt>
      <trkpt lat="48.944215" lon="2.331942">
        <ele>25.677792</ele>
        <time>2025-05-06T15:14:06.199Z</time>
      </trkpt>
      <trkpt lat="48.943856" lon="2.332638">
        <ele>25.821481</ele>
        <time>2025-05-06T15:14:20.462Z</time>
      </trkpt>
      <trkpt lat="48.943181" lon="2.333722">
        <ele>26.035689</ele>
        <time>2025-05-06T15:14:43.177Z</time>
      </trkpt>
      <trkpt lat="48.942837" lon="2.334173">
        <ele>26.067471</ele>
        <time>2025-05-06T15:14:54.148Z</time>
      </trkpt>
      <trkpt lat="48.942822" lon="2.334265">
        <ele>26.071830</ele>
        <time>2025-05-06T15:14:55.451Z</time>
      </trkpt>
      <trkpt lat="48.942841" lon="2.334322">
        <ele>26.074769</ele>
        <time>2025-05-06T15:14:56.387Z</time>
      </trkpt>
      <trkpt lat="48.942849" lon="2.334506">
        <ele>26.083249</ele>
        <time>2025-05-06T15:14:59.312Z</time>
      </trkpt>
      <trkpt lat="48.942877" lon="2.334578">
        <ele>26.087096</ele>
        <time>2025-05-06T15:15:00.675Z</time>
      </trkpt>
      <trkpt lat="48.942563" lon="2.335085">
        <ele>26.119140</ele>
        <time>2025-05-06T15:15:11.936Z</time>
      </trkpt>
      <trkpt lat="48.942541" lon="2.335123">
        <ele>26.121469</ele>
        <time>2025-05-06T15:15:12.684Z</time>
      </trkpt>
      <trkpt lat="48.942361" lon="2.334852">
        <ele>26.139192</ele>
        <time>2025-05-06T15:15:18.399Z</time>
      </trkpt>
      <trkpt lat="48.942299" lon="2.334753">
        <ele>26.145482</ele>
        <time>2025-05-06T15:15:20.396Z</time>
      </trkpt>
      <trkpt lat="48.942242" lon="2.334831">
        <ele>26.148865</ele>
        <time>2025-05-06T15:15:22.266Z</time>
      </trkpt>
      <trkpt lat="48.941781" lon="2.335418">
        <ele>25.995260</ele>
        <time>2025-05-06T15:15:36.712Z</time>
      </trkpt>
      <trkpt lat="48.941404" lon="2.335728">
        <ele>25.885745</ele>
        <time>2025-05-06T15:15:46.500Z</time>
      </trkpt>
      <trkpt lat="48.941376" lon="2.335805">
        <ele>25.870970</ele>
        <time>2025-05-06T15:15:47.912Z</time>
      </trkpt>
      <trkpt lat="48.941285" lon="2.335902">
        <ele>25.842577</ele>
        <time>2025-05-06T15:15:50.331Z</time>
      </trkpt>
      <trkpt lat="48.940942" lon="2.336133">
        <ele>25.746714</ele>
        <time>2025-05-06T15:15:58.897Z</time>
      </trkpt>
      <trkpt lat="48.940329" lon="2.336381">
        <ele>25.820127</ele>
        <time>2025-05-06T15:16:13.460Z</time>
      </trkpt>
      <trkpt lat="48.940098" lon="2.336455">
        <ele>25.893723</ele>
        <time>2025-05-06T15:16:18.950Z</time>
      </trkpt>
      <trkpt lat="48.939972" lon="2.336495">
        <ele>25.933851</ele>
        <time>2025-05-06T15:16:21.948Z</time>
      </trkpt>
      <trkpt lat="48.938306" lon="2.336982">
        <ele>26.896986</ele>
        <time>2025-05-06T15:17:04.313Z</time>
      </trkpt>
      <trkpt lat="48.938010" lon="2.337051">
        <ele>27.182221</ele>
        <time>2025-05-06T15:17:12.582Z</time>
      </trkpt>
      <trkpt lat="48.937955" lon="2.337061">
        <ele>27.234983</ele>
        <time>2025-05-06T15:17:14.129Z</time>
      </trkpt>
      <trkpt lat="48.937888" lon="2.337074">
        <ele>27.299319</ele>
        <time>2025-05-06T15:17:16.026Z</time>
      </trkpt>
      <trkpt lat="48.937707" lon="2.337114">
        <ele>27.473534</ele>
        <time>2025-05-06T15:17:21.227Z</time>
      </trkpt>
      <trkpt lat="48.937540" lon="2.337194">
        <ele>27.640297</ele>
        <time>2025-05-06T15:17:26.246Z</time>
      </trkpt>
      <trkpt lat="48.937113" lon="2.337465">
        <ele>28.065331</ele>
        <time>2025-05-06T15:17:39.851Z</time>
      </trkpt>
      <trkpt lat="48.935742" lon="2.338593">
        <ele>29.350179</ele>
        <time>2025-05-06T15:18:21.324Z</time>
      </trkpt>
      <trkpt lat="48.935707" lon="2.338611">
        <ele>29.380637</ele>
        <time>2025-05-06T15:18:22.128Z</time>
      </trkpt>
      <trkpt lat="48.935142" lon="2.338919">
        <ele>29.448619</ele>
        <time>2025-05-06T15:18:35.573Z</time>
      </trkpt>
      <trkpt lat="48.935006" lon="2.338980">
        <ele>29.448890</ele>
        <time>2025-05-06T15:18:38.772Z</time>
      </trkpt>
      <trkpt lat="48.935046" lon="2.339273">
        <ele>29.449265</ele>
        <time>2025-05-06T15:18:43.262Z</time>
      </trkpt>
      <trkpt lat="48.934882" lon="2.339321">
        <ele>29.449584</ele>
        <time>2025-05-06T15:18:47.063Z</time>
      </trkpt>
      <trkpt lat="48.934767" lon="2.339356">
        <ele>29.449807</ele>
        <time>2025-05-06T15:18:49.765Z</time>
      </trkpt>
      <trkpt lat="48.934413" lon="2.339453">
        <ele>29.450494</ele>
        <time>2025-05-06T15:18:57.906Z</time>
      </trkpt>
      <trkpt lat="48.933746" lon="2.339660">
        <ele>28.881834</ele>
        <time>2025-05-06T15:19:12.389Z</time>
      </trkpt>
      <trkpt lat="48.933683" lon="2.339681">
        <ele>28.786056</ele>
        <time>2025-05-06T15:19:13.621Z</time>
      </trkpt>
      <trkpt lat="48.933205" lon="2.339815">
        <ele>28.064244</ele>
        <time>2025-05-06T15:19:22.610Z</time>
      </trkpt>
      <trkpt lat="48.933047" lon="2.339898">
        <ele>27.816019</ele>
        <time>2025-05-06T15:19:25.634Z</time>
      </trkpt>
      <trkpt lat="48.933037" lon="2.339914">
        <ele>27.794473</ele>
        <time>2025-05-06T15:19:25.898Z</time>
      </trkpt>
      <trkpt lat="48.932967" lon="2.340680">
        <ele>27.039953</ele>
        <time>2025-05-06T15:19:34.963Z</time>
      </trkpt>
      <trkpt lat="48.932068" lon="2.340273">
        <ele>26.699252</ele>
        <time>2025-05-06T15:19:53.286Z</time>
      </trkpt>
      <trkpt lat="48.931994" lon="2.340142">
        <ele>26.687251</ele>
        <time>2025-05-06T15:19:56.119Z</time>
      </trkpt>
      <trkpt lat="48.931812" lon="2.340032">
        <ele>26.666545</ele>
        <time>2025-05-06T15:20:01.339Z</time>
      </trkpt>
      <trkpt lat="48.931597" lon="2.339950">
        <ele>26.643110</ele>
        <time>2025-05-06T15:20:07.496Z</time>
      </trkpt>
      <trkpt lat="48.931549" lon="2.339889">
        <ele>26.636498</ele>
        <time>2025-05-06T15:20:09.225Z</time>
      </trkpt>
      <trkpt lat="48.931178" lon="2.339686">
        <ele>26.594813</ele>
        <time>2025-05-06T15:20:20.158Z</time>
      </trkpt>
      <trkpt lat="48.930529" lon="2.339175">
        <ele>26.577916</ele>
        <time>2025-05-06T15:20:38.554Z</time>
      </trkpt>
      <trkpt lat="48.928793" lon="2.337483">
        <ele>26.375231</ele>
        <time>2025-05-06T15:21:21.656Z</time>
      </trkpt>
      <trkpt lat="48.927469" lon="2.336146">
        <ele>26.423013</ele>
        <time>2025-05-06T15:21:58.236Z</time>
      </trkpt>
      <trkpt lat="48.926141" lon="2.334943">
        <ele>27.167624</ele>
        <time>2025-05-06T15:22:35.751Z</time>
      </trkpt>
      <trkpt lat="48.925944" lon="2.334674">
        <ele>27.407048</ele>
        <time>2025-05-06T15:22:42.466Z</time>
      </trkpt>
      <trkpt lat="48.925918" lon="2.334713">
        <ele>27.440072</ele>
        <time>2025-05-06T15:22:43.349Z</time>
      </trkpt>
      <trkpt lat="48.925871" lon="2.334774">
        <ele>27.495949</ele>
        <time>2025-05-06T15:22:44.959Z</time>
      </trkpt>
      <trkpt lat="48.925553" lon="2.334309">
        <ele>27.894880</ele>
        <time>2025-05-06T15:22:57.137Z</time>
      </trkpt>
      <trkpt lat="48.925415" lon="2.334192">
        <ele>28.037782</ele>
        <time>2025-05-06T15:23:01.576Z</time>
      </trkpt>
      <trkpt lat="48.925296" lon="2.334110">
        <ele>28.155953</ele>
        <time>2025-05-06T15:23:05.448Z</time>
      </trkpt>
      <trkpt lat="48.924912" lon="2.333891">
        <ele>28.583696</ele>
        <time>2025-05-06T15:23:17.042Z</time>
      </trkpt>
      <trkpt lat="48.924740" lon="2.333718">
        <ele>28.833018</ele>
        <time>2025-05-06T15:23:23.333Z</time>
      </trkpt>
      <trkpt lat="48.924717" lon="2.333694">
        <ele>28.866742</ele>
        <time>2025-05-06T15:23:24.090Z</time>
      </trkpt>
      <trkpt lat="48.924735" lon="2.333628">
        <ele>28.923523</ele>
        <time>2025-05-06T15:23:25.687Z</time>
      </trkpt>
      <trkpt lat="48.924760" lon="2.333566">
        <ele>28.981324</ele>
        <time>2025-05-06T15:23:27.330Z</time>
      </trkpt>
      <trkpt lat="48.924695" lon="2.333501">
        <ele>29.075379</ele>
        <time>2025-05-06T15:23:29.635Z</time>
      </trkpt>
      <trkpt lat="48.924050" lon="2.332893">
        <ele>29.992885</ele>
        <time>2025-05-06T15:23:52.401Z</time>
      </trkpt>
      <trkpt lat="48.923630" lon="2.332486">
        <ele>30.511741</ele>
        <time>2025-05-06T15:24:05.336Z</time>
      </trkpt>
      <trkpt lat="48.923522" lon="2.332417">
        <ele>30.461659</ele>
        <time>2025-05-06T15:24:08.161Z</time>
      </trkpt>
      <trkpt lat="48.922912" lon="2.331830">
        <ele>30.153076</ele>
        <time>2025-05-06T15:24:23.837Z</time>
      </trkpt>
      <trkpt lat="48.922786" lon="2.331719">
        <ele>30.090826</ele>
        <time>2025-05-06T15:24:26.830Z</time>
      </trkpt>
      <trkpt lat="48.922558" lon="2.331561">
        <ele>29.983709</ele>
        <time>2025-05-06T15:24:31.878Z</time>
      </trkpt>
      <trkpt lat="48.921584" lon="2.330629">
        <ele>29.103782</ele>
        <time>2025-05-06T15:24:54.406Z</time>
      </trkpt>
      <trkpt lat="48.921534" lon="2.330586">
        <ele>29.044284</ele>
        <time>2025-05-06T15:24:55.596Z</time>
      </trkpt>
      <trkpt lat="48.921174" lon="2.330271">
        <ele>28.614078</ele>
        <time>2025-05-06T15:25:03.949Z</time>
      </trkpt>
      <trkpt lat="48.921083" lon="2.330190">
        <ele>28.504862</ele>
        <time>2025-05-06T15:25:06.073Z</time>
      </trkpt>
      <trkpt lat="48.920608" lon="2.329734">
        <ele>27.923039</ele>
        <time>2025-05-06T15:25:17.779Z</time>
      </trkpt>
      <trkpt lat="48.920124" lon="2.329303">
        <ele>28.237310</ele>
        <time>2025-05-06T15:25:30.447Z</time>
      </trkpt>
      <trkpt lat="48.920019" lon="2.329297">
        <ele>28.302788</ele>
        <time>2025-05-06T15:25:32.879Z</time>
      </trkpt>
      <trkpt lat="48.919746" lon="2.328912">
        <ele>28.534729</ele>
        <time>2025-05-06T15:25:41.837Z</time>
      </trkpt>
      <trkpt lat="48.919171" lon="2.328029">
        <ele>29.123928</ele>
        <time>2025-05-06T15:26:05.158Z</time>
      </trkpt>
      <trkpt lat="48.919121" lon="2.328099">
        <ele>29.321480</ele>
        <time>2025-05-06T15:26:07.414Z</time>
      </trkpt>
      <trkpt lat="48.918683" lon="2.328749">
        <ele>31.100406</ele>
        <time>2025-05-06T15:26:29.233Z</time>
      </trkpt>
      <trkpt lat="48.918241" lon="2.329417">
        <ele>32.911754</ele>
        <time>2025-05-06T15:26:54.632Z</time>
      </trkpt>
      <trkpt lat="48.918218" lon="2.329457">
        <ele>33.013314</ele>
        <time>2025-05-06T15:26:56.097Z</time>
      </trkpt>
      <trkpt lat="48.918085" lon="2.329470">
        <ele>33.400840</ele>
        <time>2025-05-06T15:27:01.753Z</time>
      </trkpt>
      <trkpt lat="48.917927" lon="2.329543">
        <ele>33.880972</ele>
        <time>2025-05-06T15:27:08.345Z</time>
      </trkpt>
      <trkpt lat="48.917821" lon="2.329612">
        <ele>34.216208</ele>
        <time>2025-05-06T15:27:12.766Z</time>
      </trkpt>
      <trkpt lat="48.917765" lon="2.329687">
        <ele>34.339176</ele>
        <time>2025-05-06T15:27:15.584Z</time>
      </trkpt>
      <trkpt lat="48.917038" lon="2.330029">
        <ele>35.404707</ele>
        <time>2025-05-06T15:27:41.874Z</time>
      </trkpt>
      <trkpt lat="48.916885" lon="2.330101">
        <ele>35.628960</ele>
        <time>2025-05-06T15:27:46.484Z</time>
      </trkpt>
      <trkpt lat="48.916735" lon="2.330173">
        <ele>35.849202</ele>
        <time>2025-05-06T15:27:50.710Z</time>
      </trkpt>
      <trkpt lat="48.916548" lon="2.330266">
        <ele>36.124683</ele>
        <time>2025-05-06T15:27:55.866Z</time>
      </trkpt>
      <trkpt lat="48.916386" lon="2.330359">
        <ele>36.367133</ele>
        <time>2025-05-06T15:28:00.074Z</time>
      </trkpt>
      <trkpt lat="48.916059" lon="2.330649">
        <ele>36.776693</ele>
        <time>2025-05-06T15:28:08.563Z</time>
      </trkpt>
      <trkpt lat="48.915736" lon="2.330945">
        <ele>36.802523</ele>
        <time>2025-05-06T15:28:17.004Z</time>
      </trkpt>
      <trkpt lat="48.915714" lon="2.330966">
        <ele>36.804302</ele>
        <time>2025-05-06T15:28:17.602Z</time>
      </trkpt>
      <trkpt lat="48.915311" lon="2.331331">
        <ele>36.836430</ele>
        <time>2025-05-06T15:28:28.825Z</time>
      </trkpt>
      <trkpt lat="48.914500" lon="2.332082">
        <ele>36.924323</ele>
        <time>2025-05-06T15:28:51.460Z</time>
      </trkpt>
      <trkpt lat="48.914425" lon="2.332168">
        <ele>36.949726</ele>
        <time>2025-05-06T15:28:53.693Z</time>
      </trkpt>
      <trkpt lat="48.914352" lon="2.332169">
        <ele>36.969474</ele>
        <time>2025-05-06T15:28:55.362Z</time>
      </trkpt>
      <trkpt lat="48.914321" lon="2.332182">
        <ele>36.978172</ele>
        <time>2025-05-06T15:28:56.181Z</time>
      </trkpt>
      <trkpt lat="48.914189" lon="2.332309">
        <ele>37.020418</ele>
        <time>2025-05-06T15:28:59.989Z</time>
      </trkpt>
      <trkpt lat="48.914035" lon="2.332499">
        <ele>37.074049</ele>
        <time>2025-05-06T15:29:05.058Z</time>
      </trkpt>
      <trkpt lat="48.913653" lon="2.333116">
        <ele>37.224743</ele>
        <time>2025-05-06T15:29:18.820Z</time>
      </trkpt>
      <trkpt lat="48.913253" lon="2.333762">
        <ele>37.376601</ele>
        <time>2025-05-06T15:29:33.492Z</time>
      </trkpt>
      <trkpt lat="48.912808" lon="2.334593">
        <ele>37.070004</ele>
        <time>2025-05-06T15:29:50.824Z</time>
      </trkpt>
      <trkpt lat="48.912713" lon="2.334740">
        <ele>37.011036</ele>
        <time>2025-05-06T15:29:53.779Z</time>
      </trkpt>
      <trkpt lat="48.912530" lon="2.334534">
        <ele>36.911966</ele>
        <time>2025-05-06T15:29:58.342Z</time>
      </trkpt>
      <trkpt lat="48.912029" lon="2.333830">
        <ele>36.615168</ele>
        <time>2025-05-06T15:30:11.937Z</time>
      </trkpt>
      <trkpt lat="48.911992" lon="2.333776">
        <ele>36.589490</ele>
        <time>2025-05-06T15:30:12.915Z</time>
      </trkpt>
      <trkpt lat="48.911876" lon="2.333609">
        <ele>36.469284</ele>
        <time>2025-05-06T15:30:16.036Z</time>
      </trkpt>
      <trkpt lat="48.911845" lon="2.333564">
        <ele>36.437034</ele>
        <time>2025-05-06T15:30:16.823Z</time>
      </trkpt>
      <trkpt lat="48.911791" lon="2.333631">
        <ele>36.384585</ele>
        <time>2025-05-06T15:30:18.133Z</time>
      </trkpt>
      <trkpt lat="48.911650" lon="2.333742">
        <ele>36.265087</ele>
        <time>2025-05-06T15:30:21.182Z</time>
      </trkpt>
      <trkpt lat="48.911501" lon="2.333700">
        <ele>36.151022</ele>
        <time>2025-05-06T15:30:24.186Z</time>
      </trkpt>
      <trkpt lat="48.911404" lon="2.333665">
        <ele>36.075982</ele>
        <time>2025-05-06T15:30:26.184Z</time>
      </trkpt>
      <trkpt lat="48.910800" lon="2.333448">
        <ele>35.608832</ele>
        <time>2025-05-06T15:30:38.704Z</time>
      </trkpt>
      <trkpt lat="48.910390" lon="2.333314">
        <ele>35.293175</ele>
        <time>2025-05-06T15:30:47.619Z</time>
      </trkpt>
      <trkpt lat="48.909765" lon="2.333091">
        <ele>35.240479</ele>
        <time>2025-05-06T15:31:02.140Z</time>
      </trkpt>
      <trkpt lat="48.908553" lon="2.332690">
        <ele>35.242407</ele>
        <time>2025-05-06T15:31:29.989Z</time>
      </trkpt>
      <trkpt lat="48.908406" lon="2.332640">
        <ele>35.314605</ele>
        <time>2025-05-06T15:31:33.485Z</time>
      </trkpt>
      <trkpt lat="48.907893" lon="2.332468">
        <ele>35.566390</ele>
        <time>2025-05-06T15:31:45.402Z</time>
      </trkpt>
      <trkpt lat="48.906582" lon="2.332008">
        <ele>36.230383</ele>
        <time>2025-05-06T15:32:20.007Z</time>
      </trkpt>
      <trkpt lat="48.906532" lon="2.331993">
        <ele>36.258863</ele>
        <time>2025-05-06T15:32:21.465Z</time>
      </trkpt>
      <trkpt lat="48.906367" lon="2.331945">
        <ele>36.352742</ele>
        <time>2025-05-06T15:32:26.218Z</time>
      </trkpt>
      <trkpt lat="48.906252" lon="2.331902">
        <ele>36.418921</ele>
        <time>2025-05-06T15:32:29.458Z</time>
      </trkpt>
      <trkpt lat="48.905884" lon="2.331787">
        <ele>36.628869</ele>
        <time>2025-05-06T15:32:39.287Z</time>
      </trkpt>
      <trkpt lat="48.905815" lon="2.331757">
        <ele>36.668972</ele>
        <time>2025-05-06T15:32:41.025Z</time>
      </trkpt>
      <trkpt lat="48.905730" lon="2.331724">
        <ele>36.717996</ele>
        <time>2025-05-06T15:32:43.238Z</time>
      </trkpt>
      <trkpt lat="48.904734" lon="2.331392">
        <ele>37.308898</ele>
        <time>2025-05-06T15:33:07.175Z</time>
      </trkpt>
      <trkpt lat="48.904491" lon="2.331308">
        <ele>37.463895</ele>
        <time>2025-05-06T15:33:12.446Z</time>
      </trkpt>
      <trkpt lat="48.903654" lon="2.331027">
        <ele>37.997030</ele>
        <time>2025-05-06T15:33:33.939Z</time>
      </trkpt>
      <trkpt lat="48.903610" lon="2.330952">
        <ele>38.038130</ele>
        <time>2025-05-06T15:33:36.023Z</time>
      </trkpt>
      <trkpt lat="48.902262" lon="2.330481">
        <ele>40.046546</ele>
        <time>2025-05-06T15:34:18.484Z</time>
      </trkpt>
      <trkpt lat="48.901642" lon="2.330277">
        <ele>41.108750</ele>
        <time>2025-05-06T15:34:40.145Z</time>
      </trkpt>
      <trkpt lat="48.901056" lon="2.330077">
        <ele>42.154323</ele>
        <time>2025-05-06T15:34:58.957Z</time>
      </trkpt>
      <trkpt lat="48.900954" lon="2.330126">
        <ele>42.341537</ele>
        <time>2025-05-06T15:35:02.230Z</time>
      </trkpt>
      <trkpt lat="48.900905" lon="2.329967">
        <ele>42.543579</ele>
        <time>2025-05-06T15:35:05.951Z</time>
      </trkpt>
      <trkpt lat="48.900825" lon="2.329837">
        <ele>42.748461</ele>
        <time>2025-05-06T15:35:09.776Z</time>
      </trkpt>
      <trkpt lat="48.900460" lon="2.329685">
        <ele>43.410803</ele>
        <time>2025-05-06T15:35:22.418Z</time>
      </trkpt>
      <trkpt lat="48.900243" lon="2.329617">
        <ele>43.798580</ele>
        <time>2025-05-06T15:35:29.197Z</time>
      </trkpt>
      <trkpt lat="48.900163" lon="2.329595">
        <ele>43.940869</ele>
        <time>2025-05-06T15:35:31.553Z</time>
      </trkpt>
      <trkpt lat="48.899750" lon="2.329519">
        <ele>44.763800</ele>
        <time>2025-05-06T15:35:43.756Z</time>
      </trkpt>
      <trkpt lat="48.899111" lon="2.329297">
        <ele>46.287137</ele>
        <time>2025-05-06T15:36:05.312Z</time>
      </trkpt>
      <trkpt lat="48.899078" lon="2.329269">
        <ele>46.374956</ele>
        <time>2025-05-06T15:36:06.628Z</time>
      </trkpt>
      <trkpt lat="48.898999" lon="2.329204">
        <ele>46.583696</ele>
        <time>2025-05-06T15:36:09.652Z</time>
      </trkpt>
      <trkpt lat="48.898886" lon="2.329138">
        <ele>46.865013</ele>
        <time>2025-05-06T15:36:13.864Z</time>
      </trkpt>
      <trkpt lat="48.898125" lon="2.328879">
        <ele>48.634248</ele>
        <time>2025-05-06T15:36:43.121Z</time>
      </trkpt>
      <trkpt lat="48.897941" lon="2.329091">
        <ele>48.973538</ele>
        <time>2025-05-06T15:36:51.834Z</time>
      </trkpt>
      <trkpt lat="48.897731" lon="2.329014">
        <ele>49.291060</ele>
        <time>2025-05-06T15:36:59.657Z</time>
      </trkpt>
      <trkpt lat="48.897706" lon="2.328731">
        <ele>49.566988</ele>
        <time>2025-05-06T15:37:05.642Z</time>
      </trkpt>
      <trkpt lat="48.897685" lon="2.327952">
        <ele>50.320389</ele>
        <time>2025-05-06T15:37:20.754Z</time>
      </trkpt>
      <trkpt lat="48.897666" lon="2.326936">
        <ele>51.100659</ele>
        <time>2025-05-06T15:37:37.742Z</time>
      </trkpt>
      <trkpt lat="48.897658" lon="2.326545">
        <ele>50.705370</ele>
        <time>2025-05-06T15:37:43.033Z</time>
      </trkpt>
      <trkpt lat="48.897653" lon="2.326248">
        <ele>50.405158</ele>
        <time>2025-05-06T15:37:46.830Z</time>
      </trkpt>
      <trkpt lat="48.897649" lon="2.325322">
        <ele>49.469433</ele>
        <time>2025-05-06T15:37:57.907Z</time>
      </trkpt>
      <trkpt lat="48.897641" lon="2.324785">
        <ele>48.926665</ele>
        <time>2025-05-06T15:38:04.374Z</time>
      </trkpt>
      <trkpt lat="48.897635" lon="2.324431">
        <ele>48.568835</ele>
        <time>2025-05-06T15:38:08.588Z</time>
      </trkpt>
      <trkpt lat="48.897617" lon="2.324143">
        <ele>48.155885</ele>
        <time>2025-05-06T15:38:11.949Z</time>
      </trkpt>
      <trkpt lat="48.897608" lon="2.323941">
        <ele>47.799648</ele>
        <time>2025-05-06T15:38:14.346Z</time>
      </trkpt>
      <trkpt lat="48.897587" lon="2.323212">
        <ele>46.515730</ele>
        <time>2025-05-06T15:38:23.028Z</time>
      </trkpt>
      <trkpt lat="48.897584" lon="2.322915">
        <ele>45.993092</ele>
        <time>2025-05-06T15:38:26.570Z</time>
      </trkpt>
      <trkpt lat="48.897584" lon="2.322879">
        <ele>45.929749</ele>
        <time>2025-05-06T15:38:26.996Z</time>
      </trkpt>
      <trkpt lat="48.897577" lon="2.322528">
        <ele>45.311875</ele>
        <time>2025-05-06T15:38:31.086Z</time>
      </trkpt>
      <trkpt lat="48.897596" lon="2.322281">
        <ele>44.874309</ele>
        <time>2025-05-06T15:38:34.009Z</time>
      </trkpt>
      <trkpt lat="48.897594" lon="2.322159">
        <ele>44.659581</ele>
        <time>2025-05-06T15:38:35.429Z</time>
      </trkpt>
      <trkpt lat="48.897495" lon="2.321621">
        <ele>43.676576</ele>
        <time>2025-05-06T15:38:41.671Z</time>
      </trkpt>
      <trkpt lat="48.897475" lon="2.321531">
        <ele>43.463927</ele>
        <time>2025-05-06T15:38:42.693Z</time>
      </trkpt>
      <trkpt lat="48.897330" lon="2.321120">
        <ele>42.320892</ele>
        <time>2025-05-06T15:38:47.753Z</time>
      </trkpt>
      <trkpt lat="48.897294" lon="2.321026">
        <ele>42.054305</ele>
        <time>2025-05-06T15:38:48.936Z</time>
      </trkpt>
      <trkpt lat="48.896972" lon="2.320177">
        <ele>39.652387</ele>
        <time>2025-05-06T15:38:59.481Z</time>
      </trkpt>
      <trkpt lat="48.896955" lon="2.320131">
        <ele>39.523071</ele>
        <time>2025-05-06T15:39:00.031Z</time>
      </trkpt>
      <trkpt lat="48.896858" lon="2.319879">
        <ele>38.807464</ele>
        <time>2025-05-06T15:39:03.130Z</time>
      </trkpt>
      <trkpt lat="48.896836" lon="2.319822">
        <ele>38.645489</ele>
        <time>2025-05-06T15:39:03.824Z</time>
      </trkpt>
      <trkpt lat="48.896634" lon="2.319291">
        <ele>37.142087</ele>
        <time>2025-05-06T15:39:10.540Z</time>
      </trkpt>
      <trkpt lat="48.896575" lon="2.319207">
        <ele>36.889270</ele>
        <time>2025-05-06T15:39:11.961Z</time>
      </trkpt>
      <trkpt lat="48.896538" lon="2.319107">
        <ele>36.778600</ele>
        <time>2025-05-06T15:39:13.251Z</time>
      </trkpt>
      <trkpt lat="48.896256" lon="2.318368">
        <ele>35.954507</ele>
        <time>2025-05-06T15:39:23.555Z</time>
      </trkpt>
      <trkpt lat="48.896240" lon="2.318298">
        <ele>35.883031</ele>
        <time>2025-05-06T15:39:24.442Z</time>
      </trkpt>
      <trkpt lat="48.896222" lon="2.318214">
        <ele>35.797822</ele>
        <time>2025-05-06T15:39:25.582Z</time>
      </trkpt>
      <trkpt lat="48.895390" lon="2.316026">
        <ele>34.369083</ele>
        <time>2025-05-06T15:39:59.622Z</time>
      </trkpt>
      <trkpt lat="48.895323" lon="2.315910">
        <ele>34.383140</ele>
        <time>2025-05-06T15:40:02.140Z</time>
      </trkpt>
      <trkpt lat="48.895294" lon="2.315823">
        <ele>34.392021</ele>
        <time>2025-05-06T15:40:03.696Z</time>
      </trkpt>
      <trkpt lat="48.895058" lon="2.315149">
        <ele>34.461542</ele>
        <time>2025-05-06T15:40:16.413Z</time>
      </trkpt>
      <trkpt lat="48.894866" lon="2.314533">
        <ele>34.523607</ele>
        <time>2025-05-06T15:40:28.823Z</time>
      </trkpt>
      <trkpt lat="48.894545" lon="2.313668">
        <ele>34.505781</ele>
        <time>2025-05-06T15:40:46.690Z</time>
      </trkpt>
      <trkpt lat="48.894457" lon="2.313470">
        <ele>34.499131</ele>
        <time>2025-05-06T15:40:50.576Z</time>
      </trkpt>
      <trkpt lat="48.894357" lon="2.313251">
        <ele>34.491713</ele>
        <time>2025-05-06T15:40:54.397Z</time>
      </trkpt>
      <trkpt lat="48.894288" lon="2.313083">
        <ele>34.486201</ele>
        <time>2025-05-06T15:40:57.103Z</time>
      </trkpt>
      <trkpt lat="48.894040" lon="2.312542">
        <ele>34.467852</ele>
        <time>2025-05-06T15:41:06.021Z</time>
      </trkpt>
      <trkpt lat="48.893793" lon="2.311881">
        <ele>34.289751</ele>
        <time>2025-05-06T15:41:16.453Z</time>
      </trkpt>
      <trkpt lat="48.893754" lon="2.311775">
        <ele>34.222508</ele>
        <time>2025-05-06T15:41:18.036Z</time>
      </trkpt>
      <trkpt lat="48.893685" lon="2.311617">
        <ele>34.117506</ele>
        <time>2025-05-06T15:41:20.459Z</time>
      </trkpt>
      <trkpt lat="48.893653" lon="2.311464">
        <ele>34.028626</ele>
        <time>2025-05-06T15:41:22.496Z</time>
      </trkpt>
      <trkpt lat="48.893627" lon="2.311337">
        <ele>33.954992</ele>
        <time>2025-05-06T15:41:24.161Z</time>
      </trkpt>
      <trkpt lat="48.893221" lon="2.310263">
        <ele>33.269172</ele>
        <time>2025-05-06T15:41:40.048Z</time>
      </trkpt>
      <trkpt lat="48.892768" lon="2.309295">
        <ele>33.072036</ele>
        <time>2025-05-06T15:41:56.818Z</time>
      </trkpt>
      <trkpt lat="48.892665" lon="2.309120">
        <ele>33.123981</ele>
        <time>2025-05-06T15:42:00.241Z</time>
      </trkpt>
      <trkpt lat="48.892624" lon="2.309105">
        <ele>33.138166</ele>
        <time>2025-05-06T15:42:01.163Z</time>
      </trkpt>
      <trkpt lat="48.892597" lon="2.309043">
        <ele>33.154613</ele>
        <time>2025-05-06T15:42:02.339Z</time>
      </trkpt>
      <trkpt lat="48.892523" lon="2.308874">
        <ele>33.199519</ele>
        <time>2025-05-06T15:42:05.511Z</time>
      </trkpt>
      <trkpt lat="48.892445" lon="2.308697">
        <ele>33.246643</ele>
        <time>2025-05-06T15:42:08.911Z</time>
      </trkpt>
      <trkpt lat="48.892413" lon="2.308549">
        <ele>33.281099</ele>
        <time>2025-05-06T15:42:11.486Z</time>
      </trkpt>
      <trkpt lat="48.891587" lon="2.306833">
        <ele>34.245237</ele>
        <time>2025-05-06T15:42:50.292Z</time>
      </trkpt>
      <trkpt lat="48.891431" lon="2.306629">
        <ele>34.480422</ele>
        <time>2025-05-06T15:42:56.380Z</time>
      </trkpt>
      <trkpt lat="48.891260" lon="2.306259">
        <ele>34.820348</ele>
        <time>2025-05-06T15:43:04.567Z</time>
      </trkpt>
      <trkpt lat="48.891198" lon="2.306122">
        <ele>34.945353</ele>
        <time>2025-05-06T15:43:07.534Z</time>
      </trkpt>
      <trkpt lat="48.891051" lon="2.305812">
        <ele>35.232630</ele>
        <time>2025-05-06T15:43:14.744Z</time>
      </trkpt>
      <trkpt lat="48.890812" lon="2.305303">
        <ele>35.683468</ele>
        <time>2025-05-06T15:43:27.641Z</time>
      </trkpt>
      <trkpt lat="48.890670" lon="2.304997">
        <ele>35.911275</ele>
        <time>2025-05-06T15:43:34.612Z</time>
      </trkpt>
      <trkpt lat="48.890228" lon="2.304077">
        <ele>36.604322</ele>
        <time>2025-05-06T15:43:55.417Z</time>
      </trkpt>
      <trkpt lat="48.890214" lon="2.304043">
        <ele>36.628722</ele>
        <time>2025-05-06T15:43:56.055Z</time>
      </trkpt>
      <trkpt lat="48.890146" lon="2.303888">
        <ele>36.742059</ele>
        <time>2025-05-06T15:43:58.768Z</time>
      </trkpt>
      <trkpt lat="48.890059" lon="2.303707">
        <ele>36.878432</ele>
        <time>2025-05-06T15:44:02.199Z</time>
      </trkpt>
      <trkpt lat="48.889958" lon="2.303478">
        <ele>37.046154</ele>
        <time>2025-05-06T15:44:07.306Z</time>
      </trkpt>
      <trkpt lat="48.889664" lon="2.302883">
        <ele>37.519768</ele>
        <time>2025-05-06T15:44:20.463Z</time>
      </trkpt>
      <trkpt lat="48.889610" lon="2.302766">
        <ele>37.614507</ele>
        <time>2025-05-06T15:44:22.650Z</time>
      </trkpt>
      <trkpt lat="48.889455" lon="2.302487">
        <ele>37.856583</ele>
        <time>2025-05-06T15:44:28.569Z</time>
      </trkpt>
      <trkpt lat="48.889226" lon="2.301989">
        <ele>38.259344</ele>
        <time>2025-05-06T15:44:40.556Z</time>
      </trkpt>
      <trkpt lat="48.888888" lon="2.301283">
        <ele>38.838147</ele>
        <time>2025-05-06T15:44:57.682Z</time>
      </trkpt>
      <trkpt lat="48.888791" lon="2.301108">
        <ele>38.989844</ele>
        <time>2025-05-06T15:45:02.616Z</time>
      </trkpt>
      <trkpt lat="48.888771" lon="2.301066">
        <ele>39.024214</ele>
        <time>2025-05-06T15:45:03.758Z</time>
      </trkpt>
      <trkpt lat="48.888801" lon="2.301033">
        <ele>39.061534</ele>
        <time>2025-05-06T15:45:04.796Z</time>
      </trkpt>
      <trkpt lat="48.888676" lon="2.300769">
        <ele>39.001279</ele>
        <time>2025-05-06T15:45:11.038Z</time>
      </trkpt>
      <trkpt lat="48.888433" lon="2.300257">
        <ele>38.838417</ele>
        <time>2025-05-06T15:45:21.172Z</time>
      </trkpt>
      <trkpt lat="48.888209" lon="2.299782">
        <ele>38.687653</ele>
        <time>2025-05-06T15:45:30.151Z</time>
      </trkpt>
      <trkpt lat="48.888129" lon="2.299611">
        <ele>38.633524</ele>
        <time>2025-05-06T15:45:32.987Z</time>
      </trkpt>
      <trkpt lat="48.888030" lon="2.299400">
        <ele>38.566667</ele>
        <time>2025-05-06T15:45:36.364Z</time>
      </trkpt>
      <trkpt lat="48.887425" lon="2.298123">
        <ele>37.635138</ele>
        <time>2025-05-06T15:45:55.062Z</time>
      </trkpt>
      <trkpt lat="48.887405" lon="2.298082">
        <ele>37.589377</ele>
        <time>2025-05-06T15:45:55.682Z</time>
      </trkpt>
      <trkpt lat="48.887374" lon="2.297998">
        <ele>37.503032</ele>
        <time>2025-05-06T15:45:56.882Z</time>
      </trkpt>
      <trkpt lat="48.887320" lon="2.297683">
        <ele>37.211231</ele>
        <time>2025-05-06T15:46:00.905Z</time>
      </trkpt>
      <trkpt lat="48.887339" lon="2.297419">
        <ele>36.973171</ele>
        <time>2025-05-06T15:46:04.212Z</time>
      </trkpt>
      <trkpt lat="48.887351" lon="2.297370">
        <ele>36.926301</ele>
        <time>2025-05-06T15:46:04.872Z</time>
      </trkpt>
      <trkpt lat="48.887538" lon="2.296726">
        <ele>36.295245</ele>
        <time>2025-05-06T15:46:13.659Z</time>
      </trkpt>
      <trkpt lat="48.887767" lon="2.295944">
        <ele>36.212184</ele>
        <time>2025-05-06T15:46:25.736Z</time>
      </trkpt>
      <trkpt lat="48.887781" lon="2.295899">
        <ele>36.245231</ele>
        <time>2025-05-06T15:46:26.628Z</time>
      </trkpt>
      <trkpt lat="48.887825" lon="2.295761">
        <ele>36.347039</ele>
        <time>2025-05-06T15:46:29.729Z</time>
      </trkpt>
      <trkpt lat="48.887988" lon="2.295229">
        <ele>36.736645</ele>
        <time>2025-05-06T15:46:41.017Z</time>
      </trkpt>
      <trkpt lat="48.887998" lon="2.295195">
        <ele>36.761369</ele>
        <time>2025-05-06T15:46:41.795Z</time>
      </trkpt>
      <trkpt lat="48.887751" lon="2.294819">
        <ele>37.114182</ele>
        <time>2025-05-06T15:46:52.784Z</time>
      </trkpt>
      <trkpt lat="48.887730" lon="2.294787">
        <ele>37.144193</ele>
        <time>2025-05-06T15:46:53.653Z</time>
      </trkpt>
      <trkpt lat="48.887710" lon="2.294758">
        <ele>37.172091</ele>
        <time>2025-05-06T15:46:54.470Z</time>
      </trkpt>
      <trkpt lat="48.887637" lon="2.294647">
        <ele>37.276305</ele>
        <time>2025-05-06T15:46:57.882Z</time>
      </trkpt>
      <trkpt lat="48.887547" lon="2.294511">
        <ele>37.404390</ele>
        <time>2025-05-06T15:47:01.875Z</time>
      </trkpt>
      <trkpt lat="48.887500" lon="2.294437">
        <ele>37.472686</ele>
        <time>2025-05-06T15:47:03.779Z</time>
      </trkpt>
      <trkpt lat="48.887476" lon="2.294399">
        <ele>37.507663</ele>
        <time>2025-05-06T15:47:04.767Z</time>
      </trkpt>
      <trkpt lat="48.887175" lon="2.293907">
        <ele>37.824997</ele>
        <time>2025-05-06T15:47:17.889Z</time>
      </trkpt>
      <trkpt lat="48.887154" lon="2.293872">
        <ele>37.837778</ele>
        <time>2025-05-06T15:47:18.852Z</time>
      </trkpt>
      <trkpt lat="48.887040" lon="2.293686">
        <ele>37.906365</ele>
        <time>2025-05-06T15:47:23.667Z</time>
      </trkpt>
      <trkpt lat="48.887018" lon="2.293651">
        <ele>37.919425</ele>
        <time>2025-05-06T15:47:24.537Z</time>
      </trkpt>
      <trkpt lat="48.886504" lon="2.292825">
        <ele>38.226184</ele>
        <time>2025-05-06T15:47:40.633Z</time>
      </trkpt>
      <trkpt lat="48.886299" lon="2.292467">
        <ele>38.354236</ele>
        <time>2025-05-06T15:47:47.376Z</time>
      </trkpt>
      <trkpt lat="48.886280" lon="2.292429">
        <ele>38.367113</ele>
        <time>2025-05-06T15:47:48.194Z</time>
      </trkpt>
      <trkpt lat="48.886099" lon="2.292092">
        <ele>38.471230</ele>
        <time>2025-05-06T15:47:55.320Z</time>
      </trkpt>
      <trkpt lat="48.885802" lon="2.291618">
        <ele>38.408612</ele>
        <time>2025-05-06T15:48:06.613Z</time>
      </trkpt>
      <trkpt lat="48.885792" lon="2.291601">
        <ele>38.406430</ele>
        <time>2025-05-06T15:48:07.024Z</time>
      </trkpt>
      <trkpt lat="48.885689" lon="2.291450">
        <ele>38.385622</ele>
        <time>2025-05-06T15:48:10.565Z</time>
      </trkpt>
      <trkpt lat="48.885500" lon="2.291177">
        <ele>38.347709</ele>
        <time>2025-05-06T15:48:16.473Z</time>
      </trkpt>
      <trkpt lat="48.885465" lon="2.291126">
        <ele>38.340659</ele>
        <time>2025-05-06T15:48:17.478Z</time>
      </trkpt>
      <trkpt lat="48.885168" lon="2.290653">
        <ele>38.278110</ele>
        <time>2025-05-06T15:48:26.684Z</time>
      </trkpt>
      <trkpt lat="48.885143" lon="2.290614">
        <ele>38.272901</ele>
        <time>2025-05-06T15:48:27.426Z</time>
      </trkpt>
      <trkpt lat="48.884412" lon="2.289438">
        <ele>37.918526</ele>
        <time>2025-05-06T15:48:48.580Z</time>
      </trkpt>
      <trkpt lat="48.884122" lon="2.288973">
        <ele>37.728404</ele>
        <time>2025-05-06T15:48:56.727Z</time>
      </trkpt>
      <trkpt lat="48.884087" lon="2.288916">
        <ele>37.705268</ele>
        <time>2025-05-06T15:48:57.806Z</time>
      </trkpt>
      <trkpt lat="48.884062" lon="2.288876">
        <ele>37.688897</ele>
        <time>2025-05-06T15:48:58.568Z</time>
      </trkpt>
      <trkpt lat="48.883581" lon="2.288107">
        <ele>37.425924</ele>
        <time>2025-05-06T15:49:15.534Z</time>
      </trkpt>
      <trkpt lat="48.883543" lon="2.288045">
        <ele>37.448024</ele>
        <time>2025-05-06T15:49:17.136Z</time>
      </trkpt>
      <trkpt lat="48.883232" lon="2.287548">
        <ele>37.626915</ele>
        <time>2025-05-06T15:49:29.170Z</time>
      </trkpt>
      <trkpt lat="48.883144" lon="2.287405">
        <ele>37.677983</ele>
        <time>2025-05-06T15:49:32.630Z</time>
      </trkpt>
      <trkpt lat="48.883050" lon="2.287253">
        <ele>37.732391</ele>
        <time>2025-05-06T15:49:36.145Z</time>
      </trkpt>
      <trkpt lat="48.882405" lon="2.286221">
        <ele>38.103642</ele>
        <time>2025-05-06T15:49:58.699Z</time>
      </trkpt>
      <trkpt lat="48.882380" lon="2.286183">
        <ele>38.110273</ele>
        <time>2025-05-06T15:49:59.472Z</time>
      </trkpt>
      <trkpt lat="48.882324" lon="2.286099">
        <ele>38.059140</ele>
        <time>2025-05-06T15:50:01.190Z</time>
      </trkpt>
      <trkpt lat="48.882275" lon="2.286036">
        <ele>38.017428</ele>
        <time>2025-05-06T15:50:02.641Z</time>
      </trkpt>
      <trkpt lat="48.882241" lon="2.285994">
        <ele>37.988952</ele>
        <time>2025-05-06T15:50:03.588Z</time>
      </trkpt>
      <trkpt lat="48.881835" lon="2.285357">
        <ele>37.609732</ele>
        <time>2025-05-06T15:50:15.426Z</time>
      </trkpt>
      <trkpt lat="48.881809" lon="2.285316">
        <ele>37.585384</ele>
        <time>2025-05-06T15:50:16.155Z</time>
      </trkpt>
      <trkpt lat="48.881754" lon="2.285227">
        <ele>37.533174</ele>
        <time>2025-05-06T15:50:17.838Z</time>
      </trkpt>
      <trkpt lat="48.881666" lon="2.285086">
        <ele>37.450074</ele>
        <time>2025-05-06T15:50:20.450Z</time>
      </trkpt>
      <trkpt lat="48.881349" lon="2.284579">
        <ele>37.151010</ele>
        <time>2025-05-06T15:50:29.876Z</time>
      </trkpt>
      <trkpt lat="48.881293" lon="2.284558">
        <ele>37.113516</ele>
        <time>2025-05-06T15:50:31.099Z</time>
      </trkpt>
      <trkpt lat="48.881204" lon="2.284403">
        <ele>37.025551</ele>
        <time>2025-05-06T15:50:33.954Z</time>
      </trkpt>
      <trkpt lat="48.881308" lon="2.283986">
        <ele>36.849902</ele>
        <time>2025-05-06T15:50:40.295Z</time>
      </trkpt>
      <trkpt lat="48.881284" lon="2.283876">
        <ele>36.807070</ele>
        <time>2025-05-06T15:50:42.025Z</time>
      </trkpt>
      <trkpt lat="48.881179" lon="2.283754">
        <ele>36.732807</ele>
        <time>2025-05-06T15:50:44.675Z</time>
      </trkpt>
      <trkpt lat="48.881127" lon="2.283726">
        <ele>36.701806</ele>
        <time>2025-05-06T15:50:45.744Z</time>
      </trkpt>
      <trkpt lat="48.881098" lon="2.283718">
        <ele>36.685243</ele>
        <time>2025-05-06T15:50:46.316Z</time>
      </trkpt>
      <trkpt lat="48.881081" lon="2.283713">
        <ele>36.675512</ele>
        <time>2025-05-06T15:50:46.667Z</time>
      </trkpt>
      <trkpt lat="48.881033" lon="2.283700">
        <ele>36.648112</ele>
        <time>2025-05-06T15:50:47.662Z</time>
      </trkpt>
      <trkpt lat="48.880976" lon="2.283712">
        <ele>36.615774</ele>
        <time>2025-05-06T15:50:48.806Z</time>
      </trkpt>
      <trkpt lat="48.880920" lon="2.283747">
        <ele>36.581748</ele>
        <time>2025-05-06T15:50:50.036Z</time>
      </trkpt>
      <trkpt lat="48.880874" lon="2.283827">
        <ele>36.542474</ele>
        <time>2025-05-06T15:50:51.547Z</time>
      </trkpt>
      <trkpt lat="48.880854" lon="2.283786">
        <ele>36.523608</ele>
        <time>2025-05-06T15:50:52.173Z</time>
      </trkpt>
      <trkpt lat="48.880587" lon="2.283427">
        <ele>36.323313</ele>
        <time>2025-05-06T15:50:59.877Z</time>
      </trkpt>
      <trkpt lat="48.879975" lon="2.282643">
        <ele>35.960005</ele>
        <time>2025-05-06T15:51:16.672Z</time>
      </trkpt>
      <trkpt lat="48.879797" lon="2.282413">
        <ele>36.013974</ele>
        <time>2025-05-06T15:51:21.333Z</time>
      </trkpt>
      <trkpt lat="48.879740" lon="2.282339">
        <ele>36.031291</ele>
        <time>2025-05-06T15:51:22.831Z</time>
      </trkpt>
      <trkpt lat="48.879616" lon="2.282181">
        <ele>36.068670</ele>
        <time>2025-05-06T15:51:26.094Z</time>
      </trkpt>
      <trkpt lat="48.879631" lon="2.282051">
        <ele>36.088724</ele>
        <time>2025-05-06T15:51:27.859Z</time>
      </trkpt>
      <trkpt lat="48.879657" lon="2.281905">
        <ele>36.111708</ele>
        <time>2025-05-06T15:51:29.899Z</time>
      </trkpt>
      <trkpt lat="48.879725" lon="2.281661">
        <ele>36.151974</ele>
        <time>2025-05-06T15:51:33.621Z</time>
      </trkpt>
      <trkpt lat="48.879782" lon="2.281603">
        <ele>36.167820</ele>
        <time>2025-05-06T15:51:35.234Z</time>
      </trkpt>
      <trkpt lat="48.879819" lon="2.281508">
        <ele>36.184597</ele>
        <time>2025-05-06T15:51:36.981Z</time>
      </trkpt>
      <trkpt lat="48.879809" lon="2.281273">
        <ele>36.220378</ele>
        <time>2025-05-06T15:51:40.948Z</time>
      </trkpt>
      <trkpt lat="48.879755" lon="2.281154">
        <ele>36.242347</ele>
        <time>2025-05-06T15:51:43.539Z</time>
      </trkpt>
      <trkpt lat="48.879478" lon="2.280752">
        <ele>36.330817</ele>
        <time>2025-05-06T15:51:54.671Z</time>
      </trkpt>
      <trkpt lat="48.879349" lon="2.280659">
        <ele>36.413679</ele>
        <time>2025-05-06T15:51:59.102Z</time>
      </trkpt>
      <trkpt lat="48.879277" lon="2.280625">
        <ele>36.495921</ele>
        <time>2025-05-06T15:52:01.473Z</time>
      </trkpt>
      <trkpt lat="48.879113" lon="2.280505">
        <ele>36.694458</ele>
        <time>2025-05-06T15:52:07.382Z</time>
      </trkpt>
      <trkpt lat="48.878833" lon="2.280186">
        <ele>37.076124</ele>
        <time>2025-05-06T15:52:17.555Z</time>
      </trkpt>
      <trkpt lat="48.878796" lon="2.280155">
        <ele>37.122207</ele>
        <time>2025-05-06T15:52:18.777Z</time>
      </trkpt>
      <trkpt lat="48.878816" lon="2.280093">
        <ele>37.171749</ele>
        <time>2025-05-06T15:52:20.036Z</time>
      </trkpt>
      <trkpt lat="48.878881" lon="2.279894">
        <ele>37.331153</ele>
        <time>2025-05-06T15:52:24.246Z</time>
      </trkpt>
      <trkpt lat="48.878833" lon="2.279858">
        <ele>37.389537</ele>
        <time>2025-05-06T15:52:25.850Z</time>
      </trkpt>
      <trkpt lat="48.878798" lon="2.279831">
        <ele>37.432350</ele>
        <time>2025-05-06T15:52:27.004Z</time>
      </trkpt>
      <trkpt lat="48.878780" lon="2.279819">
        <ele>37.453790</ele>
        <time>2025-05-06T15:52:27.572Z</time>
      </trkpt>
      <trkpt lat="48.878527" lon="2.279626">
        <ele>37.762563</ele>
        <time>2025-05-06T15:52:35.710Z</time>
      </trkpt>
      <trkpt lat="48.878502" lon="2.279608">
        <ele>37.792737</ele>
        <time>2025-05-06T15:52:36.451Z</time>
      </trkpt>
      <trkpt lat="48.878478" lon="2.279591">
        <ele>37.821619</ele>
        <time>2025-05-06T15:52:37.112Z</time>
      </trkpt>
      <trkpt lat="48.878434" lon="2.279558">
        <ele>37.875139</ele>
        <time>2025-05-06T15:52:38.409Z</time>
      </trkpt>
      <trkpt lat="48.878385" lon="2.279677">
        <ele>37.975864</ele>
        <time>2025-05-06T15:52:40.617Z</time>
      </trkpt>
      <trkpt lat="48.878371" lon="2.279720">
        <ele>38.010286</ele>
        <time>2025-05-06T15:52:41.324Z</time>
      </trkpt>
      <trkpt lat="48.878333" lon="2.279696">
        <ele>38.055173</ele>
        <time>2025-05-06T15:52:42.362Z</time>
      </trkpt>
      <trkpt lat="48.877883" lon="2.279369">
        <ele>38.418436</ele>
        <time>2025-05-06T15:52:54.098Z</time>
      </trkpt>
      <trkpt lat="48.877874" lon="2.279323">
        <ele>38.431159</ele>
        <time>2025-05-06T15:52:54.863Z</time>
      </trkpt>
      <trkpt lat="48.877846" lon="2.279305">
        <ele>38.443412</ele>
        <time>2025-05-06T15:52:55.545Z</time>
      </trkpt>
      <trkpt lat="48.877813" lon="2.279276">
        <ele>38.458776</ele>
        <time>2025-05-06T15:52:56.449Z</time>
      </trkpt>
      <trkpt lat="48.877773" lon="2.279250">
        <ele>38.476311</ele>
        <time>2025-05-06T15:52:57.479Z</time>
      </trkpt>
      <trkpt lat="48.877757" lon="2.279240">
        <ele>38.483284</ele>
        <time>2025-05-06T15:52:57.909Z</time>
      </trkpt>
      <trkpt lat="48.877742" lon="2.279233">
        <ele>38.489608</ele>
        <time>2025-05-06T15:52:58.283Z</time>
      </trkpt>
      <trkpt lat="48.877620" lon="2.279286">
        <ele>38.540753</ele>
        <time>2025-05-06T15:53:01.299Z</time>
      </trkpt>
      <trkpt lat="48.877441" lon="2.279189">
        <ele>38.617350</ele>
        <time>2025-05-06T15:53:05.919Z</time>
      </trkpt>
      <trkpt lat="48.877414" lon="2.279144">
        <ele>38.633498</ele>
        <time>2025-05-06T15:53:06.870Z</time>
      </trkpt>
      <trkpt lat="48.877369" lon="2.278917">
        <ele>38.696350</ele>
        <time>2025-05-06T15:53:10.989Z</time>
      </trkpt>
      <trkpt lat="48.877362" lon="2.278879">
        <ele>38.706811</ele>
        <time>2025-05-06T15:53:11.677Z</time>
      </trkpt>
      <trkpt lat="48.877310" lon="2.278542">
        <ele>38.798575</ele>
        <time>2025-05-06T15:53:17.637Z</time>
      </trkpt>
      <trkpt lat="48.877347" lon="2.278504">
        <ele>38.816573</ele>
        <time>2025-05-06T15:53:18.764Z</time>
      </trkpt>
      <trkpt lat="48.877202" lon="2.277507">
        <ele>38.981059</ele>
        <time>2025-05-06T15:53:36.641Z</time>
      </trkpt>
      <trkpt lat="48.877065" lon="2.276638">
        <ele>38.712559</ele>
        <time>2025-05-06T15:53:50.468Z</time>
      </trkpt>
      <trkpt lat="48.876965" lon="2.275462">
        <ele>38.356271</ele>
        <time>2025-05-06T15:54:07.957Z</time>
      </trkpt>
      <trkpt lat="48.876938" lon="2.275167">
        <ele>38.266780</ele>
        <time>2025-05-06T15:54:12.454Z</time>
      </trkpt>
      <trkpt lat="48.876927" lon="2.275032">
        <ele>38.225907</ele>
        <time>2025-05-06T15:54:14.533Z</time>
      </trkpt>
      <trkpt lat="48.876855" lon="2.274121">
        <ele>38.234332</ele>
        <time>2025-05-06T15:54:56.490Z</time>
      </trkpt>
      <trkpt lat="48.876770" lon="2.273061">
        <ele>38.256774</ele>
        <time>2025-05-06T15:55:45.315Z</time>
      </trkpt>
      <trkpt lat="48.876779" lon="2.272545">
        <ele>38.267623</ele>
        <time>2025-05-06T15:56:08.893Z</time>
      </trkpt>
      <trkpt lat="48.876812" lon="2.272358">
        <ele>38.271692</ele>
        <time>2025-05-06T15:56:17.747Z</time>
      </trkpt>
      <trkpt lat="48.876812" lon="2.272358">
        <ele>38.271692</ele>
        <time>2025-05-06T15:56:17.753Z</time>
      </trkpt>
      <trkpt lat="48.876746" lon="2.272277">
        <ele>38.251766</ele>
        <time>2025-05-06T15:56:19.948Z</time>
      </trkpt>
      <trkpt lat="48.876707" lon="2.272057">
        <ele>38.163717</ele>
        <time>2025-05-06T15:56:25.355Z</time>
      </trkpt>
      <trkpt lat="48.876660" lon="2.271713">
        <ele>38.027947</ele>
        <time>2025-05-06T15:56:33.550Z</time>
      </trkpt>
      <trkpt lat="48.876637" lon="2.271395">
        <ele>37.904321</ele>
        <time>2025-05-06T15:56:40.955Z</time>
      </trkpt>
      <trkpt lat="48.876593" lon="2.270806">
        <ele>37.675250</ele>
        <time>2025-05-06T15:56:54.632Z</time>
      </trkpt>
      <trkpt lat="48.876587" lon="2.270691">
        <ele>37.630671</ele>
        <time>2025-05-06T15:56:57.276Z</time>
      </trkpt>
      <trkpt lat="48.876581" lon="2.270575">
        <ele>37.585706</ele>
        <time>2025-05-06T15:56:59.975Z</time>
      </trkpt>
      <trkpt lat="48.876566" lon="2.270327">
        <ele>37.489467</ele>
        <time>2025-05-06T15:57:05.715Z</time>
      </trkpt>
      <trkpt lat="48.876430" lon="2.268912">
        <ele>37.015444</ele>
        <time>2025-05-06T15:57:38.459Z</time>
      </trkpt>
      <trkpt lat="48.876341" lon="2.267867">
        <ele>36.722715</ele>
        <time>2025-05-06T15:58:03.292Z</time>
      </trkpt>
      <trkpt lat="48.876333" lon="2.267779">
        <ele>36.698036</ele>
        <time>2025-05-06T15:58:05.397Z</time>
      </trkpt>
      <trkpt lat="48.876328" lon="2.267731">
        <ele>36.684535</ele>
        <time>2025-05-06T15:58:06.546Z</time>
      </trkpt>
      <trkpt lat="48.876323" lon="2.267665">
        <ele>36.666079</ele>
        <time>2025-05-06T15:58:08.134Z</time>
      </trkpt>
      <trkpt lat="48.876189" lon="2.266216">
        <ele>36.595508</ele>
        <time>2025-05-06T15:58:43.744Z</time>
      </trkpt>
      <trkpt lat="48.875982" lon="2.263867">
        <ele>36.932928</ele>
        <time>2025-05-06T15:59:45.343Z</time>
      </trkpt>
      <trkpt lat="48.875843" lon="2.262481">
        <ele>36.693365</ele>
        <time>2025-05-06T16:00:18.899Z</time>
      </trkpt>
      <trkpt lat="48.875893" lon="2.262378">
        <ele>36.671490</ele>
        <time>2025-05-06T16:00:21.879Z</time>
      </trkpt>
      <trkpt lat="48.875845" lon="2.262202">
        <ele>36.638934</ele>
        <time>2025-05-06T16:00:24.467Z</time>
      </trkpt>
      <trkpt lat="48.875798" lon="2.262023">
        <ele>36.606001</ele>
        <time>2025-05-06T16:00:27.079Z</time>
      </trkpt>
      <trkpt lat="48.875656" lon="2.261503">
        <ele>36.509662</ele>
        <time>2025-05-06T16:00:34.656Z</time>
      </trkpt>
      <trkpt lat="48.875739" lon="2.261456">
        <ele>36.486446</ele>
        <time>2025-05-06T16:00:40.826Z</time>
      </trkpt>
      <trkpt lat="48.875741" lon="2.261350">
        <ele>36.468164</ele>
        <time>2025-05-06T16:00:45.691Z</time>
      </trkpt>
      <trkpt lat="48.875716" lon="2.260623">
        <ele>36.342660</ele>
        <time>2025-05-06T16:01:18.963Z</time>
      </trkpt>
      <trkpt lat="48.875605" lon="2.259990">
        <ele>36.229721</ele>
        <time>2025-05-06T16:01:48.911Z</time>
      </trkpt>
      <trkpt lat="48.875603" lon="2.259413">
        <ele>36.130246</ele>
        <time>2025-05-06T16:02:15.271Z</time>
      </trkpt>
      <trkpt lat="48.875511" lon="2.259005">
        <ele>36.055889</ele>
        <time>2025-05-06T16:02:34.980Z</time>
      </trkpt>
      <trkpt lat="48.875475" lon="2.258844">
        <ele>36.053065</ele>
        <time>2025-05-06T16:02:42.764Z</time>
      </trkpt>
      <trkpt lat="48.875432" lon="2.258447">
        <ele>36.053065</ele>
        <time>2025-05-06T16:03:01.126Z</time>
      </trkpt>
      <trkpt lat="48.875510" lon="2.257347">
        <ele>36.053065</ele>
        <time>2025-05-06T16:03:51.716Z</time>
      </trkpt>
      <trkpt lat="48.875564" lon="2.257109">
        <ele>36.053065</ele>
        <time>2025-05-06T16:04:03.226Z</time>
      </trkpt>
      <trkpt lat="48.875506" lon="2.256941">
        <ele>36.053065</ele>
        <time>2025-05-06T16:04:11.900Z</time>
      </trkpt>
      <trkpt lat="48.875472" lon="2.256842">
        <ele>36.053065</ele>
        <time>2025-05-06T16:04:16.986Z</time>
      </trkpt>
      <trkpt lat="48.875454" lon="2.256706">
        <ele>36.053065</ele>
        <time>2025-05-06T16:04:23.337Z</time>
      </trkpt>
    </trkseg>
  </trk>
</gpx>